<?xml version="1.0" encoding="UTF-8" standalone="no" ?>
<gpx xmlns="http://www.topografix.com/GPX/1/1" xmlns:xsi="http://www.w3.org/2001/XMLSchema-instance" xsi:schemaLocation="http://www.topografix.com/GPX/1/1 http://www.topografix.com/GPX/1/1/gpx.xsd" version="1.1" creator="VisuGPX - https://www.visugpx.com">
  <metadata>
    <name>Sur la Razorbike</name>
    <desc><![CDATA[Avec Sacha, LeChris, Léo, Pascal, Eddy, Nicolas et Pascal (en vacances ici).]]></desc>
  </metadata>
  <trk>
    <name><![CDATA[Sur la Razorbike]]></name>
    <desc><![CDATA[Avec Sacha, LeChris, Léo, Pascal, Eddy, Nicolas et Pascal (en vacances ici).]]></desc>
    <trkseg>
      <trkpt lat="43.55157" lon="7.01127">
        <ele>15.800000190735</ele>
        <time>2013-12-29T07:17:28.000Z</time>
      </trkpt>
      <trkpt lat="43.55142" lon="7.01131">
        <ele>16.200000762939</ele>
        <time>2013-12-29T07:17:34.000Z</time>
      </trkpt>
      <trkpt lat="43.55127" lon="7.0114">
        <ele>15.39999961853</ele>
        <time>2013-12-29T07:17:39.000Z</time>
      </trkpt>
      <trkpt lat="43.55122" lon="7.01139">
        <ele>15.60000038147</ele>
        <time>2013-12-29T07:17:43.000Z</time>
      </trkpt>
      <trkpt lat="43.55111" lon="7.01156">
        <ele>13.199999809265</ele>
        <time>2013-12-29T07:17:47.000Z</time>
      </trkpt>
      <trkpt lat="43.55107" lon="7.01161">
        <ele>12.39999961853</ele>
        <time>2013-12-29T07:17:48.000Z</time>
      </trkpt>
      <trkpt lat="43.55105" lon="7.01171">
        <ele>11.199999809265</ele>
        <time>2013-12-29T07:17:51.000Z</time>
      </trkpt>
      <trkpt lat="43.55099" lon="7.01179">
        <ele>10.39999961853</ele>
        <time>2013-12-29T07:17:54.000Z</time>
      </trkpt>
      <trkpt lat="43.55095" lon="7.01185">
        <ele>9.8000001907349</ele>
        <time>2013-12-29T07:17:56.000Z</time>
      </trkpt>
      <trkpt lat="43.55092" lon="7.01194">
        <ele>9</ele>
        <time>2013-12-29T07:17:58.000Z</time>
      </trkpt>
      <trkpt lat="43.55082" lon="7.01209">
        <ele>7.5999999046326</ele>
        <time>2013-12-29T07:18:02.000Z</time>
      </trkpt>
      <trkpt lat="43.55072" lon="7.01214">
        <ele>7.1999998092651</ele>
        <time>2013-12-29T07:18:05.000Z</time>
      </trkpt>
      <trkpt lat="43.55067" lon="7.01212">
        <ele>7.5999999046326</ele>
        <time>2013-12-29T07:18:06.000Z</time>
      </trkpt>
      <trkpt lat="43.55046" lon="7.01211">
        <ele>8.1999998092651</ele>
        <time>2013-12-29T07:18:11.000Z</time>
      </trkpt>
      <trkpt lat="43.55015" lon="7.01218">
        <ele>7.8000001907349</ele>
        <time>2013-12-29T07:18:18.000Z</time>
      </trkpt>
      <trkpt lat="43.54966" lon="7.0123">
        <ele>6</ele>
        <time>2013-12-29T07:18:28.000Z</time>
      </trkpt>
      <trkpt lat="43.54933" lon="7.01236">
        <ele>5.1999998092651</ele>
        <time>2013-12-29T07:18:35.000Z</time>
      </trkpt>
      <trkpt lat="43.54895" lon="7.01246">
        <ele>3.7999999523163</ele>
        <time>2013-12-29T07:18:42.000Z</time>
      </trkpt>
      <trkpt lat="43.54858" lon="7.01251">
        <ele>3.5999999046326</ele>
        <time>2013-12-29T07:18:50.000Z</time>
      </trkpt>
      <trkpt lat="43.54824" lon="7.01255">
        <ele>3.7999999523163</ele>
        <time>2013-12-29T07:18:57.000Z</time>
      </trkpt>
      <trkpt lat="43.54815" lon="7.01239">
        <ele>4.5999999046326</ele>
        <time>2013-12-29T07:19:00.000Z</time>
      </trkpt>
      <trkpt lat="43.54817" lon="7.01219">
        <ele>6</ele>
        <time>2013-12-29T07:19:03.000Z</time>
      </trkpt>
      <trkpt lat="43.54817" lon="7.01212">
        <ele>6.1999998092651</ele>
        <time>2013-12-29T07:19:04.000Z</time>
      </trkpt>
      <trkpt lat="43.54818" lon="7.01182">
        <ele>8.1999998092651</ele>
        <time>2013-12-29T07:19:09.000Z</time>
      </trkpt>
      <trkpt lat="43.54819" lon="7.01142">
        <ele>9.8000001907349</ele>
        <time>2013-12-29T07:19:15.000Z</time>
      </trkpt>
      <trkpt lat="43.54816" lon="7.01095">
        <ele>10.39999961853</ele>
        <time>2013-12-29T07:19:22.000Z</time>
      </trkpt>
      <trkpt lat="43.54815" lon="7.01082">
        <ele>10.60000038147</ele>
        <time>2013-12-29T07:19:24.000Z</time>
      </trkpt>
      <trkpt lat="43.54816" lon="7.01055">
        <ele>10.199999809265</ele>
        <time>2013-12-29T07:19:28.000Z</time>
      </trkpt>
      <trkpt lat="43.54825" lon="7.01014">
        <ele>11</ele>
        <time>2013-12-29T07:19:34.000Z</time>
      </trkpt>
      <trkpt lat="43.54832" lon="7.00995">
        <ele>11.60000038147</ele>
        <time>2013-12-29T07:19:37.000Z</time>
      </trkpt>
      <trkpt lat="43.54837" lon="7.00974">
        <ele>11.60000038147</ele>
        <time>2013-12-29T07:19:40.000Z</time>
      </trkpt>
      <trkpt lat="43.54847" lon="7.00934">
        <ele>11.39999961853</ele>
        <time>2013-12-29T07:19:46.000Z</time>
      </trkpt>
      <trkpt lat="43.54857" lon="7.00886">
        <ele>11.39999961853</ele>
        <time>2013-12-29T07:19:53.000Z</time>
      </trkpt>
      <trkpt lat="43.5487" lon="7.00826">
        <ele>11.39999961853</ele>
        <time>2013-12-29T07:20:02.000Z</time>
      </trkpt>
      <trkpt lat="43.54881" lon="7.00773">
        <ele>10</ele>
        <time>2013-12-29T07:20:10.000Z</time>
      </trkpt>
      <trkpt lat="43.54886" lon="7.00723">
        <ele>8.3999996185303</ele>
        <time>2013-12-29T07:20:17.000Z</time>
      </trkpt>
      <trkpt lat="43.54889" lon="7.00645">
        <ele>7.5999999046326</ele>
        <time>2013-12-29T07:20:27.000Z</time>
      </trkpt>
      <trkpt lat="43.54889" lon="7.00637">
        <ele>7.8000001907349</ele>
        <time>2013-12-29T07:20:28.000Z</time>
      </trkpt>
      <trkpt lat="43.54893" lon="7.00576">
        <ele>10</ele>
        <time>2013-12-29T07:20:35.000Z</time>
      </trkpt>
      <trkpt lat="43.54902" lon="7.00519">
        <ele>8.1999998092651</ele>
        <time>2013-12-29T07:20:42.000Z</time>
      </trkpt>
      <trkpt lat="43.54904" lon="7.00512">
        <ele>8.1999998092651</ele>
        <time>2013-12-29T07:20:43.000Z</time>
      </trkpt>
      <trkpt lat="43.54906" lon="7.00482">
        <ele>6.8000001907349</ele>
        <time>2013-12-29T07:20:47.000Z</time>
      </trkpt>
      <trkpt lat="43.54907" lon="7.0046">
        <ele>5.5999999046326</ele>
        <time>2013-12-29T07:20:50.000Z</time>
      </trkpt>
      <trkpt lat="43.54908" lon="7.00445">
        <ele>4.5999999046326</ele>
        <time>2013-12-29T07:20:52.000Z</time>
      </trkpt>
      <trkpt lat="43.54909" lon="7.00439">
        <ele>4.4000000953674</ele>
        <time>2013-12-29T07:20:53.000Z</time>
      </trkpt>
      <trkpt lat="43.54909" lon="7.00431">
        <ele>3.7999999523163</ele>
        <time>2013-12-29T07:20:54.000Z</time>
      </trkpt>
      <trkpt lat="43.54912" lon="7.00393">
        <ele>3.2000000476837</ele>
        <time>2013-12-29T07:20:59.000Z</time>
      </trkpt>
      <trkpt lat="43.5491" lon="7.00345">
        <ele>3.5999999046326</ele>
        <time>2013-12-29T07:21:05.000Z</time>
      </trkpt>
      <trkpt lat="43.54912" lon="7.00283">
        <ele>3.5999999046326</ele>
        <time>2013-12-29T07:21:14.000Z</time>
      </trkpt>
      <trkpt lat="43.54918" lon="7.00202">
        <ele>4</ele>
        <time>2013-12-29T07:21:25.000Z</time>
      </trkpt>
      <trkpt lat="43.54923" lon="7.00147">
        <ele>4.8000001907349</ele>
        <time>2013-12-29T07:21:32.000Z</time>
      </trkpt>
      <trkpt lat="43.54922" lon="7.00074">
        <ele>6.8000001907349</ele>
        <time>2013-12-29T07:21:41.000Z</time>
      </trkpt>
      <trkpt lat="43.54926" lon="6.99996">
        <ele>11.199999809265</ele>
        <time>2013-12-29T07:21:51.000Z</time>
      </trkpt>
      <trkpt lat="43.54926" lon="6.99988">
        <ele>11.199999809265</ele>
        <time>2013-12-29T07:21:52.000Z</time>
      </trkpt>
      <trkpt lat="43.54928" lon="6.99924">
        <ele>8.3999996185303</ele>
        <time>2013-12-29T07:22:00.000Z</time>
      </trkpt>
      <trkpt lat="43.54928" lon="6.99848">
        <ele>6.1999998092651</ele>
        <time>2013-12-29T07:22:09.000Z</time>
      </trkpt>
      <trkpt lat="43.54927" lon="6.99831">
        <ele>5.8000001907349</ele>
        <time>2013-12-29T07:22:11.000Z</time>
      </trkpt>
      <trkpt lat="43.54927" lon="6.99758">
        <ele>6</ele>
        <time>2013-12-29T07:22:20.000Z</time>
      </trkpt>
      <trkpt lat="43.5493" lon="6.9968">
        <ele>7</ele>
        <time>2013-12-29T07:22:30.000Z</time>
      </trkpt>
      <trkpt lat="43.5493" lon="6.99672">
        <ele>7</ele>
        <time>2013-12-29T07:22:31.000Z</time>
      </trkpt>
      <trkpt lat="43.54932" lon="6.99593">
        <ele>5.5999999046326</ele>
        <time>2013-12-29T07:22:41.000Z</time>
      </trkpt>
      <trkpt lat="43.5493" lon="6.99577">
        <ele>5.4000000953674</ele>
        <time>2013-12-29T07:22:43.000Z</time>
      </trkpt>
      <trkpt lat="43.5493" lon="6.99528">
        <ele>5.8000001907349</ele>
        <time>2013-12-29T07:22:49.000Z</time>
      </trkpt>
      <trkpt lat="43.54929" lon="6.99471">
        <ele>6.8000001907349</ele>
        <time>2013-12-29T07:22:56.000Z</time>
      </trkpt>
      <trkpt lat="43.54925" lon="6.99398">
        <ele>8</ele>
        <time>2013-12-29T07:23:05.000Z</time>
      </trkpt>
      <trkpt lat="43.54922" lon="6.99337">
        <ele>5.8000001907349</ele>
        <time>2013-12-29T07:23:13.000Z</time>
      </trkpt>
      <trkpt lat="43.54918" lon="6.99262">
        <ele>8.6000003814697</ele>
        <time>2013-12-29T07:23:23.000Z</time>
      </trkpt>
      <trkpt lat="43.54915" lon="6.99199">
        <ele>7.4000000953674</ele>
        <time>2013-12-29T07:23:31.000Z</time>
      </trkpt>
      <trkpt lat="43.54912" lon="6.99144">
        <ele>5.8000001907349</ele>
        <time>2013-12-29T07:23:38.000Z</time>
      </trkpt>
      <trkpt lat="43.54908" lon="6.99082">
        <ele>4.1999998092651</ele>
        <time>2013-12-29T07:23:46.000Z</time>
      </trkpt>
      <trkpt lat="43.54904" lon="6.99012">
        <ele>2.7999999523163</ele>
        <time>2013-12-29T07:23:55.000Z</time>
      </trkpt>
      <trkpt lat="43.54899" lon="6.98948">
        <ele>3.2000000476837</ele>
        <time>2013-12-29T07:24:03.000Z</time>
      </trkpt>
      <trkpt lat="43.54893" lon="6.98867">
        <ele>4.1999998092651</ele>
        <time>2013-12-29T07:24:13.000Z</time>
      </trkpt>
      <trkpt lat="43.54885" lon="6.98804">
        <ele>5</ele>
        <time>2013-12-29T07:24:21.000Z</time>
      </trkpt>
      <trkpt lat="43.54875" lon="6.98733">
        <ele>6.1999998092651</ele>
        <time>2013-12-29T07:24:30.000Z</time>
      </trkpt>
      <trkpt lat="43.54864" lon="6.98681">
        <ele>4.4000000953674</ele>
        <time>2013-12-29T07:24:37.000Z</time>
      </trkpt>
      <trkpt lat="43.54852" lon="6.98618">
        <ele>6</ele>
        <time>2013-12-29T07:24:45.000Z</time>
      </trkpt>
      <trkpt lat="43.54837" lon="6.98539">
        <ele>9.3999996185303</ele>
        <time>2013-12-29T07:24:55.000Z</time>
      </trkpt>
      <trkpt lat="43.54836" lon="6.98531">
        <ele>9.6000003814697</ele>
        <time>2013-12-29T07:24:56.000Z</time>
      </trkpt>
      <trkpt lat="43.54823" lon="6.98464">
        <ele>9</ele>
        <time>2013-12-29T07:25:04.000Z</time>
      </trkpt>
      <trkpt lat="43.54812" lon="6.984">
        <ele>7.1999998092651</ele>
        <time>2013-12-29T07:25:12.000Z</time>
      </trkpt>
      <trkpt lat="43.54798" lon="6.98328">
        <ele>6.1999998092651</ele>
        <time>2013-12-29T07:25:21.000Z</time>
      </trkpt>
      <trkpt lat="43.54787" lon="6.98255">
        <ele>7.5999999046326</ele>
        <time>2013-12-29T07:25:30.000Z</time>
      </trkpt>
      <trkpt lat="43.54786" lon="6.98246">
        <ele>7.5999999046326</ele>
        <time>2013-12-29T07:25:31.000Z</time>
      </trkpt>
      <trkpt lat="43.54775" lon="6.98166">
        <ele>7</ele>
        <time>2013-12-29T07:25:41.000Z</time>
      </trkpt>
      <trkpt lat="43.54774" lon="6.98157">
        <ele>6.8000001907349</ele>
        <time>2013-12-29T07:25:42.000Z</time>
      </trkpt>
      <trkpt lat="43.54763" lon="6.98081">
        <ele>5.5999999046326</ele>
        <time>2013-12-29T07:25:51.000Z</time>
      </trkpt>
      <trkpt lat="43.54753" lon="6.98015">
        <ele>5.1999998092651</ele>
        <time>2013-12-29T07:25:59.000Z</time>
      </trkpt>
      <trkpt lat="43.54743" lon="6.97938">
        <ele>5.4000000953674</ele>
        <time>2013-12-29T07:26:09.000Z</time>
      </trkpt>
      <trkpt lat="43.54742" lon="6.9793">
        <ele>5.4000000953674</ele>
        <time>2013-12-29T07:26:10.000Z</time>
      </trkpt>
      <trkpt lat="43.54735" lon="6.97867">
        <ele>4.5999999046326</ele>
        <time>2013-12-29T07:26:18.000Z</time>
      </trkpt>
      <trkpt lat="43.54723" lon="6.97799">
        <ele>3.4000000953674</ele>
        <time>2013-12-29T07:26:26.000Z</time>
      </trkpt>
      <trkpt lat="43.54714" lon="6.97747">
        <ele>2.5999999046326</ele>
        <time>2013-12-29T07:26:33.000Z</time>
      </trkpt>
      <trkpt lat="43.54704" lon="6.97679">
        <ele>1</ele>
        <time>2013-12-29T07:26:42.000Z</time>
      </trkpt>
      <trkpt lat="43.5469" lon="6.97617">
        <ele>0.20000000298023</ele>
        <time>2013-12-29T07:26:50.000Z</time>
      </trkpt>
      <trkpt lat="43.5468" lon="6.97565">
        <ele>-0.20000000298023</ele>
        <time>2013-12-29T07:26:57.000Z</time>
      </trkpt>
      <trkpt lat="43.54667" lon="6.97513">
        <ele>-0.20000000298023</ele>
        <time>2013-12-29T07:27:04.000Z</time>
      </trkpt>
      <trkpt lat="43.54647" lon="6.97442">
        <ele>0.80000001192093</ele>
        <time>2013-12-29T07:27:13.000Z</time>
      </trkpt>
      <trkpt lat="43.54632" lon="6.9739">
        <ele>0.20000000298023</ele>
        <time>2013-12-29T07:27:20.000Z</time>
      </trkpt>
      <trkpt lat="43.54618" lon="6.97345">
        <ele>-0.40000000596046</ele>
        <time>2013-12-29T07:27:26.000Z</time>
      </trkpt>
      <trkpt lat="43.54609" lon="6.97301">
        <ele>-0.60000002384186</ele>
        <time>2013-12-29T07:27:32.000Z</time>
      </trkpt>
      <trkpt lat="43.54588" lon="6.97226">
        <ele>-0.20000000298023</ele>
        <time>2013-12-29T07:27:42.000Z</time>
      </trkpt>
      <trkpt lat="43.54571" lon="6.97165">
        <ele>0.40000000596046</ele>
        <time>2013-12-29T07:27:50.000Z</time>
      </trkpt>
      <trkpt lat="43.54556" lon="6.9711">
        <ele>0.60000002384186</ele>
        <time>2013-12-29T07:27:57.000Z</time>
      </trkpt>
      <trkpt lat="43.54535" lon="6.9704">
        <ele>0.60000002384186</ele>
        <time>2013-12-29T07:28:06.000Z</time>
      </trkpt>
      <trkpt lat="43.54518" lon="6.9699">
        <ele>0.60000002384186</ele>
        <time>2013-12-29T07:28:13.000Z</time>
      </trkpt>
      <trkpt lat="43.54501" lon="6.9694">
        <ele>1.2000000476837</ele>
        <time>2013-12-29T07:28:20.000Z</time>
      </trkpt>
      <trkpt lat="43.54475" lon="6.96873">
        <ele>1.7999999523163</ele>
        <time>2013-12-29T07:28:29.000Z</time>
      </trkpt>
      <trkpt lat="43.54454" lon="6.96831">
        <ele>2.4000000953674</ele>
        <time>2013-12-29T07:28:35.000Z</time>
      </trkpt>
      <trkpt lat="43.54426" lon="6.96759">
        <ele>3.7999999523163</ele>
        <time>2013-12-29T07:28:45.000Z</time>
      </trkpt>
      <trkpt lat="43.544" lon="6.96686">
        <ele>2.7999999523163</ele>
        <time>2013-12-29T07:28:55.000Z</time>
      </trkpt>
      <trkpt lat="43.54395" lon="6.96671">
        <ele>2.4000000953674</ele>
        <time>2013-12-29T07:28:57.000Z</time>
      </trkpt>
      <trkpt lat="43.54378" lon="6.96597">
        <ele>2.4000000953674</ele>
        <time>2013-12-29T07:29:07.000Z</time>
      </trkpt>
      <trkpt lat="43.54355" lon="6.96533">
        <ele>5.4000000953674</ele>
        <time>2013-12-29T07:29:16.000Z</time>
      </trkpt>
      <trkpt lat="43.54329" lon="6.9647">
        <ele>8.6000003814697</ele>
        <time>2013-12-29T07:29:25.000Z</time>
      </trkpt>
      <trkpt lat="43.54302" lon="6.96409">
        <ele>6.8000001907349</ele>
        <time>2013-12-29T07:29:34.000Z</time>
      </trkpt>
      <trkpt lat="43.54274" lon="6.9635">
        <ele>7.1999998092651</ele>
        <time>2013-12-29T07:29:43.000Z</time>
      </trkpt>
      <trkpt lat="43.54247" lon="6.96286">
        <ele>9.3999996185303</ele>
        <time>2013-12-29T07:29:52.000Z</time>
      </trkpt>
      <trkpt lat="43.54218" lon="6.96224">
        <ele>8.3999996185303</ele>
        <time>2013-12-29T07:30:01.000Z</time>
      </trkpt>
      <trkpt lat="43.54211" lon="6.9621">
        <ele>8.1999998092651</ele>
        <time>2013-12-29T07:30:03.000Z</time>
      </trkpt>
      <trkpt lat="43.54181" lon="6.9614">
        <ele>7</ele>
        <time>2013-12-29T07:30:13.000Z</time>
      </trkpt>
      <trkpt lat="43.54176" lon="6.96116">
        <ele>6.1999998092651</ele>
        <time>2013-12-29T07:30:16.000Z</time>
      </trkpt>
      <trkpt lat="43.54173" lon="6.9611">
        <ele>5.8000001907349</ele>
        <time>2013-12-29T07:30:17.000Z</time>
      </trkpt>
      <trkpt lat="43.54159" lon="6.96097">
        <ele>5.4000000953674</ele>
        <time>2013-12-29T07:30:20.000Z</time>
      </trkpt>
      <trkpt lat="43.54148" lon="6.9608">
        <ele>5.4000000953674</ele>
        <time>2013-12-29T07:30:23.000Z</time>
      </trkpt>
      <trkpt lat="43.54145" lon="6.96074">
        <ele>5.5999999046326</ele>
        <time>2013-12-29T07:30:24.000Z</time>
      </trkpt>
      <trkpt lat="43.54117" lon="6.96032">
        <ele>7.5999999046326</ele>
        <time>2013-12-29T07:30:31.000Z</time>
      </trkpt>
      <trkpt lat="43.54086" lon="6.95984">
        <ele>9.6000003814697</ele>
        <time>2013-12-29T07:30:39.000Z</time>
      </trkpt>
      <trkpt lat="43.54048" lon="6.95921">
        <ele>11.60000038147</ele>
        <time>2013-12-29T07:30:49.000Z</time>
      </trkpt>
      <trkpt lat="43.5404" lon="6.95909">
        <ele>11</ele>
        <time>2013-12-29T07:30:51.000Z</time>
      </trkpt>
      <trkpt lat="43.54006" lon="6.95853">
        <ele>7.8000001907349</ele>
        <time>2013-12-29T07:31:00.000Z</time>
      </trkpt>
      <trkpt lat="43.5397" lon="6.95796">
        <ele>6.8000001907349</ele>
        <time>2013-12-29T07:31:09.000Z</time>
      </trkpt>
      <trkpt lat="43.53966" lon="6.9579">
        <ele>6.8000001907349</ele>
        <time>2013-12-29T07:31:10.000Z</time>
      </trkpt>
      <trkpt lat="43.53928" lon="6.95727">
        <ele>8.8000001907349</ele>
        <time>2013-12-29T07:31:20.000Z</time>
      </trkpt>
      <trkpt lat="43.5392" lon="6.95715">
        <ele>9</ele>
        <time>2013-12-29T07:31:22.000Z</time>
      </trkpt>
      <trkpt lat="43.53888" lon="6.95667">
        <ele>10</ele>
        <time>2013-12-29T07:31:30.000Z</time>
      </trkpt>
      <trkpt lat="43.53851" lon="6.9561">
        <ele>12.39999961853</ele>
        <time>2013-12-29T07:31:39.000Z</time>
      </trkpt>
      <trkpt lat="43.5381" lon="6.95555">
        <ele>13</ele>
        <time>2013-12-29T07:31:48.000Z</time>
      </trkpt>
      <trkpt lat="43.53774" lon="6.95506">
        <ele>10.199999809265</ele>
        <time>2013-12-29T07:31:56.000Z</time>
      </trkpt>
      <trkpt lat="43.53733" lon="6.95454">
        <ele>7.1999998092651</ele>
        <time>2013-12-29T07:32:05.000Z</time>
      </trkpt>
      <trkpt lat="43.53694" lon="6.95401">
        <ele>4.5999999046326</ele>
        <time>2013-12-29T07:32:14.000Z</time>
      </trkpt>
      <trkpt lat="43.5368" lon="6.95385">
        <ele>4</ele>
        <time>2013-12-29T07:32:17.000Z</time>
      </trkpt>
      <trkpt lat="43.53634" lon="6.95337">
        <ele>2.5999999046326</ele>
        <time>2013-12-29T07:32:26.000Z</time>
      </trkpt>
      <trkpt lat="43.53625" lon="6.95325">
        <ele>2.5999999046326</ele>
        <time>2013-12-29T07:32:28.000Z</time>
      </trkpt>
      <trkpt lat="43.53585" lon="6.95272">
        <ele>3.4000000953674</ele>
        <time>2013-12-29T07:32:37.000Z</time>
      </trkpt>
      <trkpt lat="43.53541" lon="6.9522">
        <ele>4.4000000953674</ele>
        <time>2013-12-29T07:32:46.000Z</time>
      </trkpt>
      <trkpt lat="43.53535" lon="6.95214">
        <ele>4.4000000953674</ele>
        <time>2013-12-29T07:32:47.000Z</time>
      </trkpt>
      <trkpt lat="43.53515" lon="6.95191">
        <ele>4</ele>
        <time>2013-12-29T07:32:51.000Z</time>
      </trkpt>
      <trkpt lat="43.53501" lon="6.95173">
        <ele>3.2000000476837</ele>
        <time>2013-12-29T07:32:54.000Z</time>
      </trkpt>
      <trkpt lat="43.53456" lon="6.95125">
        <ele>2.4000000953674</ele>
        <time>2013-12-29T07:33:03.000Z</time>
      </trkpt>
      <trkpt lat="43.53446" lon="6.95115">
        <ele>2.4000000953674</ele>
        <time>2013-12-29T07:33:05.000Z</time>
      </trkpt>
      <trkpt lat="43.534" lon="6.95066">
        <ele>3.5999999046326</ele>
        <time>2013-12-29T07:33:15.000Z</time>
      </trkpt>
      <trkpt lat="43.53395" lon="6.95061">
        <ele>3.5999999046326</ele>
        <time>2013-12-29T07:33:16.000Z</time>
      </trkpt>
      <trkpt lat="43.5335" lon="6.95016">
        <ele>3.4000000953674</ele>
        <time>2013-12-29T07:33:25.000Z</time>
      </trkpt>
      <trkpt lat="43.53335" lon="6.95002">
        <ele>3</ele>
        <time>2013-12-29T07:33:28.000Z</time>
      </trkpt>
      <trkpt lat="43.5329" lon="6.9496">
        <ele>4.1999998092651</ele>
        <time>2013-12-29T07:33:37.000Z</time>
      </trkpt>
      <trkpt lat="43.53279" lon="6.94952">
        <ele>4.4000000953674</ele>
        <time>2013-12-29T07:33:39.000Z</time>
      </trkpt>
      <trkpt lat="43.53238" lon="6.94915">
        <ele>4.8000001907349</ele>
        <time>2013-12-29T07:33:47.000Z</time>
      </trkpt>
      <trkpt lat="43.53213" lon="6.94893">
        <ele>4.8000001907349</ele>
        <time>2013-12-29T07:33:52.000Z</time>
      </trkpt>
      <trkpt lat="43.53204" lon="6.94882">
        <ele>5</ele>
        <time>2013-12-29T07:33:54.000Z</time>
      </trkpt>
      <trkpt lat="43.53192" lon="6.94865">
        <ele>5</ele>
        <time>2013-12-29T07:33:57.000Z</time>
      </trkpt>
      <trkpt lat="43.53182" lon="6.94845">
        <ele>5.1999998092651</ele>
        <time>2013-12-29T07:34:00.000Z</time>
      </trkpt>
      <trkpt lat="43.53169" lon="6.94821">
        <ele>4.8000001907349</ele>
        <time>2013-12-29T07:34:04.000Z</time>
      </trkpt>
      <trkpt lat="43.5316" lon="6.94811">
        <ele>4.4000000953674</ele>
        <time>2013-12-29T07:34:06.000Z</time>
      </trkpt>
      <trkpt lat="43.53144" lon="6.94799">
        <ele>4</ele>
        <time>2013-12-29T07:34:09.000Z</time>
      </trkpt>
      <trkpt lat="43.53134" lon="6.94793">
        <ele>3.7999999523163</ele>
        <time>2013-12-29T07:34:11.000Z</time>
      </trkpt>
      <trkpt lat="43.53077" lon="6.94768">
        <ele>3.5999999046326</ele>
        <time>2013-12-29T07:34:21.000Z</time>
      </trkpt>
      <trkpt lat="43.5302" lon="6.94743">
        <ele>5.8000001907349</ele>
        <time>2013-12-29T07:34:30.000Z</time>
      </trkpt>
      <trkpt lat="43.53014" lon="6.94741">
        <ele>6.1999998092651</ele>
        <time>2013-12-29T07:34:31.000Z</time>
      </trkpt>
      <trkpt lat="43.52967" lon="6.94724">
        <ele>6.5999999046326</ele>
        <time>2013-12-29T07:34:38.000Z</time>
      </trkpt>
      <trkpt lat="43.52931" lon="6.94707">
        <ele>6.4000000953674</ele>
        <time>2013-12-29T07:34:44.000Z</time>
      </trkpt>
      <trkpt lat="43.52888" lon="6.94679">
        <ele>6.1999998092651</ele>
        <time>2013-12-29T07:34:52.000Z</time>
      </trkpt>
      <trkpt lat="43.52843" lon="6.94654">
        <ele>5.8000001907349</ele>
        <time>2013-12-29T07:35:00.000Z</time>
      </trkpt>
      <trkpt lat="43.52812" lon="6.94633">
        <ele>4.5999999046326</ele>
        <time>2013-12-29T07:35:06.000Z</time>
      </trkpt>
      <trkpt lat="43.52764" lon="6.94599">
        <ele>3.2000000476837</ele>
        <time>2013-12-29T07:35:15.000Z</time>
      </trkpt>
      <trkpt lat="43.52726" lon="6.94568">
        <ele>3.2000000476837</ele>
        <time>2013-12-29T07:35:22.000Z</time>
      </trkpt>
      <trkpt lat="43.52678" lon="6.94529">
        <ele>3.5999999046326</ele>
        <time>2013-12-29T07:35:31.000Z</time>
      </trkpt>
      <trkpt lat="43.5264" lon="6.94496">
        <ele>3.7999999523163</ele>
        <time>2013-12-29T07:35:38.000Z</time>
      </trkpt>
      <trkpt lat="43.52591" lon="6.94451">
        <ele>4.8000001907349</ele>
        <time>2013-12-29T07:35:47.000Z</time>
      </trkpt>
      <trkpt lat="43.52559" lon="6.94423">
        <ele>5.4000000953674</ele>
        <time>2013-12-29T07:35:53.000Z</time>
      </trkpt>
      <trkpt lat="43.52548" lon="6.94415">
        <ele>5.5999999046326</ele>
        <time>2013-12-29T07:35:55.000Z</time>
      </trkpt>
      <trkpt lat="43.52533" lon="6.94402">
        <ele>5.5999999046326</ele>
        <time>2013-12-29T07:35:58.000Z</time>
      </trkpt>
      <trkpt lat="43.52524" lon="6.94391">
        <ele>5.5999999046326</ele>
        <time>2013-12-29T07:36:00.000Z</time>
      </trkpt>
      <trkpt lat="43.52488" lon="6.94358">
        <ele>6</ele>
        <time>2013-12-29T07:36:07.000Z</time>
      </trkpt>
      <trkpt lat="43.52465" lon="6.94334">
        <ele>6.1999998092651</ele>
        <time>2013-12-29T07:36:12.000Z</time>
      </trkpt>
      <trkpt lat="43.52441" lon="6.943">
        <ele>6.5999999046326</ele>
        <time>2013-12-29T07:36:18.000Z</time>
      </trkpt>
      <trkpt lat="43.52438" lon="6.94294">
        <ele>6.8000001907349</ele>
        <time>2013-12-29T07:36:19.000Z</time>
      </trkpt>
      <trkpt lat="43.52416" lon="6.94251">
        <ele>9</ele>
        <time>2013-12-29T07:36:27.000Z</time>
      </trkpt>
      <trkpt lat="43.52406" lon="6.94234">
        <ele>9.6000003814697</ele>
        <time>2013-12-29T07:36:31.000Z</time>
      </trkpt>
      <trkpt lat="43.524" lon="6.94221">
        <ele>10.199999809265</ele>
        <time>2013-12-29T07:36:34.000Z</time>
      </trkpt>
      <trkpt lat="43.52383" lon="6.94189">
        <ele>11.39999961853</ele>
        <time>2013-12-29T07:36:41.000Z</time>
      </trkpt>
      <trkpt lat="43.52374" lon="6.94177">
        <ele>12</ele>
        <time>2013-12-29T07:36:44.000Z</time>
      </trkpt>
      <trkpt lat="43.52366" lon="6.94167">
        <ele>12.60000038147</ele>
        <time>2013-12-29T07:36:47.000Z</time>
      </trkpt>
      <trkpt lat="43.52353" lon="6.94156">
        <ele>13.39999961853</ele>
        <time>2013-12-29T07:36:52.000Z</time>
      </trkpt>
      <trkpt lat="43.52327" lon="6.94149">
        <ele>13.60000038147</ele>
        <time>2013-12-29T07:37:00.000Z</time>
      </trkpt>
      <trkpt lat="43.52309" lon="6.94136">
        <ele>13.800000190735</ele>
        <time>2013-12-29T07:37:05.000Z</time>
      </trkpt>
      <trkpt lat="43.52302" lon="6.94116">
        <ele>14.800000190735</ele>
        <time>2013-12-29T07:37:09.000Z</time>
      </trkpt>
      <trkpt lat="43.52297" lon="6.94098">
        <ele>16</ele>
        <time>2013-12-29T07:37:12.000Z</time>
      </trkpt>
      <trkpt lat="43.5229" lon="6.94082">
        <ele>17.200000762939</ele>
        <time>2013-12-29T07:37:15.000Z</time>
      </trkpt>
      <trkpt lat="43.52267" lon="6.94064">
        <ele>19.200000762939</ele>
        <time>2013-12-29T07:37:20.000Z</time>
      </trkpt>
      <trkpt lat="43.52224" lon="6.94039">
        <ele>19.799999237061</ele>
        <time>2013-12-29T07:37:29.000Z</time>
      </trkpt>
      <trkpt lat="43.52191" lon="6.94016">
        <ele>20</ele>
        <time>2013-12-29T07:37:37.000Z</time>
      </trkpt>
      <trkpt lat="43.52171" lon="6.93994">
        <ele>21</ele>
        <time>2013-12-29T07:37:44.000Z</time>
      </trkpt>
      <trkpt lat="43.52169" lon="6.9399">
        <ele>21.39999961853</ele>
        <time>2013-12-29T07:37:45.000Z</time>
      </trkpt>
      <trkpt lat="43.52154" lon="6.93971">
        <ele>26</ele>
        <time>2013-12-29T07:37:50.000Z</time>
      </trkpt>
      <trkpt lat="43.52139" lon="6.93974">
        <ele>28.799999237061</ele>
        <time>2013-12-29T07:37:54.000Z</time>
      </trkpt>
      <trkpt lat="43.52135" lon="6.93978">
        <ele>29</ele>
        <time>2013-12-29T07:37:55.000Z</time>
      </trkpt>
      <trkpt lat="43.52129" lon="6.93992">
        <ele>28.60000038147</ele>
        <time>2013-12-29T07:37:58.000Z</time>
      </trkpt>
      <trkpt lat="43.52119" lon="6.94013">
        <ele>27.200000762939</ele>
        <time>2013-12-29T07:38:03.000Z</time>
      </trkpt>
      <trkpt lat="43.52102" lon="6.94031">
        <ele>26.39999961853</ele>
        <time>2013-12-29T07:38:08.000Z</time>
      </trkpt>
      <trkpt lat="43.52084" lon="6.94045">
        <ele>25.39999961853</ele>
        <time>2013-12-29T07:38:13.000Z</time>
      </trkpt>
      <trkpt lat="43.52077" lon="6.94049">
        <ele>24.799999237061</ele>
        <time>2013-12-29T07:38:15.000Z</time>
      </trkpt>
      <trkpt lat="43.52061" lon="6.94053">
        <ele>24.200000762939</ele>
        <time>2013-12-29T07:38:19.000Z</time>
      </trkpt>
      <trkpt lat="43.52053" lon="6.94053">
        <ele>24.39999961853</ele>
        <time>2013-12-29T07:38:21.000Z</time>
      </trkpt>
      <trkpt lat="43.52028" lon="6.94046">
        <ele>26.799999237061</ele>
        <time>2013-12-29T07:38:28.000Z</time>
      </trkpt>
      <trkpt lat="43.52001" lon="6.94037">
        <ele>29.60000038147</ele>
        <time>2013-12-29T07:38:35.000Z</time>
      </trkpt>
      <trkpt lat="43.51964" lon="6.9402">
        <ele>31.39999961853</ele>
        <time>2013-12-29T07:38:45.000Z</time>
      </trkpt>
      <trkpt lat="43.51929" lon="6.94">
        <ele>34.599998474121</ele>
        <time>2013-12-29T07:38:54.000Z</time>
      </trkpt>
      <trkpt lat="43.519" lon="6.93983">
        <ele>33.599998474121</ele>
        <time>2013-12-29T07:39:00.000Z</time>
      </trkpt>
      <trkpt lat="43.51869" lon="6.93963">
        <ele>29.799999237061</ele>
        <time>2013-12-29T07:39:05.000Z</time>
      </trkpt>
      <trkpt lat="43.51852" lon="6.93938">
        <ele>30.60000038147</ele>
        <time>2013-12-29T07:39:08.000Z</time>
      </trkpt>
      <trkpt lat="43.51847" lon="6.93928">
        <ele>31.60000038147</ele>
        <time>2013-12-29T07:39:09.000Z</time>
      </trkpt>
      <trkpt lat="43.51836" lon="6.93907">
        <ele>32</ele>
        <time>2013-12-29T07:39:11.000Z</time>
      </trkpt>
      <trkpt lat="43.51823" lon="6.93887">
        <ele>30.200000762939</ele>
        <time>2013-12-29T07:39:13.000Z</time>
      </trkpt>
      <trkpt lat="43.51805" lon="6.93855">
        <ele>27</ele>
        <time>2013-12-29T07:39:16.000Z</time>
      </trkpt>
      <trkpt lat="43.51802" lon="6.93842">
        <ele>26.39999961853</ele>
        <time>2013-12-29T07:39:17.000Z</time>
      </trkpt>
      <trkpt lat="43.51794" lon="6.93786">
        <ele>26.39999961853</ele>
        <time>2013-12-29T07:39:21.000Z</time>
      </trkpt>
      <trkpt lat="43.51789" lon="6.93729">
        <ele>26.200000762939</ele>
        <time>2013-12-29T07:39:25.000Z</time>
      </trkpt>
      <trkpt lat="43.51785" lon="6.93716">
        <ele>24.60000038147</ele>
        <time>2013-12-29T07:39:26.000Z</time>
      </trkpt>
      <trkpt lat="43.5178" lon="6.93672">
        <ele>23.39999961853</ele>
        <time>2013-12-29T07:39:29.000Z</time>
      </trkpt>
      <trkpt lat="43.51781" lon="6.93643">
        <ele>24.39999961853</ele>
        <time>2013-12-29T07:39:31.000Z</time>
      </trkpt>
      <trkpt lat="43.51784" lon="6.93615">
        <ele>25.60000038147</ele>
        <time>2013-12-29T07:39:33.000Z</time>
      </trkpt>
      <trkpt lat="43.51786" lon="6.93589">
        <ele>26.39999961853</ele>
        <time>2013-12-29T07:39:35.000Z</time>
      </trkpt>
      <trkpt lat="43.51783" lon="6.93565">
        <ele>26.200000762939</ele>
        <time>2013-12-29T07:39:37.000Z</time>
      </trkpt>
      <trkpt lat="43.5177" lon="6.93538">
        <ele>22.200000762939</ele>
        <time>2013-12-29T07:39:40.000Z</time>
      </trkpt>
      <trkpt lat="43.51749" lon="6.93528">
        <ele>15.60000038147</ele>
        <time>2013-12-29T07:39:43.000Z</time>
      </trkpt>
      <trkpt lat="43.5173" lon="6.93533">
        <ele>22.60000038147</ele>
        <time>2013-12-29T07:39:46.000Z</time>
      </trkpt>
      <trkpt lat="43.51713" lon="6.93555">
        <ele>26.60000038147</ele>
        <time>2013-12-29T07:39:50.000Z</time>
      </trkpt>
      <trkpt lat="43.51709" lon="6.93561">
        <ele>27</ele>
        <time>2013-12-29T07:39:51.000Z</time>
      </trkpt>
      <trkpt lat="43.51698" lon="6.93586">
        <ele>27.200000762939</ele>
        <time>2013-12-29T07:39:55.000Z</time>
      </trkpt>
      <trkpt lat="43.51691" lon="6.93601">
        <ele>27.39999961853</ele>
        <time>2013-12-29T07:39:58.000Z</time>
      </trkpt>
      <trkpt lat="43.51685" lon="6.93614">
        <ele>27.60000038147</ele>
        <time>2013-12-29T07:40:01.000Z</time>
      </trkpt>
      <trkpt lat="43.51668" lon="6.93653">
        <ele>25.799999237061</ele>
        <time>2013-12-29T07:40:10.000Z</time>
      </trkpt>
      <trkpt lat="43.51654" lon="6.93688">
        <ele>24.60000038147</ele>
        <time>2013-12-29T07:40:18.000Z</time>
      </trkpt>
      <trkpt lat="43.51638" lon="6.93728">
        <ele>21.60000038147</ele>
        <time>2013-12-29T07:40:27.000Z</time>
      </trkpt>
      <trkpt lat="43.51619" lon="6.93766">
        <ele>17.799999237061</ele>
        <time>2013-12-29T07:40:35.000Z</time>
      </trkpt>
      <trkpt lat="43.51612" lon="6.93776">
        <ele>17</ele>
        <time>2013-12-29T07:40:37.000Z</time>
      </trkpt>
      <trkpt lat="43.51603" lon="6.93782">
        <ele>17.200000762939</ele>
        <time>2013-12-29T07:40:39.000Z</time>
      </trkpt>
      <trkpt lat="43.51586" lon="6.93779">
        <ele>19.60000038147</ele>
        <time>2013-12-29T07:40:42.000Z</time>
      </trkpt>
      <trkpt lat="43.51574" lon="6.93772">
        <ele>20</ele>
        <time>2013-12-29T07:40:44.000Z</time>
      </trkpt>
      <trkpt lat="43.51549" lon="6.93757">
        <ele>19.799999237061</ele>
        <time>2013-12-29T07:40:48.000Z</time>
      </trkpt>
      <trkpt lat="43.51513" lon="6.93726">
        <ele>21</ele>
        <time>2013-12-29T07:40:54.000Z</time>
      </trkpt>
      <trkpt lat="43.51496" lon="6.93707">
        <ele>22.200000762939</ele>
        <time>2013-12-29T07:40:57.000Z</time>
      </trkpt>
      <trkpt lat="43.51483" lon="6.93702">
        <ele>22.39999961853</ele>
        <time>2013-12-29T07:40:59.000Z</time>
      </trkpt>
      <trkpt lat="43.51469" lon="6.937">
        <ele>22</ele>
        <time>2013-12-29T07:41:01.000Z</time>
      </trkpt>
      <trkpt lat="43.51442" lon="6.93696">
        <ele>21.39999961853</ele>
        <time>2013-12-29T07:41:05.000Z</time>
      </trkpt>
      <trkpt lat="43.51392" lon="6.93694">
        <ele>22.60000038147</ele>
        <time>2013-12-29T07:41:13.000Z</time>
      </trkpt>
      <trkpt lat="43.51373" lon="6.93698">
        <ele>23</ele>
        <time>2013-12-29T07:41:16.000Z</time>
      </trkpt>
      <trkpt lat="43.51361" lon="6.93705">
        <ele>22.200000762939</ele>
        <time>2013-12-29T07:41:18.000Z</time>
      </trkpt>
      <trkpt lat="43.51348" lon="6.9371">
        <ele>21.799999237061</ele>
        <time>2013-12-29T07:41:20.000Z</time>
      </trkpt>
      <trkpt lat="43.51328" lon="6.9371">
        <ele>22.60000038147</ele>
        <time>2013-12-29T07:41:23.000Z</time>
      </trkpt>
      <trkpt lat="43.51287" lon="6.93704">
        <ele>24.39999961853</ele>
        <time>2013-12-29T07:41:29.000Z</time>
      </trkpt>
      <trkpt lat="43.5125" lon="6.937">
        <ele>25.799999237061</ele>
        <time>2013-12-29T07:41:34.000Z</time>
      </trkpt>
      <trkpt lat="43.51242" lon="6.93702">
        <ele>25.39999961853</ele>
        <time>2013-12-29T07:41:35.000Z</time>
      </trkpt>
      <trkpt lat="43.51224" lon="6.93719">
        <ele>21.799999237061</ele>
        <time>2013-12-29T07:41:38.000Z</time>
      </trkpt>
      <trkpt lat="43.51219" lon="6.93726">
        <ele>20</ele>
        <time>2013-12-29T07:41:39.000Z</time>
      </trkpt>
      <trkpt lat="43.51207" lon="6.93739">
        <ele>17.39999961853</ele>
        <time>2013-12-29T07:41:41.000Z</time>
      </trkpt>
      <trkpt lat="43.51199" lon="6.93742">
        <ele>16.799999237061</ele>
        <time>2013-12-29T07:41:42.000Z</time>
      </trkpt>
      <trkpt lat="43.51175" lon="6.93744">
        <ele>17.200000762939</ele>
        <time>2013-12-29T07:41:45.000Z</time>
      </trkpt>
      <trkpt lat="43.51133" lon="6.93739">
        <ele>16</ele>
        <time>2013-12-29T07:41:50.000Z</time>
      </trkpt>
      <trkpt lat="43.51125" lon="6.93736">
        <ele>16</ele>
        <time>2013-12-29T07:41:51.000Z</time>
      </trkpt>
      <trkpt lat="43.51094" lon="6.93718">
        <ele>16.39999961853</ele>
        <time>2013-12-29T07:41:55.000Z</time>
      </trkpt>
      <trkpt lat="43.51087" lon="6.93711">
        <ele>17</ele>
        <time>2013-12-29T07:41:56.000Z</time>
      </trkpt>
      <trkpt lat="43.51068" lon="6.93689">
        <ele>19.799999237061</ele>
        <time>2013-12-29T07:41:59.000Z</time>
      </trkpt>
      <trkpt lat="43.51061" lon="6.93684">
        <ele>20.39999961853</ele>
        <time>2013-12-29T07:42:00.000Z</time>
      </trkpt>
      <trkpt lat="43.51039" lon="6.93685">
        <ele>19.799999237061</ele>
        <time>2013-12-29T07:42:03.000Z</time>
      </trkpt>
      <trkpt lat="43.51024" lon="6.93692">
        <ele>18</ele>
        <time>2013-12-29T07:42:05.000Z</time>
      </trkpt>
      <trkpt lat="43.51001" lon="6.93704">
        <ele>14.60000038147</ele>
        <time>2013-12-29T07:42:08.000Z</time>
      </trkpt>
      <trkpt lat="43.50962" lon="6.93728">
        <ele>12.199999809265</ele>
        <time>2013-12-29T07:42:13.000Z</time>
      </trkpt>
      <trkpt lat="43.50939" lon="6.93729">
        <ele>13.800000190735</ele>
        <time>2013-12-29T07:42:16.000Z</time>
      </trkpt>
      <trkpt lat="43.5093" lon="6.93729">
        <ele>14.60000038147</ele>
        <time>2013-12-29T07:42:17.000Z</time>
      </trkpt>
      <trkpt lat="43.50922" lon="6.93731">
        <ele>14.800000190735</ele>
        <time>2013-12-29T07:42:18.000Z</time>
      </trkpt>
      <trkpt lat="43.50906" lon="6.93738">
        <ele>14</ele>
        <time>2013-12-29T07:42:20.000Z</time>
      </trkpt>
      <trkpt lat="43.5087" lon="6.93762">
        <ele>12.39999961853</ele>
        <time>2013-12-29T07:42:25.000Z</time>
      </trkpt>
      <trkpt lat="43.50826" lon="6.93794">
        <ele>13.39999961853</ele>
        <time>2013-12-29T07:42:31.000Z</time>
      </trkpt>
      <trkpt lat="43.50819" lon="6.938">
        <ele>14.60000038147</ele>
        <time>2013-12-29T07:42:32.000Z</time>
      </trkpt>
      <trkpt lat="43.50804" lon="6.93831">
        <ele>16.799999237061</ele>
        <time>2013-12-29T07:42:36.000Z</time>
      </trkpt>
      <trkpt lat="43.50801" lon="6.9385">
        <ele>16.799999237061</ele>
        <time>2013-12-29T07:42:38.000Z</time>
      </trkpt>
      <trkpt lat="43.50799" lon="6.93878">
        <ele>16.60000038147</ele>
        <time>2013-12-29T07:42:41.000Z</time>
      </trkpt>
      <trkpt lat="43.50787" lon="6.93921">
        <ele>17.799999237061</ele>
        <time>2013-12-29T07:42:46.000Z</time>
      </trkpt>
      <trkpt lat="43.50785" lon="6.9393">
        <ele>17.39999961853</ele>
        <time>2013-12-29T07:42:47.000Z</time>
      </trkpt>
      <trkpt lat="43.50781" lon="6.93988">
        <ele>12.800000190735</ele>
        <time>2013-12-29T07:42:53.000Z</time>
      </trkpt>
      <trkpt lat="43.50779" lon="6.94006">
        <ele>11.800000190735</ele>
        <time>2013-12-29T07:42:55.000Z</time>
      </trkpt>
      <trkpt lat="43.50777" lon="6.94037">
        <ele>11.39999961853</ele>
        <time>2013-12-29T07:42:58.000Z</time>
      </trkpt>
      <trkpt lat="43.50763" lon="6.9411">
        <ele>9</ele>
        <time>2013-12-29T07:43:05.000Z</time>
      </trkpt>
      <trkpt lat="43.50752" lon="6.94152">
        <ele>6</ele>
        <time>2013-12-29T07:43:09.000Z</time>
      </trkpt>
      <trkpt lat="43.50749" lon="6.94163">
        <ele>5.4000000953674</ele>
        <time>2013-12-29T07:43:10.000Z</time>
      </trkpt>
      <trkpt lat="43.50736" lon="6.94174">
        <ele>5.5999999046326</ele>
        <time>2013-12-29T07:43:12.000Z</time>
      </trkpt>
      <trkpt lat="43.50732" lon="6.94174">
        <ele>5.8000001907349</ele>
        <time>2013-12-29T07:43:13.000Z</time>
      </trkpt>
      <trkpt lat="43.50726" lon="6.94163">
        <ele>6.5999999046326</ele>
        <time>2013-12-29T07:43:15.000Z</time>
      </trkpt>
      <trkpt lat="43.5072" lon="6.94148">
        <ele>7.5999999046326</ele>
        <time>2013-12-29T07:43:17.000Z</time>
      </trkpt>
      <trkpt lat="43.50713" lon="6.94136">
        <ele>8.1999998092651</ele>
        <time>2013-12-29T07:43:19.000Z</time>
      </trkpt>
      <trkpt lat="43.50686" lon="6.94096">
        <ele>8.8000001907349</ele>
        <time>2013-12-29T07:43:25.000Z</time>
      </trkpt>
      <trkpt lat="43.50662" lon="6.94063">
        <ele>9.1999998092651</ele>
        <time>2013-12-29T07:43:31.000Z</time>
      </trkpt>
      <trkpt lat="43.50635" lon="6.94021">
        <ele>11.60000038147</ele>
        <time>2013-12-29T07:43:38.000Z</time>
      </trkpt>
      <trkpt lat="43.50629" lon="6.94008">
        <ele>11</ele>
        <time>2013-12-29T07:43:40.000Z</time>
      </trkpt>
      <trkpt lat="43.50624" lon="6.93993">
        <ele>11</ele>
        <time>2013-12-29T07:43:42.000Z</time>
      </trkpt>
      <trkpt lat="43.50611" lon="6.9398">
        <ele>11.39999961853</ele>
        <time>2013-12-29T07:43:45.000Z</time>
      </trkpt>
      <trkpt lat="43.50587" lon="6.93958">
        <ele>11.199999809265</ele>
        <time>2013-12-29T07:43:50.000Z</time>
      </trkpt>
      <trkpt lat="43.50565" lon="6.93925">
        <ele>12.800000190735</ele>
        <time>2013-12-29T07:43:56.000Z</time>
      </trkpt>
      <trkpt lat="43.5056" lon="6.9392">
        <ele>12.800000190735</ele>
        <time>2013-12-29T07:43:57.000Z</time>
      </trkpt>
      <trkpt lat="43.50543" lon="6.93907">
        <ele>15</ele>
        <time>2013-12-29T07:44:00.000Z</time>
      </trkpt>
      <trkpt lat="43.50502" lon="6.93879">
        <ele>18</ele>
        <time>2013-12-29T07:44:09.000Z</time>
      </trkpt>
      <trkpt lat="43.50465" lon="6.93857">
        <ele>23.799999237061</ele>
        <time>2013-12-29T07:44:17.000Z</time>
      </trkpt>
      <trkpt lat="43.5044" lon="6.93837">
        <ele>25.200000762939</ele>
        <time>2013-12-29T07:44:23.000Z</time>
      </trkpt>
      <trkpt lat="43.5043" lon="6.93825">
        <ele>26.200000762939</ele>
        <time>2013-12-29T07:44:26.000Z</time>
      </trkpt>
      <trkpt lat="43.50424" lon="6.93814">
        <ele>27.200000762939</ele>
        <time>2013-12-29T07:44:28.000Z</time>
      </trkpt>
      <trkpt lat="43.5041" lon="6.93788">
        <ele>29.60000038147</ele>
        <time>2013-12-29T07:44:34.000Z</time>
      </trkpt>
      <trkpt lat="43.50409" lon="6.93772">
        <ele>29.799999237061</ele>
        <time>2013-12-29T07:44:37.000Z</time>
      </trkpt>
      <trkpt lat="43.50402" lon="6.9376">
        <ele>30.799999237061</ele>
        <time>2013-12-29T07:44:40.000Z</time>
      </trkpt>
      <trkpt lat="43.50396" lon="6.93753">
        <ele>31.39999961853</ele>
        <time>2013-12-29T07:44:42.000Z</time>
      </trkpt>
      <trkpt lat="43.50384" lon="6.93743">
        <ele>33.599998474121</ele>
        <time>2013-12-29T07:44:47.000Z</time>
      </trkpt>
      <trkpt lat="43.50377" lon="6.93736">
        <ele>35</ele>
        <time>2013-12-29T07:44:52.000Z</time>
      </trkpt>
      <trkpt lat="43.50376" lon="6.93735">
        <ele>35.400001525879</ele>
        <time>2013-12-29T07:44:53.000Z</time>
      </trkpt>
      <trkpt lat="43.50374" lon="6.93734">
        <ele>35.599998474121</ele>
        <time>2013-12-29T07:44:58.000Z</time>
      </trkpt>
      <trkpt lat="43.50372" lon="6.93736">
        <ele>35.400001525879</ele>
        <time>2013-12-29T07:45:06.000Z</time>
      </trkpt>
      <trkpt lat="43.50367" lon="6.93738">
        <ele>35.599998474121</ele>
        <time>2013-12-29T07:45:31.000Z</time>
      </trkpt>
      <trkpt lat="43.50366" lon="6.9374">
        <ele>35.400001525879</ele>
        <time>2013-12-29T07:47:24.000Z</time>
      </trkpt>
      <trkpt lat="43.50364" lon="6.93737">
        <ele>35.799999237061</ele>
        <time>2013-12-29T07:47:30.000Z</time>
      </trkpt>
      <trkpt lat="43.50369" lon="6.93731">
        <ele>36.200000762939</ele>
        <time>2013-12-29T07:48:46.000Z</time>
      </trkpt>
      <trkpt lat="43.50364" lon="6.93735">
        <ele>36.200000762939</ele>
        <time>2013-12-29T07:51:08.000Z</time>
      </trkpt>
      <trkpt lat="43.50365" lon="6.93726">
        <ele>36.799999237061</ele>
        <time>2013-12-29T07:54:48.000Z</time>
      </trkpt>
      <trkpt lat="43.50363" lon="6.93728">
        <ele>36.799999237061</ele>
        <time>2013-12-29T07:55:26.000Z</time>
      </trkpt>
      <trkpt lat="43.50363" lon="6.93729">
        <ele>36.599998474121</ele>
        <time>2013-12-29T07:55:33.000Z</time>
      </trkpt>
      <trkpt lat="43.50365" lon="6.93737">
        <ele>35.799999237061</ele>
        <time>2013-12-29T08:03:42.000Z</time>
      </trkpt>
      <trkpt lat="43.50378" lon="6.93733">
        <ele>35.400001525879</ele>
        <time>2013-12-29T08:05:43.000Z</time>
      </trkpt>
      <trkpt lat="43.50369" lon="6.93734">
        <ele>35.799999237061</ele>
        <time>2013-12-29T08:16:13.000Z</time>
      </trkpt>
      <trkpt lat="43.50371" lon="6.93735">
        <ele>35.599998474121</ele>
        <time>2013-12-29T08:16:14.000Z</time>
      </trkpt>
      <trkpt lat="43.5038" lon="6.93742">
        <ele>34</ele>
        <time>2013-12-29T08:16:19.000Z</time>
      </trkpt>
      <trkpt lat="43.50382" lon="6.93743">
        <ele>33.799999237061</ele>
        <time>2013-12-29T08:16:23.000Z</time>
      </trkpt>
      <trkpt lat="43.50383" lon="6.93743">
        <ele>33.799999237061</ele>
        <time>2013-12-29T08:16:33.000Z</time>
      </trkpt>
      <trkpt lat="43.50382" lon="6.93742">
        <ele>33.799999237061</ele>
        <time>2013-12-29T08:16:34.000Z</time>
      </trkpt>
      <trkpt lat="43.50381" lon="6.93742">
        <ele>34</ele>
        <time>2013-12-29T08:16:39.000Z</time>
      </trkpt>
      <trkpt lat="43.50381" lon="6.93741">
        <ele>34.200000762939</ele>
        <time>2013-12-29T08:17:16.000Z</time>
      </trkpt>
      <trkpt lat="43.50377" lon="6.93737">
        <ele>35</ele>
        <time>2013-12-29T08:17:23.000Z</time>
      </trkpt>
      <trkpt lat="43.50375" lon="6.93737">
        <ele>35</ele>
        <time>2013-12-29T08:17:29.000Z</time>
      </trkpt>
      <trkpt lat="43.50376" lon="6.93739">
        <ele>34.799999237061</ele>
        <time>2013-12-29T08:17:43.000Z</time>
      </trkpt>
      <trkpt lat="43.50374" lon="6.93736">
        <ele>35.200000762939</ele>
        <time>2013-12-29T08:17:49.000Z</time>
      </trkpt>
      <trkpt lat="43.50372" lon="6.93734">
        <ele>35.599998474121</ele>
        <time>2013-12-29T08:17:53.000Z</time>
      </trkpt>
      <trkpt lat="43.5037" lon="6.93735">
        <ele>35.599998474121</ele>
        <time>2013-12-29T08:17:57.000Z</time>
      </trkpt>
      <trkpt lat="43.50369" lon="6.93735">
        <ele>35.799999237061</ele>
        <time>2013-12-29T08:17:58.000Z</time>
      </trkpt>
      <trkpt lat="43.50362" lon="6.93732">
        <ele>36.400001525879</ele>
        <time>2013-12-29T08:18:02.000Z</time>
      </trkpt>
      <trkpt lat="43.50345" lon="6.93732">
        <ele>37.400001525879</ele>
        <time>2013-12-29T08:18:11.000Z</time>
      </trkpt>
      <trkpt lat="43.50339" lon="6.93734">
        <ele>37.599998474121</ele>
        <time>2013-12-29T08:18:16.000Z</time>
      </trkpt>
      <trkpt lat="43.50338" lon="6.93733">
        <ele>37.799999237061</ele>
        <time>2013-12-29T08:18:17.000Z</time>
      </trkpt>
      <trkpt lat="43.50327" lon="6.93722">
        <ele>38.799999237061</ele>
        <time>2013-12-29T08:18:23.000Z</time>
      </trkpt>
      <trkpt lat="43.50317" lon="6.93708">
        <ele>40</ele>
        <time>2013-12-29T08:18:30.000Z</time>
      </trkpt>
      <trkpt lat="43.50315" lon="6.93708">
        <ele>40.200000762939</ele>
        <time>2013-12-29T08:18:31.000Z</time>
      </trkpt>
      <trkpt lat="43.50307" lon="6.93704">
        <ele>41.200000762939</ele>
        <time>2013-12-29T08:18:35.000Z</time>
      </trkpt>
      <trkpt lat="43.50305" lon="6.93704">
        <ele>41.400001525879</ele>
        <time>2013-12-29T08:18:36.000Z</time>
      </trkpt>
      <trkpt lat="43.50289" lon="6.93696">
        <ele>43.599998474121</ele>
        <time>2013-12-29T08:18:45.000Z</time>
      </trkpt>
      <trkpt lat="43.50273" lon="6.937">
        <ele>45.400001525879</ele>
        <time>2013-12-29T08:18:50.000Z</time>
      </trkpt>
      <trkpt lat="43.50262" lon="6.93709">
        <ele>46.599998474121</ele>
        <time>2013-12-29T08:18:54.000Z</time>
      </trkpt>
      <trkpt lat="43.50241" lon="6.93716">
        <ele>48</ele>
        <time>2013-12-29T08:19:00.000Z</time>
      </trkpt>
      <trkpt lat="43.5022" lon="6.93719">
        <ele>48.599998474121</ele>
        <time>2013-12-29T08:19:06.000Z</time>
      </trkpt>
      <trkpt lat="43.50203" lon="6.93716">
        <ele>49.400001525879</ele>
        <time>2013-12-29T08:19:12.000Z</time>
      </trkpt>
      <trkpt lat="43.50191" lon="6.93714">
        <ele>49.799999237061</ele>
        <time>2013-12-29T08:19:17.000Z</time>
      </trkpt>
      <trkpt lat="43.50182" lon="6.93721">
        <ele>49.599998474121</ele>
        <time>2013-12-29T08:19:22.000Z</time>
      </trkpt>
      <trkpt lat="43.50171" lon="6.9373">
        <ele>49.400001525879</ele>
        <time>2013-12-29T08:19:28.000Z</time>
      </trkpt>
      <trkpt lat="43.50153" lon="6.93729">
        <ele>49.200000762939</ele>
        <time>2013-12-29T08:19:36.000Z</time>
      </trkpt>
      <trkpt lat="43.50129" lon="6.93725">
        <ele>48.599998474121</ele>
        <time>2013-12-29T08:19:43.000Z</time>
      </trkpt>
      <trkpt lat="43.50113" lon="6.93722">
        <ele>48</ele>
        <time>2013-12-29T08:19:50.000Z</time>
      </trkpt>
      <trkpt lat="43.50102" lon="6.9372">
        <ele>47.599998474121</ele>
        <time>2013-12-29T08:19:55.000Z</time>
      </trkpt>
      <trkpt lat="43.50086" lon="6.93708">
        <ele>46.599998474121</ele>
        <time>2013-12-29T08:20:02.000Z</time>
      </trkpt>
      <trkpt lat="43.50075" lon="6.93705">
        <ele>46.400001525879</ele>
        <time>2013-12-29T08:20:07.000Z</time>
      </trkpt>
      <trkpt lat="43.50063" lon="6.93707">
        <ele>46.599998474121</ele>
        <time>2013-12-29T08:20:14.000Z</time>
      </trkpt>
      <trkpt lat="43.50051" lon="6.93708">
        <ele>46.599998474121</ele>
        <time>2013-12-29T08:20:21.000Z</time>
      </trkpt>
      <trkpt lat="43.50036" lon="6.93711">
        <ele>47.200000762939</ele>
        <time>2013-12-29T08:20:28.000Z</time>
      </trkpt>
      <trkpt lat="43.50025" lon="6.93712">
        <ele>47.400001525879</ele>
        <time>2013-12-29T08:20:34.000Z</time>
      </trkpt>
      <trkpt lat="43.50012" lon="6.93705">
        <ele>46.400001525879</ele>
        <time>2013-12-29T08:20:42.000Z</time>
      </trkpt>
      <trkpt lat="43.49998" lon="6.93697">
        <ele>45</ele>
        <time>2013-12-29T08:20:50.000Z</time>
      </trkpt>
      <trkpt lat="43.49984" lon="6.93688">
        <ele>44.799999237061</ele>
        <time>2013-12-29T08:21:00.000Z</time>
      </trkpt>
      <trkpt lat="43.49971" lon="6.93681">
        <ele>44.599998474121</ele>
        <time>2013-12-29T08:21:08.000Z</time>
      </trkpt>
      <trkpt lat="43.49955" lon="6.93675">
        <ele>44.799999237061</ele>
        <time>2013-12-29T08:21:18.000Z</time>
      </trkpt>
      <trkpt lat="43.49939" lon="6.93668">
        <ele>44.400001525879</ele>
        <time>2013-12-29T08:21:27.000Z</time>
      </trkpt>
      <trkpt lat="43.49926" lon="6.9366">
        <ele>45.599998474121</ele>
        <time>2013-12-29T08:21:35.000Z</time>
      </trkpt>
      <trkpt lat="43.49914" lon="6.93662">
        <ele>46.400001525879</ele>
        <time>2013-12-29T08:21:42.000Z</time>
      </trkpt>
      <trkpt lat="43.49899" lon="6.93672">
        <ele>49.400001525879</ele>
        <time>2013-12-29T08:21:51.000Z</time>
      </trkpt>
      <trkpt lat="43.49888" lon="6.93675">
        <ele>51.599998474121</ele>
        <time>2013-12-29T08:21:59.000Z</time>
      </trkpt>
      <trkpt lat="43.49882" lon="6.93665">
        <ele>50</ele>
        <time>2013-12-29T08:22:04.000Z</time>
      </trkpt>
      <trkpt lat="43.49876" lon="6.93658">
        <ele>50.599998474121</ele>
        <time>2013-12-29T08:22:09.000Z</time>
      </trkpt>
      <trkpt lat="43.4987" lon="6.93659">
        <ele>51.200000762939</ele>
        <time>2013-12-29T08:22:12.000Z</time>
      </trkpt>
      <trkpt lat="43.49865" lon="6.93662">
        <ele>52</ele>
        <time>2013-12-29T08:22:16.000Z</time>
      </trkpt>
      <trkpt lat="43.49849" lon="6.9366">
        <ele>53.599998474121</ele>
        <time>2013-12-29T08:22:25.000Z</time>
      </trkpt>
      <trkpt lat="43.49835" lon="6.93651">
        <ele>54.200000762939</ele>
        <time>2013-12-29T08:22:35.000Z</time>
      </trkpt>
      <trkpt lat="43.49819" lon="6.9364">
        <ele>56.599998474121</ele>
        <time>2013-12-29T08:22:46.000Z</time>
      </trkpt>
      <trkpt lat="43.49803" lon="6.9363">
        <ele>58.599998474121</ele>
        <time>2013-12-29T08:22:56.000Z</time>
      </trkpt>
      <trkpt lat="43.49792" lon="6.93633">
        <ele>61.400001525879</ele>
        <time>2013-12-29T08:23:03.000Z</time>
      </trkpt>
      <trkpt lat="43.49785" lon="6.93626">
        <ele>61.799999237061</ele>
        <time>2013-12-29T08:23:09.000Z</time>
      </trkpt>
      <trkpt lat="43.49776" lon="6.93613">
        <ele>61.200000762939</ele>
        <time>2013-12-29T08:23:16.000Z</time>
      </trkpt>
      <trkpt lat="43.49762" lon="6.93592">
        <ele>59</ele>
        <time>2013-12-29T08:23:26.000Z</time>
      </trkpt>
      <trkpt lat="43.49747" lon="6.93575">
        <ele>59.400001525879</ele>
        <time>2013-12-29T08:23:33.000Z</time>
      </trkpt>
      <trkpt lat="43.4973" lon="6.93568">
        <ele>61</ele>
        <time>2013-12-29T08:23:40.000Z</time>
      </trkpt>
      <trkpt lat="43.49711" lon="6.93566">
        <ele>62.599998474121</ele>
        <time>2013-12-29T08:23:48.000Z</time>
      </trkpt>
      <trkpt lat="43.49694" lon="6.93573">
        <ele>64</ele>
        <time>2013-12-29T08:23:55.000Z</time>
      </trkpt>
      <trkpt lat="43.49677" lon="6.93591">
        <ele>66.199996948242</ele>
        <time>2013-12-29T08:24:04.000Z</time>
      </trkpt>
      <trkpt lat="43.49664" lon="6.93612">
        <ele>70.400001525879</ele>
        <time>2013-12-29T08:24:11.000Z</time>
      </trkpt>
      <trkpt lat="43.49651" lon="6.93633">
        <ele>74.400001525879</ele>
        <time>2013-12-29T08:24:19.000Z</time>
      </trkpt>
      <trkpt lat="43.49639" lon="6.9365">
        <ele>76.400001525879</ele>
        <time>2013-12-29T08:24:26.000Z</time>
      </trkpt>
      <trkpt lat="43.4963" lon="6.93661">
        <ele>77</ele>
        <time>2013-12-29T08:24:32.000Z</time>
      </trkpt>
      <trkpt lat="43.49619" lon="6.93667">
        <ele>77.199996948242</ele>
        <time>2013-12-29T08:24:38.000Z</time>
      </trkpt>
      <trkpt lat="43.49616" lon="6.9366">
        <ele>77.199996948242</ele>
        <time>2013-12-29T08:24:42.000Z</time>
      </trkpt>
      <trkpt lat="43.4962" lon="6.93653">
        <ele>77.400001525879</ele>
        <time>2013-12-29T08:24:46.000Z</time>
      </trkpt>
      <trkpt lat="43.49625" lon="6.93637">
        <ele>77.400001525879</ele>
        <time>2013-12-29T08:24:54.000Z</time>
      </trkpt>
      <trkpt lat="43.49632" lon="6.9362">
        <ele>76.400001525879</ele>
        <time>2013-12-29T08:25:02.000Z</time>
      </trkpt>
      <trkpt lat="43.49638" lon="6.93602">
        <ele>75</ele>
        <time>2013-12-29T08:25:09.000Z</time>
      </trkpt>
      <trkpt lat="43.49644" lon="6.93582">
        <ele>72.800003051758</ele>
        <time>2013-12-29T08:25:17.000Z</time>
      </trkpt>
      <trkpt lat="43.49651" lon="6.93559">
        <ele>72.400001525879</ele>
        <time>2013-12-29T08:25:27.000Z</time>
      </trkpt>
      <trkpt lat="43.4966" lon="6.93536">
        <ele>70.400001525879</ele>
        <time>2013-12-29T08:25:36.000Z</time>
      </trkpt>
      <trkpt lat="43.49666" lon="6.93519">
        <ele>68.800003051758</ele>
        <time>2013-12-29T08:25:43.000Z</time>
      </trkpt>
      <trkpt lat="43.49674" lon="6.93501">
        <ele>68.199996948242</ele>
        <time>2013-12-29T08:25:51.000Z</time>
      </trkpt>
      <trkpt lat="43.49676" lon="6.93481">
        <ele>68.199996948242</ele>
        <time>2013-12-29T08:25:58.000Z</time>
      </trkpt>
      <trkpt lat="43.4967" lon="6.93459">
        <ele>68.400001525879</ele>
        <time>2013-12-29T08:26:06.000Z</time>
      </trkpt>
      <trkpt lat="43.49663" lon="6.93439">
        <ele>69.800003051758</ele>
        <time>2013-12-29T08:26:14.000Z</time>
      </trkpt>
      <trkpt lat="43.49653" lon="6.93418">
        <ele>74</ele>
        <time>2013-12-29T08:26:24.000Z</time>
      </trkpt>
      <trkpt lat="43.49643" lon="6.93404">
        <ele>77.599998474121</ele>
        <time>2013-12-29T08:26:31.000Z</time>
      </trkpt>
      <trkpt lat="43.49633" lon="6.93392">
        <ele>81.400001525879</ele>
        <time>2013-12-29T08:26:39.000Z</time>
      </trkpt>
      <trkpt lat="43.49618" lon="6.93381">
        <ele>86.800003051758</ele>
        <time>2013-12-29T08:26:48.000Z</time>
      </trkpt>
      <trkpt lat="43.49605" lon="6.93375">
        <ele>91.400001525879</ele>
        <time>2013-12-29T08:26:55.000Z</time>
      </trkpt>
      <trkpt lat="43.49581" lon="6.93367">
        <ele>99.599998474121</ele>
        <time>2013-12-29T08:27:07.000Z</time>
      </trkpt>
      <trkpt lat="43.49575" lon="6.93357">
        <ele>101</ele>
        <time>2013-12-29T08:27:12.000Z</time>
      </trkpt>
      <trkpt lat="43.4958" lon="6.93344">
        <ele>98.199996948242</ele>
        <time>2013-12-29T08:27:17.000Z</time>
      </trkpt>
      <trkpt lat="43.49582" lon="6.93343">
        <ele>97.400001525879</ele>
        <time>2013-12-29T08:27:18.000Z</time>
      </trkpt>
      <trkpt lat="43.49596" lon="6.93331">
        <ele>92</ele>
        <time>2013-12-29T08:27:25.000Z</time>
      </trkpt>
      <trkpt lat="43.49613" lon="6.93322">
        <ele>87.400001525879</ele>
        <time>2013-12-29T08:27:33.000Z</time>
      </trkpt>
      <trkpt lat="43.49624" lon="6.93308">
        <ele>84.800003051758</ele>
        <time>2013-12-29T08:27:40.000Z</time>
      </trkpt>
      <trkpt lat="43.49631" lon="6.93287">
        <ele>84.599998474121</ele>
        <time>2013-12-29T08:27:48.000Z</time>
      </trkpt>
      <trkpt lat="43.49631" lon="6.93266">
        <ele>86.400001525879</ele>
        <time>2013-12-29T08:27:55.000Z</time>
      </trkpt>
      <trkpt lat="43.49623" lon="6.93248">
        <ele>90.199996948242</ele>
        <time>2013-12-29T08:28:02.000Z</time>
      </trkpt>
      <trkpt lat="43.4961" lon="6.93235">
        <ele>95.199996948242</ele>
        <time>2013-12-29T08:28:09.000Z</time>
      </trkpt>
      <trkpt lat="43.49595" lon="6.9322">
        <ele>100.80000305176</ele>
        <time>2013-12-29T08:28:17.000Z</time>
      </trkpt>
      <trkpt lat="43.49586" lon="6.9321">
        <ele>104</ele>
        <time>2013-12-29T08:28:22.000Z</time>
      </trkpt>
      <trkpt lat="43.49587" lon="6.93197">
        <ele>104.40000152588</ele>
        <time>2013-12-29T08:28:26.000Z</time>
      </trkpt>
      <trkpt lat="43.49589" lon="6.93192">
        <ele>103.80000305176</ele>
        <time>2013-12-29T08:28:28.000Z</time>
      </trkpt>
      <trkpt lat="43.49598" lon="6.9318">
        <ele>101.59999847412</ele>
        <time>2013-12-29T08:28:33.000Z</time>
      </trkpt>
      <trkpt lat="43.49614" lon="6.93164">
        <ele>97.400001525879</ele>
        <time>2013-12-29T08:28:41.000Z</time>
      </trkpt>
      <trkpt lat="43.49629" lon="6.93141">
        <ele>95.800003051758</ele>
        <time>2013-12-29T08:28:50.000Z</time>
      </trkpt>
      <trkpt lat="43.49637" lon="6.93113">
        <ele>96.800003051758</ele>
        <time>2013-12-29T08:28:59.000Z</time>
      </trkpt>
      <trkpt lat="43.49641" lon="6.93082">
        <ele>99.199996948242</ele>
        <time>2013-12-29T08:29:09.000Z</time>
      </trkpt>
      <trkpt lat="43.4964" lon="6.93059">
        <ele>99.599998474121</ele>
        <time>2013-12-29T08:29:17.000Z</time>
      </trkpt>
      <trkpt lat="43.49632" lon="6.9305">
        <ele>102</ele>
        <time>2013-12-29T08:29:22.000Z</time>
      </trkpt>
      <trkpt lat="43.49612" lon="6.93039">
        <ele>107.40000152588</ele>
        <time>2013-12-29T08:29:31.000Z</time>
      </trkpt>
      <trkpt lat="43.49596" lon="6.93026">
        <ele>111</ele>
        <time>2013-12-29T08:29:38.000Z</time>
      </trkpt>
      <trkpt lat="43.49595" lon="6.93009">
        <ele>110.80000305176</ele>
        <time>2013-12-29T08:29:43.000Z</time>
      </trkpt>
      <trkpt lat="43.49599" lon="6.9299">
        <ele>108.59999847412</ele>
        <time>2013-12-29T08:29:49.000Z</time>
      </trkpt>
      <trkpt lat="43.49595" lon="6.92976">
        <ele>108.80000305176</ele>
        <time>2013-12-29T08:29:54.000Z</time>
      </trkpt>
      <trkpt lat="43.49584" lon="6.92954">
        <ele>109.40000152588</ele>
        <time>2013-12-29T08:30:02.000Z</time>
      </trkpt>
      <trkpt lat="43.49576" lon="6.92931">
        <ele>110.59999847412</ele>
        <time>2013-12-29T08:30:10.000Z</time>
      </trkpt>
      <trkpt lat="43.49568" lon="6.9291">
        <ele>111.80000305176</ele>
        <time>2013-12-29T08:30:18.000Z</time>
      </trkpt>
      <trkpt lat="43.49555" lon="6.92895">
        <ele>114.80000305176</ele>
        <time>2013-12-29T08:30:26.000Z</time>
      </trkpt>
      <trkpt lat="43.49544" lon="6.9288">
        <ele>116.80000305176</ele>
        <time>2013-12-29T08:30:33.000Z</time>
      </trkpt>
      <trkpt lat="43.49534" lon="6.92866">
        <ele>118.19999694824</ele>
        <time>2013-12-29T08:30:40.000Z</time>
      </trkpt>
      <trkpt lat="43.49522" lon="6.92853">
        <ele>120.19999694824</ele>
        <time>2013-12-29T08:30:47.000Z</time>
      </trkpt>
      <trkpt lat="43.49509" lon="6.92838">
        <ele>121.40000152588</ele>
        <time>2013-12-29T08:30:55.000Z</time>
      </trkpt>
      <trkpt lat="43.49507" lon="6.9282">
        <ele>121</ele>
        <time>2013-12-29T08:31:02.000Z</time>
      </trkpt>
      <trkpt lat="43.49502" lon="6.92799">
        <ele>121.40000152588</ele>
        <time>2013-12-29T08:31:11.000Z</time>
      </trkpt>
      <trkpt lat="43.49495" lon="6.92789">
        <ele>121</ele>
        <time>2013-12-29T08:31:17.000Z</time>
      </trkpt>
      <trkpt lat="43.49491" lon="6.92789">
        <ele>120.59999847412</ele>
        <time>2013-12-29T08:31:20.000Z</time>
      </trkpt>
      <trkpt lat="43.49489" lon="6.92793">
        <ele>120.40000152588</ele>
        <time>2013-12-29T08:31:23.000Z</time>
      </trkpt>
      <trkpt lat="43.49481" lon="6.92803">
        <ele>120.59999847412</ele>
        <time>2013-12-29T08:31:29.000Z</time>
      </trkpt>
      <trkpt lat="43.49474" lon="6.92819">
        <ele>121.19999694824</ele>
        <time>2013-12-29T08:31:37.000Z</time>
      </trkpt>
      <trkpt lat="43.49465" lon="6.92836">
        <ele>122.59999847412</ele>
        <time>2013-12-29T08:31:45.000Z</time>
      </trkpt>
      <trkpt lat="43.49455" lon="6.92847">
        <ele>124</ele>
        <time>2013-12-29T08:31:53.000Z</time>
      </trkpt>
      <trkpt lat="43.49442" lon="6.92844">
        <ele>123.40000152588</ele>
        <time>2013-12-29T08:32:00.000Z</time>
      </trkpt>
      <trkpt lat="43.49428" lon="6.92847">
        <ele>123.40000152588</ele>
        <time>2013-12-29T08:32:08.000Z</time>
      </trkpt>
      <trkpt lat="43.49417" lon="6.92857">
        <ele>124.80000305176</ele>
        <time>2013-12-29T08:32:16.000Z</time>
      </trkpt>
      <trkpt lat="43.4941" lon="6.92873">
        <ele>125.19999694824</ele>
        <time>2013-12-29T08:32:24.000Z</time>
      </trkpt>
      <trkpt lat="43.49408" lon="6.92887">
        <ele>126.40000152588</ele>
        <time>2013-12-29T08:32:31.000Z</time>
      </trkpt>
      <trkpt lat="43.4941" lon="6.92903">
        <ele>129.60000610352</ele>
        <time>2013-12-29T08:32:38.000Z</time>
      </trkpt>
      <trkpt lat="43.49416" lon="6.92926">
        <ele>135</ele>
        <time>2013-12-29T08:32:47.000Z</time>
      </trkpt>
      <trkpt lat="43.49416" lon="6.92944">
        <ele>137.39999389648</ele>
        <time>2013-12-29T08:32:54.000Z</time>
      </trkpt>
      <trkpt lat="43.4941" lon="6.92963">
        <ele>137.60000610352</ele>
        <time>2013-12-29T08:33:02.000Z</time>
      </trkpt>
      <trkpt lat="43.49406" lon="6.92984">
        <ele>139.19999694824</ele>
        <time>2013-12-29T08:33:11.000Z</time>
      </trkpt>
      <trkpt lat="43.49411" lon="6.93003">
        <ele>143.19999694824</ele>
        <time>2013-12-29T08:33:18.000Z</time>
      </trkpt>
      <trkpt lat="43.4941" lon="6.93021">
        <ele>145.80000305176</ele>
        <time>2013-12-29T08:33:24.000Z</time>
      </trkpt>
      <trkpt lat="43.49404" lon="6.93043">
        <ele>147</ele>
        <time>2013-12-29T08:33:32.000Z</time>
      </trkpt>
      <trkpt lat="43.49397" lon="6.93062">
        <ele>147.80000305176</ele>
        <time>2013-12-29T08:33:40.000Z</time>
      </trkpt>
      <trkpt lat="43.49392" lon="6.93077">
        <ele>148.60000610352</ele>
        <time>2013-12-29T08:33:47.000Z</time>
      </trkpt>
      <trkpt lat="43.49385" lon="6.9309">
        <ele>148.19999694824</ele>
        <time>2013-12-29T08:33:53.000Z</time>
      </trkpt>
      <trkpt lat="43.49376" lon="6.93109">
        <ele>148.19999694824</ele>
        <time>2013-12-29T08:34:00.000Z</time>
      </trkpt>
      <trkpt lat="43.49366" lon="6.93133">
        <ele>148.80000305176</ele>
        <time>2013-12-29T08:34:09.000Z</time>
      </trkpt>
      <trkpt lat="43.49361" lon="6.93152">
        <ele>150.60000610352</ele>
        <time>2013-12-29T08:34:16.000Z</time>
      </trkpt>
      <trkpt lat="43.49361" lon="6.93166">
        <ele>152.60000610352</ele>
        <time>2013-12-29T08:34:22.000Z</time>
      </trkpt>
      <trkpt lat="43.49366" lon="6.93187">
        <ele>155.80000305176</ele>
        <time>2013-12-29T08:34:31.000Z</time>
      </trkpt>
      <trkpt lat="43.49374" lon="6.93195">
        <ele>157.80000305176</ele>
        <time>2013-12-29T08:34:36.000Z</time>
      </trkpt>
      <trkpt lat="43.49375" lon="6.93194">
        <ele>157.80000305176</ele>
        <time>2013-12-29T08:34:37.000Z</time>
      </trkpt>
      <trkpt lat="43.49373" lon="6.93186">
        <ele>156.80000305176</ele>
        <time>2013-12-29T08:34:41.000Z</time>
      </trkpt>
      <trkpt lat="43.49372" lon="6.93167">
        <ele>155</ele>
        <time>2013-12-29T08:34:49.000Z</time>
      </trkpt>
      <trkpt lat="43.4938" lon="6.9315">
        <ele>154.39999389648</ele>
        <time>2013-12-29T08:34:57.000Z</time>
      </trkpt>
      <trkpt lat="43.49393" lon="6.93136">
        <ele>155.80000305176</ele>
        <time>2013-12-29T08:35:05.000Z</time>
      </trkpt>
      <trkpt lat="43.49411" lon="6.93125">
        <ele>159.19999694824</ele>
        <time>2013-12-29T08:35:14.000Z</time>
      </trkpt>
      <trkpt lat="43.49424" lon="6.93119">
        <ele>158.80000305176</ele>
        <time>2013-12-29T08:35:20.000Z</time>
      </trkpt>
      <trkpt lat="43.49442" lon="6.93117">
        <ele>155.60000610352</ele>
        <time>2013-12-29T08:35:28.000Z</time>
      </trkpt>
      <trkpt lat="43.49446" lon="6.93122">
        <ele>155</ele>
        <time>2013-12-29T08:35:34.000Z</time>
      </trkpt>
      <trkpt lat="43.49447" lon="6.93127">
        <ele>155</ele>
        <time>2013-12-29T08:35:39.000Z</time>
      </trkpt>
      <trkpt lat="43.49447" lon="6.9313">
        <ele>155.19999694824</ele>
        <time>2013-12-29T08:35:42.000Z</time>
      </trkpt>
      <trkpt lat="43.49446" lon="6.93138">
        <ele>155.80000305176</ele>
        <time>2013-12-29T08:36:36.000Z</time>
      </trkpt>
      <trkpt lat="43.49447" lon="6.93138">
        <ele>155.60000610352</ele>
        <time>2013-12-29T08:36:42.000Z</time>
      </trkpt>
      <trkpt lat="43.49445" lon="6.93143">
        <ele>156.19999694824</ele>
        <time>2013-12-29T08:37:17.000Z</time>
      </trkpt>
      <trkpt lat="43.49445" lon="6.93157">
        <ele>156.80000305176</ele>
        <time>2013-12-29T08:37:22.000Z</time>
      </trkpt>
      <trkpt lat="43.49439" lon="6.93178">
        <ele>158.39999389648</ele>
        <time>2013-12-29T08:37:28.000Z</time>
      </trkpt>
      <trkpt lat="43.49425" lon="6.93205">
        <ele>161.80000305176</ele>
        <time>2013-12-29T08:37:35.000Z</time>
      </trkpt>
      <trkpt lat="43.49411" lon="6.93233">
        <ele>163.60000610352</ele>
        <time>2013-12-29T08:37:42.000Z</time>
      </trkpt>
      <trkpt lat="43.49405" lon="6.9326">
        <ele>163.80000305176</ele>
        <time>2013-12-29T08:37:50.000Z</time>
      </trkpt>
      <trkpt lat="43.49403" lon="6.93286">
        <ele>164.39999389648</ele>
        <time>2013-12-29T08:37:58.000Z</time>
      </trkpt>
      <trkpt lat="43.49404" lon="6.9331">
        <ele>165</ele>
        <time>2013-12-29T08:38:05.000Z</time>
      </trkpt>
      <trkpt lat="43.49402" lon="6.93326">
        <ele>165.60000610352</ele>
        <time>2013-12-29T08:38:10.000Z</time>
      </trkpt>
      <trkpt lat="43.49395" lon="6.93325">
        <ele>166.19999694824</ele>
        <time>2013-12-29T08:38:14.000Z</time>
      </trkpt>
      <trkpt lat="43.49394" lon="6.93322">
        <ele>166.19999694824</ele>
        <time>2013-12-29T08:38:16.000Z</time>
      </trkpt>
      <trkpt lat="43.49387" lon="6.93314">
        <ele>166.39999389648</ele>
        <time>2013-12-29T08:38:21.000Z</time>
      </trkpt>
      <trkpt lat="43.49375" lon="6.93309">
        <ele>167</ele>
        <time>2013-12-29T08:38:28.000Z</time>
      </trkpt>
      <trkpt lat="43.49362" lon="6.9331">
        <ele>168.19999694824</ele>
        <time>2013-12-29T08:38:35.000Z</time>
      </trkpt>
      <trkpt lat="43.49348" lon="6.93319">
        <ele>170.39999389648</ele>
        <time>2013-12-29T08:38:43.000Z</time>
      </trkpt>
      <trkpt lat="43.49342" lon="6.93337">
        <ele>173.19999694824</ele>
        <time>2013-12-29T08:38:50.000Z</time>
      </trkpt>
      <trkpt lat="43.49346" lon="6.93351">
        <ele>173.60000610352</ele>
        <time>2013-12-29T08:38:56.000Z</time>
      </trkpt>
      <trkpt lat="43.49356" lon="6.93366">
        <ele>173.19999694824</ele>
        <time>2013-12-29T08:39:03.000Z</time>
      </trkpt>
      <trkpt lat="43.49356" lon="6.93377">
        <ele>173.80000305176</ele>
        <time>2013-12-29T08:39:08.000Z</time>
      </trkpt>
      <trkpt lat="43.49352" lon="6.93393">
        <ele>175.39999389648</ele>
        <time>2013-12-29T08:39:15.000Z</time>
      </trkpt>
      <trkpt lat="43.49348" lon="6.93419">
        <ele>177.39999389648</ele>
        <time>2013-12-29T08:39:21.000Z</time>
      </trkpt>
      <trkpt lat="43.49345" lon="6.93451">
        <ele>177.19999694824</ele>
        <time>2013-12-29T08:39:28.000Z</time>
      </trkpt>
      <trkpt lat="43.4934" lon="6.93476">
        <ele>177.60000610352</ele>
        <time>2013-12-29T08:39:34.000Z</time>
      </trkpt>
      <trkpt lat="43.4934" lon="6.93503">
        <ele>176.80000305176</ele>
        <time>2013-12-29T08:39:38.000Z</time>
      </trkpt>
      <trkpt lat="43.4935" lon="6.93546">
        <ele>172.19999694824</ele>
        <time>2013-12-29T08:39:43.000Z</time>
      </trkpt>
      <trkpt lat="43.49352" lon="6.93558">
        <ele>171.19999694824</ele>
        <time>2013-12-29T08:39:44.000Z</time>
      </trkpt>
      <trkpt lat="43.49352" lon="6.93582">
        <ele>169.39999389648</ele>
        <time>2013-12-29T08:39:46.000Z</time>
      </trkpt>
      <trkpt lat="43.49343" lon="6.93614">
        <ele>172.19999694824</ele>
        <time>2013-12-29T08:39:49.000Z</time>
      </trkpt>
      <trkpt lat="43.49331" lon="6.93654">
        <ele>175.19999694824</ele>
        <time>2013-12-29T08:39:54.000Z</time>
      </trkpt>
      <trkpt lat="43.49328" lon="6.93677">
        <ele>174.80000305176</ele>
        <time>2013-12-29T08:39:58.000Z</time>
      </trkpt>
      <trkpt lat="43.49326" lon="6.93687">
        <ele>174.39999389648</ele>
        <time>2013-12-29T08:40:00.000Z</time>
      </trkpt>
      <trkpt lat="43.49322" lon="6.93708">
        <ele>173.60000610352</ele>
        <time>2013-12-29T08:40:04.000Z</time>
      </trkpt>
      <trkpt lat="43.49316" lon="6.93739">
        <ele>172.80000305176</ele>
        <time>2013-12-29T08:40:10.000Z</time>
      </trkpt>
      <trkpt lat="43.49315" lon="6.93771">
        <ele>173.19999694824</ele>
        <time>2013-12-29T08:40:17.000Z</time>
      </trkpt>
      <trkpt lat="43.49312" lon="6.93807">
        <ele>173.60000610352</ele>
        <time>2013-12-29T08:40:24.000Z</time>
      </trkpt>
      <trkpt lat="43.49308" lon="6.9384">
        <ele>173.80000305176</ele>
        <time>2013-12-29T08:40:31.000Z</time>
      </trkpt>
      <trkpt lat="43.49307" lon="6.93861">
        <ele>174</ele>
        <time>2013-12-29T08:40:37.000Z</time>
      </trkpt>
      <trkpt lat="43.49312" lon="6.93885">
        <ele>174.60000610352</ele>
        <time>2013-12-29T08:40:44.000Z</time>
      </trkpt>
      <trkpt lat="43.49318" lon="6.93915">
        <ele>175.19999694824</ele>
        <time>2013-12-29T08:40:52.000Z</time>
      </trkpt>
      <trkpt lat="43.49323" lon="6.93948">
        <ele>175.60000610352</ele>
        <time>2013-12-29T08:40:58.000Z</time>
      </trkpt>
      <trkpt lat="43.4933" lon="6.93993">
        <ele>175.39999389648</ele>
        <time>2013-12-29T08:41:03.000Z</time>
      </trkpt>
      <trkpt lat="43.49335" lon="6.94047">
        <ele>173.19999694824</ele>
        <time>2013-12-29T08:41:08.000Z</time>
      </trkpt>
      <trkpt lat="43.4934" lon="6.94119">
        <ele>169</ele>
        <time>2013-12-29T08:41:14.000Z</time>
      </trkpt>
      <trkpt lat="43.49346" lon="6.94182">
        <ele>164.60000610352</ele>
        <time>2013-12-29T08:41:20.000Z</time>
      </trkpt>
      <trkpt lat="43.49346" lon="6.94195">
        <ele>163.19999694824</ele>
        <time>2013-12-29T08:41:22.000Z</time>
      </trkpt>
      <trkpt lat="43.49345" lon="6.94206">
        <ele>162.19999694824</ele>
        <time>2013-12-29T08:41:24.000Z</time>
      </trkpt>
      <trkpt lat="43.49346" lon="6.94213">
        <ele>161.39999389648</ele>
        <time>2013-12-29T08:41:26.000Z</time>
      </trkpt>
      <trkpt lat="43.49349" lon="6.94216">
        <ele>160.80000305176</ele>
        <time>2013-12-29T08:41:28.000Z</time>
      </trkpt>
      <trkpt lat="43.4935" lon="6.94219">
        <ele>160.39999389648</ele>
        <time>2013-12-29T08:41:33.000Z</time>
      </trkpt>
      <trkpt lat="43.49352" lon="6.94221">
        <ele>160</ele>
        <time>2013-12-29T08:41:38.000Z</time>
      </trkpt>
      <trkpt lat="43.49356" lon="6.94224">
        <ele>159.39999389648</ele>
        <time>2013-12-29T08:41:40.000Z</time>
      </trkpt>
      <trkpt lat="43.49362" lon="6.94229">
        <ele>158.60000610352</ele>
        <time>2013-12-29T08:41:44.000Z</time>
      </trkpt>
      <trkpt lat="43.49363" lon="6.94229">
        <ele>158.60000610352</ele>
        <time>2013-12-29T08:41:45.000Z</time>
      </trkpt>
      <trkpt lat="43.49371" lon="6.94226">
        <ele>158</ele>
        <time>2013-12-29T08:41:49.000Z</time>
      </trkpt>
      <trkpt lat="43.49374" lon="6.94223">
        <ele>158</ele>
        <time>2013-12-29T08:41:51.000Z</time>
      </trkpt>
      <trkpt lat="43.4938" lon="6.94221">
        <ele>157.39999389648</ele>
        <time>2013-12-29T08:41:53.000Z</time>
      </trkpt>
      <trkpt lat="43.49393" lon="6.94213">
        <ele>156</ele>
        <time>2013-12-29T08:41:58.000Z</time>
      </trkpt>
      <trkpt lat="43.49398" lon="6.94211">
        <ele>155.39999389648</ele>
        <time>2013-12-29T08:42:00.000Z</time>
      </trkpt>
      <trkpt lat="43.494" lon="6.94212">
        <ele>155.19999694824</ele>
        <time>2013-12-29T08:42:02.000Z</time>
      </trkpt>
      <trkpt lat="43.49403" lon="6.94212">
        <ele>155</ele>
        <time>2013-12-29T08:42:12.000Z</time>
      </trkpt>
      <trkpt lat="43.49404" lon="6.94216">
        <ele>154.80000305176</ele>
        <time>2013-12-29T08:42:18.000Z</time>
      </trkpt>
      <trkpt lat="43.49401" lon="6.94229">
        <ele>155.80000305176</ele>
        <time>2013-12-29T08:42:25.000Z</time>
      </trkpt>
      <trkpt lat="43.49399" lon="6.94245">
        <ele>156.19999694824</ele>
        <time>2013-12-29T08:42:29.000Z</time>
      </trkpt>
      <trkpt lat="43.49406" lon="6.94249">
        <ele>156.19999694824</ele>
        <time>2013-12-29T08:42:32.000Z</time>
      </trkpt>
      <trkpt lat="43.4942" lon="6.94251">
        <ele>155.80000305176</ele>
        <time>2013-12-29T08:42:35.000Z</time>
      </trkpt>
      <trkpt lat="43.49424" lon="6.94252">
        <ele>155.80000305176</ele>
        <time>2013-12-29T08:42:36.000Z</time>
      </trkpt>
      <trkpt lat="43.49436" lon="6.94251">
        <ele>156</ele>
        <time>2013-12-29T08:42:40.000Z</time>
      </trkpt>
      <trkpt lat="43.49453" lon="6.94251">
        <ele>156.19999694824</ele>
        <time>2013-12-29T08:42:46.000Z</time>
      </trkpt>
      <trkpt lat="43.49473" lon="6.9425">
        <ele>156.60000610352</ele>
        <time>2013-12-29T08:42:53.000Z</time>
      </trkpt>
      <trkpt lat="43.49496" lon="6.94251">
        <ele>156.80000305176</ele>
        <time>2013-12-29T08:43:00.000Z</time>
      </trkpt>
      <trkpt lat="43.4952" lon="6.94247">
        <ele>157.60000610352</ele>
        <time>2013-12-29T08:43:08.000Z</time>
      </trkpt>
      <trkpt lat="43.49542" lon="6.94245">
        <ele>158.39999389648</ele>
        <time>2013-12-29T08:43:15.000Z</time>
      </trkpt>
      <trkpt lat="43.49545" lon="6.9425">
        <ele>159.19999694824</ele>
        <time>2013-12-29T08:43:17.000Z</time>
      </trkpt>
      <trkpt lat="43.49546" lon="6.94256">
        <ele>158.60000610352</ele>
        <time>2013-12-29T08:43:19.000Z</time>
      </trkpt>
      <trkpt lat="43.49555" lon="6.94268">
        <ele>158</ele>
        <time>2013-12-29T08:43:23.000Z</time>
      </trkpt>
      <trkpt lat="43.49564" lon="6.94266">
        <ele>158.80000305176</ele>
        <time>2013-12-29T08:43:26.000Z</time>
      </trkpt>
      <trkpt lat="43.49569" lon="6.94262">
        <ele>159.39999389648</ele>
        <time>2013-12-29T08:43:28.000Z</time>
      </trkpt>
      <trkpt lat="43.49573" lon="6.94256">
        <ele>160</ele>
        <time>2013-12-29T08:43:31.000Z</time>
      </trkpt>
      <trkpt lat="43.49585" lon="6.94248">
        <ele>160.80000305176</ele>
        <time>2013-12-29T08:43:38.000Z</time>
      </trkpt>
      <trkpt lat="43.49597" lon="6.94245">
        <ele>162.80000305176</ele>
        <time>2013-12-29T08:43:45.000Z</time>
      </trkpt>
      <trkpt lat="43.49615" lon="6.94237">
        <ele>165.19999694824</ele>
        <time>2013-12-29T08:43:55.000Z</time>
      </trkpt>
      <trkpt lat="43.49633" lon="6.94226">
        <ele>167.19999694824</ele>
        <time>2013-12-29T08:44:05.000Z</time>
      </trkpt>
      <trkpt lat="43.49652" lon="6.94211">
        <ele>169.39999389648</ele>
        <time>2013-12-29T08:44:17.000Z</time>
      </trkpt>
      <trkpt lat="43.49669" lon="6.94197">
        <ele>171.19999694824</ele>
        <time>2013-12-29T08:44:27.000Z</time>
      </trkpt>
      <trkpt lat="43.49685" lon="6.94179">
        <ele>172.39999389648</ele>
        <time>2013-12-29T08:44:37.000Z</time>
      </trkpt>
      <trkpt lat="43.49702" lon="6.9417">
        <ele>173.80000305176</ele>
        <time>2013-12-29T08:44:46.000Z</time>
      </trkpt>
      <trkpt lat="43.49716" lon="6.94168">
        <ele>175.80000305176</ele>
        <time>2013-12-29T08:44:53.000Z</time>
      </trkpt>
      <trkpt lat="43.49735" lon="6.9417">
        <ele>179</ele>
        <time>2013-12-29T08:45:02.000Z</time>
      </trkpt>
      <trkpt lat="43.49753" lon="6.94169">
        <ele>181.80000305176</ele>
        <time>2013-12-29T08:45:11.000Z</time>
      </trkpt>
      <trkpt lat="43.49774" lon="6.94167">
        <ele>183.80000305176</ele>
        <time>2013-12-29T08:45:21.000Z</time>
      </trkpt>
      <trkpt lat="43.49789" lon="6.94164">
        <ele>184.39999389648</ele>
        <time>2013-12-29T08:45:27.000Z</time>
      </trkpt>
      <trkpt lat="43.49806" lon="6.94152">
        <ele>183</ele>
        <time>2013-12-29T08:45:34.000Z</time>
      </trkpt>
      <trkpt lat="43.49824" lon="6.94148">
        <ele>184</ele>
        <time>2013-12-29T08:45:42.000Z</time>
      </trkpt>
      <trkpt lat="43.49836" lon="6.94146">
        <ele>184.19999694824</ele>
        <time>2013-12-29T08:45:47.000Z</time>
      </trkpt>
      <trkpt lat="43.49838" lon="6.94148">
        <ele>184.80000305176</ele>
        <time>2013-12-29T08:45:49.000Z</time>
      </trkpt>
      <trkpt lat="43.49833" lon="6.94153">
        <ele>186.39999389648</ele>
        <time>2013-12-29T08:45:52.000Z</time>
      </trkpt>
      <trkpt lat="43.49826" lon="6.9416">
        <ele>187.39999389648</ele>
        <time>2013-12-29T08:45:57.000Z</time>
      </trkpt>
      <trkpt lat="43.49815" lon="6.94174">
        <ele>189.19999694824</ele>
        <time>2013-12-29T08:46:05.000Z</time>
      </trkpt>
      <trkpt lat="43.49805" lon="6.94186">
        <ele>190</ele>
        <time>2013-12-29T08:46:12.000Z</time>
      </trkpt>
      <trkpt lat="43.49796" lon="6.94198">
        <ele>190.80000305176</ele>
        <time>2013-12-29T08:46:18.000Z</time>
      </trkpt>
      <trkpt lat="43.49788" lon="6.94211">
        <ele>192</ele>
        <time>2013-12-29T08:46:25.000Z</time>
      </trkpt>
      <trkpt lat="43.49777" lon="6.94225">
        <ele>193</ele>
        <time>2013-12-29T08:46:32.000Z</time>
      </trkpt>
      <trkpt lat="43.49767" lon="6.94242">
        <ele>194.60000610352</ele>
        <time>2013-12-29T08:46:39.000Z</time>
      </trkpt>
      <trkpt lat="43.49763" lon="6.9426">
        <ele>195.19999694824</ele>
        <time>2013-12-29T08:46:46.000Z</time>
      </trkpt>
      <trkpt lat="43.49761" lon="6.94276">
        <ele>194.60000610352</ele>
        <time>2013-12-29T08:46:52.000Z</time>
      </trkpt>
      <trkpt lat="43.49764" lon="6.94301">
        <ele>194.60000610352</ele>
        <time>2013-12-29T08:46:59.000Z</time>
      </trkpt>
      <trkpt lat="43.49778" lon="6.94331">
        <ele>198</ele>
        <time>2013-12-29T08:47:06.000Z</time>
      </trkpt>
      <trkpt lat="43.49786" lon="6.94352">
        <ele>199.19999694824</ele>
        <time>2013-12-29T08:47:13.000Z</time>
      </trkpt>
      <trkpt lat="43.49789" lon="6.94374">
        <ele>199.39999389648</ele>
        <time>2013-12-29T08:47:20.000Z</time>
      </trkpt>
      <trkpt lat="43.49791" lon="6.94404">
        <ele>198.60000610352</ele>
        <time>2013-12-29T08:47:28.000Z</time>
      </trkpt>
      <trkpt lat="43.49793" lon="6.94436">
        <ele>197.80000305176</ele>
        <time>2013-12-29T08:47:36.000Z</time>
      </trkpt>
      <trkpt lat="43.498" lon="6.94472">
        <ele>198.19999694824</ele>
        <time>2013-12-29T08:47:44.000Z</time>
      </trkpt>
      <trkpt lat="43.49809" lon="6.94504">
        <ele>200</ele>
        <time>2013-12-29T08:47:51.000Z</time>
      </trkpt>
      <trkpt lat="43.49823" lon="6.94539">
        <ele>199.80000305176</ele>
        <time>2013-12-29T08:48:00.000Z</time>
      </trkpt>
      <trkpt lat="43.49839" lon="6.94569">
        <ele>200.80000305176</ele>
        <time>2013-12-29T08:48:08.000Z</time>
      </trkpt>
      <trkpt lat="43.49855" lon="6.94598">
        <ele>201.80000305176</ele>
        <time>2013-12-29T08:48:16.000Z</time>
      </trkpt>
      <trkpt lat="43.49872" lon="6.94626">
        <ele>202.60000610352</ele>
        <time>2013-12-29T08:48:24.000Z</time>
      </trkpt>
      <trkpt lat="43.4989" lon="6.94653">
        <ele>204</ele>
        <time>2013-12-29T08:48:32.000Z</time>
      </trkpt>
      <trkpt lat="43.49912" lon="6.94681">
        <ele>206.39999389648</ele>
        <time>2013-12-29T08:48:41.000Z</time>
      </trkpt>
      <trkpt lat="43.49932" lon="6.94704">
        <ele>205.60000610352</ele>
        <time>2013-12-29T08:48:49.000Z</time>
      </trkpt>
      <trkpt lat="43.49957" lon="6.94727">
        <ele>205.39999389648</ele>
        <time>2013-12-29T08:48:58.000Z</time>
      </trkpt>
      <trkpt lat="43.49984" lon="6.94748">
        <ele>206.39999389648</ele>
        <time>2013-12-29T08:49:07.000Z</time>
      </trkpt>
      <trkpt lat="43.50008" lon="6.94761">
        <ele>206.60000610352</ele>
        <time>2013-12-29T08:49:15.000Z</time>
      </trkpt>
      <trkpt lat="43.50032" lon="6.94775">
        <ele>203</ele>
        <time>2013-12-29T08:49:23.000Z</time>
      </trkpt>
      <trkpt lat="43.50052" lon="6.94786">
        <ele>201.80000305176</ele>
        <time>2013-12-29T08:49:30.000Z</time>
      </trkpt>
      <trkpt lat="43.50059" lon="6.94791">
        <ele>201.60000610352</ele>
        <time>2013-12-29T08:49:36.000Z</time>
      </trkpt>
      <trkpt lat="43.50058" lon="6.94795">
        <ele>201.39999389648</ele>
        <time>2013-12-29T08:49:45.000Z</time>
      </trkpt>
      <trkpt lat="43.50058" lon="6.94796">
        <ele>201.39999389648</ele>
        <time>2013-12-29T08:49:55.000Z</time>
      </trkpt>
      <trkpt lat="43.50055" lon="6.94796">
        <ele>201.19999694824</ele>
        <time>2013-12-29T08:50:32.000Z</time>
      </trkpt>
      <trkpt lat="43.50055" lon="6.94798">
        <ele>201</ele>
        <time>2013-12-29T08:50:39.000Z</time>
      </trkpt>
      <trkpt lat="43.50055" lon="6.94799">
        <ele>201</ele>
        <time>2013-12-29T08:50:48.000Z</time>
      </trkpt>
      <trkpt lat="43.50057" lon="6.94798">
        <ele>201.19999694824</ele>
        <time>2013-12-29T08:50:53.000Z</time>
      </trkpt>
      <trkpt lat="43.50061" lon="6.94796">
        <ele>201.60000610352</ele>
        <time>2013-12-29T08:51:08.000Z</time>
      </trkpt>
      <trkpt lat="43.50062" lon="6.94791">
        <ele>201.80000305176</ele>
        <time>2013-12-29T08:51:19.000Z</time>
      </trkpt>
      <trkpt lat="43.50061" lon="6.94785">
        <ele>202</ele>
        <time>2013-12-29T08:51:26.000Z</time>
      </trkpt>
      <trkpt lat="43.50058" lon="6.94777">
        <ele>202.39999389648</ele>
        <time>2013-12-29T08:51:35.000Z</time>
      </trkpt>
      <trkpt lat="43.50056" lon="6.94771">
        <ele>202.80000305176</ele>
        <time>2013-12-29T08:51:42.000Z</time>
      </trkpt>
      <trkpt lat="43.50054" lon="6.94764">
        <ele>203.19999694824</ele>
        <time>2013-12-29T08:51:49.000Z</time>
      </trkpt>
      <trkpt lat="43.50052" lon="6.94757">
        <ele>203.80000305176</ele>
        <time>2013-12-29T08:51:56.000Z</time>
      </trkpt>
      <trkpt lat="43.50051" lon="6.94753">
        <ele>204.19999694824</ele>
        <time>2013-12-29T08:52:02.000Z</time>
      </trkpt>
      <trkpt lat="43.5005" lon="6.94746">
        <ele>205.19999694824</ele>
        <time>2013-12-29T08:52:09.000Z</time>
      </trkpt>
      <trkpt lat="43.50048" lon="6.94742">
        <ele>205.80000305176</ele>
        <time>2013-12-29T08:52:14.000Z</time>
      </trkpt>
      <trkpt lat="43.50043" lon="6.94736">
        <ele>207.39999389648</ele>
        <time>2013-12-29T08:52:23.000Z</time>
      </trkpt>
      <trkpt lat="43.5004" lon="6.94731">
        <ele>208.60000610352</ele>
        <time>2013-12-29T08:52:33.000Z</time>
      </trkpt>
      <trkpt lat="43.50038" lon="6.94728">
        <ele>209.39999389648</ele>
        <time>2013-12-29T08:52:38.000Z</time>
      </trkpt>
      <trkpt lat="43.50035" lon="6.94723">
        <ele>210.60000610352</ele>
        <time>2013-12-29T08:52:45.000Z</time>
      </trkpt>
      <trkpt lat="43.50033" lon="6.94717">
        <ele>212</ele>
        <time>2013-12-29T08:52:51.000Z</time>
      </trkpt>
      <trkpt lat="43.50032" lon="6.9471">
        <ele>213.39999389648</ele>
        <time>2013-12-29T08:52:59.000Z</time>
      </trkpt>
      <trkpt lat="43.50029" lon="6.94705">
        <ele>214.80000305176</ele>
        <time>2013-12-29T08:53:06.000Z</time>
      </trkpt>
      <trkpt lat="43.50026" lon="6.947">
        <ele>216.19999694824</ele>
        <time>2013-12-29T08:53:13.000Z</time>
      </trkpt>
      <trkpt lat="43.50023" lon="6.94694">
        <ele>218.19999694824</ele>
        <time>2013-12-29T08:53:21.000Z</time>
      </trkpt>
      <trkpt lat="43.50021" lon="6.94691">
        <ele>219.19999694824</ele>
        <time>2013-12-29T08:53:26.000Z</time>
      </trkpt>
      <trkpt lat="43.50019" lon="6.94686">
        <ele>220.80000305176</ele>
        <time>2013-12-29T08:53:32.000Z</time>
      </trkpt>
      <trkpt lat="43.50017" lon="6.9468">
        <ele>222.60000610352</ele>
        <time>2013-12-29T08:53:39.000Z</time>
      </trkpt>
      <trkpt lat="43.50015" lon="6.94672">
        <ele>224.39999389648</ele>
        <time>2013-12-29T08:53:49.000Z</time>
      </trkpt>
      <trkpt lat="43.50013" lon="6.94665">
        <ele>226.39999389648</ele>
        <time>2013-12-29T08:53:56.000Z</time>
      </trkpt>
      <trkpt lat="43.50011" lon="6.94659">
        <ele>227.80000305176</ele>
        <time>2013-12-29T08:54:02.000Z</time>
      </trkpt>
      <trkpt lat="43.50006" lon="6.94652">
        <ele>230.19999694824</ele>
        <time>2013-12-29T08:54:11.000Z</time>
      </trkpt>
      <trkpt lat="43.50004" lon="6.94648">
        <ele>231.60000610352</ele>
        <time>2013-12-29T08:54:17.000Z</time>
      </trkpt>
      <trkpt lat="43.50001" lon="6.94642">
        <ele>233.39999389648</ele>
        <time>2013-12-29T08:54:24.000Z</time>
      </trkpt>
      <trkpt lat="43.50001" lon="6.94636">
        <ele>234.39999389648</ele>
        <time>2013-12-29T08:54:30.000Z</time>
      </trkpt>
      <trkpt lat="43.50001" lon="6.94635">
        <ele>234.60000610352</ele>
        <time>2013-12-29T08:54:31.000Z</time>
      </trkpt>
      <trkpt lat="43.50001" lon="6.94633">
        <ele>235</ele>
        <time>2013-12-29T08:54:33.000Z</time>
      </trkpt>
      <trkpt lat="43.5" lon="6.94632">
        <ele>235.39999389648</ele>
        <time>2013-12-29T08:54:36.000Z</time>
      </trkpt>
      <trkpt lat="43.49998" lon="6.94627">
        <ele>236</ele>
        <time>2013-12-29T08:54:42.000Z</time>
      </trkpt>
      <trkpt lat="43.49997" lon="6.94619">
        <ele>237</ele>
        <time>2013-12-29T08:54:48.000Z</time>
      </trkpt>
      <trkpt lat="43.49994" lon="6.94615">
        <ele>237.19999694824</ele>
        <time>2013-12-29T08:54:53.000Z</time>
      </trkpt>
      <trkpt lat="43.49991" lon="6.94606">
        <ele>238.39999389648</ele>
        <time>2013-12-29T08:55:02.000Z</time>
      </trkpt>
      <trkpt lat="43.49989" lon="6.94599">
        <ele>239.19999694824</ele>
        <time>2013-12-29T08:55:08.000Z</time>
      </trkpt>
      <trkpt lat="43.49988" lon="6.94599">
        <ele>239.19999694824</ele>
        <time>2013-12-29T08:55:09.000Z</time>
      </trkpt>
      <trkpt lat="43.49986" lon="6.94598">
        <ele>239.19999694824</ele>
        <time>2013-12-29T08:55:14.000Z</time>
      </trkpt>
      <trkpt lat="43.4998" lon="6.94596">
        <ele>239</ele>
        <time>2013-12-29T08:55:21.000Z</time>
      </trkpt>
      <trkpt lat="43.49977" lon="6.94593">
        <ele>239.19999694824</ele>
        <time>2013-12-29T08:55:26.000Z</time>
      </trkpt>
      <trkpt lat="43.49976" lon="6.9459">
        <ele>239.80000305176</ele>
        <time>2013-12-29T08:55:29.000Z</time>
      </trkpt>
      <trkpt lat="43.49976" lon="6.94589">
        <ele>240</ele>
        <time>2013-12-29T08:55:30.000Z</time>
      </trkpt>
      <trkpt lat="43.49976" lon="6.94585">
        <ele>240.60000610352</ele>
        <time>2013-12-29T08:55:33.000Z</time>
      </trkpt>
      <trkpt lat="43.49976" lon="6.94585">
        <ele>240.80000305176</ele>
        <time>2013-12-29T08:55:34.000Z</time>
      </trkpt>
      <trkpt lat="43.49973" lon="6.9458">
        <ele>240.60000610352</ele>
        <time>2013-12-29T08:55:39.000Z</time>
      </trkpt>
      <trkpt lat="43.49973" lon="6.9458">
        <ele>240.60000610352</ele>
        <time>2013-12-29T08:55:40.000Z</time>
      </trkpt>
      <trkpt lat="43.4997" lon="6.94574">
        <ele>240.19999694824</ele>
        <time>2013-12-29T08:55:47.000Z</time>
      </trkpt>
      <trkpt lat="43.49964" lon="6.9457">
        <ele>239.60000610352</ele>
        <time>2013-12-29T08:55:55.000Z</time>
      </trkpt>
      <trkpt lat="43.49963" lon="6.94569">
        <ele>239.60000610352</ele>
        <time>2013-12-29T08:55:56.000Z</time>
      </trkpt>
      <trkpt lat="43.4996" lon="6.94567">
        <ele>239.39999389648</ele>
        <time>2013-12-29T08:56:00.000Z</time>
      </trkpt>
      <trkpt lat="43.49958" lon="6.94565">
        <ele>239.39999389648</ele>
        <time>2013-12-29T08:56:02.000Z</time>
      </trkpt>
      <trkpt lat="43.49956" lon="6.94563">
        <ele>239.39999389648</ele>
        <time>2013-12-29T08:56:11.000Z</time>
      </trkpt>
      <trkpt lat="43.49946" lon="6.94554">
        <ele>239.19999694824</ele>
        <time>2013-12-29T09:00:53.000Z</time>
      </trkpt>
      <trkpt lat="43.49947" lon="6.94551">
        <ele>239.19999694824</ele>
        <time>2013-12-29T09:00:54.000Z</time>
      </trkpt>
      <trkpt lat="43.49949" lon="6.94533">
        <ele>239.60000610352</ele>
        <time>2013-12-29T09:00:59.000Z</time>
      </trkpt>
      <trkpt lat="43.4994" lon="6.94528">
        <ele>240.19999694824</ele>
        <time>2013-12-29T09:01:02.000Z</time>
      </trkpt>
      <trkpt lat="43.49933" lon="6.94524">
        <ele>240.80000305176</ele>
        <time>2013-12-29T09:01:04.000Z</time>
      </trkpt>
      <trkpt lat="43.49926" lon="6.94519">
        <ele>241.39999389648</ele>
        <time>2013-12-29T09:01:06.000Z</time>
      </trkpt>
      <trkpt lat="43.49918" lon="6.94505">
        <ele>243.39999389648</ele>
        <time>2013-12-29T09:01:10.000Z</time>
      </trkpt>
      <trkpt lat="43.49905" lon="6.94489">
        <ele>238.60000610352</ele>
        <time>2013-12-29T09:01:14.000Z</time>
      </trkpt>
      <trkpt lat="43.49901" lon="6.94482">
        <ele>236.80000305176</ele>
        <time>2013-12-29T09:01:16.000Z</time>
      </trkpt>
      <trkpt lat="43.49898" lon="6.94475">
        <ele>235.39999389648</ele>
        <time>2013-12-29T09:01:18.000Z</time>
      </trkpt>
      <trkpt lat="43.49897" lon="6.94465">
        <ele>234.39999389648</ele>
        <time>2013-12-29T09:01:20.000Z</time>
      </trkpt>
      <trkpt lat="43.49895" lon="6.94462">
        <ele>233.39999389648</ele>
        <time>2013-12-29T09:01:21.000Z</time>
      </trkpt>
      <trkpt lat="43.4989" lon="6.94456">
        <ele>231.60000610352</ele>
        <time>2013-12-29T09:01:23.000Z</time>
      </trkpt>
      <trkpt lat="43.49884" lon="6.94445">
        <ele>229.60000610352</ele>
        <time>2013-12-29T09:01:26.000Z</time>
      </trkpt>
      <trkpt lat="43.49882" lon="6.94441">
        <ele>228.80000305176</ele>
        <time>2013-12-29T09:01:27.000Z</time>
      </trkpt>
      <trkpt lat="43.49881" lon="6.94429">
        <ele>228.19999694824</ele>
        <time>2013-12-29T09:01:31.000Z</time>
      </trkpt>
      <trkpt lat="43.49883" lon="6.94412">
        <ele>227.60000610352</ele>
        <time>2013-12-29T09:01:36.000Z</time>
      </trkpt>
      <trkpt lat="43.49884" lon="6.94408">
        <ele>227.39999389648</ele>
        <time>2013-12-29T09:01:37.000Z</time>
      </trkpt>
      <trkpt lat="43.49887" lon="6.94397">
        <ele>226.80000305176</ele>
        <time>2013-12-29T09:01:39.000Z</time>
      </trkpt>
      <trkpt lat="43.49889" lon="6.94377">
        <ele>224.80000305176</ele>
        <time>2013-12-29T09:01:42.000Z</time>
      </trkpt>
      <trkpt lat="43.49888" lon="6.94373">
        <ele>224.39999389648</ele>
        <time>2013-12-29T09:01:43.000Z</time>
      </trkpt>
      <trkpt lat="43.49887" lon="6.94369">
        <ele>223.60000610352</ele>
        <time>2013-12-29T09:01:44.000Z</time>
      </trkpt>
      <trkpt lat="43.49883" lon="6.94361">
        <ele>222.39999389648</ele>
        <time>2013-12-29T09:01:46.000Z</time>
      </trkpt>
      <trkpt lat="43.49882" lon="6.94353">
        <ele>221.19999694824</ele>
        <time>2013-12-29T09:01:48.000Z</time>
      </trkpt>
      <trkpt lat="43.49881" lon="6.94337">
        <ele>219.60000610352</ele>
        <time>2013-12-29T09:01:52.000Z</time>
      </trkpt>
      <trkpt lat="43.49879" lon="6.9432">
        <ele>216.60000610352</ele>
        <time>2013-12-29T09:01:57.000Z</time>
      </trkpt>
      <trkpt lat="43.49871" lon="6.94317">
        <ele>215.19999694824</ele>
        <time>2013-12-29T09:02:01.000Z</time>
      </trkpt>
      <trkpt lat="43.49868" lon="6.94317">
        <ele>215</ele>
        <time>2013-12-29T09:02:02.000Z</time>
      </trkpt>
      <trkpt lat="43.49856" lon="6.94317">
        <ele>213.80000305176</ele>
        <time>2013-12-29T09:02:06.000Z</time>
      </trkpt>
      <trkpt lat="43.49852" lon="6.94313">
        <ele>213</ele>
        <time>2013-12-29T09:02:08.000Z</time>
      </trkpt>
      <trkpt lat="43.49848" lon="6.9431">
        <ele>212.19999694824</ele>
        <time>2013-12-29T09:02:10.000Z</time>
      </trkpt>
      <trkpt lat="43.49841" lon="6.94304">
        <ele>210.80000305176</ele>
        <time>2013-12-29T09:02:14.000Z</time>
      </trkpt>
      <trkpt lat="43.49845" lon="6.94293">
        <ele>209.60000610352</ele>
        <time>2013-12-29T09:02:17.000Z</time>
      </trkpt>
      <trkpt lat="43.49843" lon="6.94286">
        <ele>208.39999389648</ele>
        <time>2013-12-29T09:02:20.000Z</time>
      </trkpt>
      <trkpt lat="43.49835" lon="6.94287">
        <ele>208</ele>
        <time>2013-12-29T09:02:24.000Z</time>
      </trkpt>
      <trkpt lat="43.49826" lon="6.9429">
        <ele>206.80000305176</ele>
        <time>2013-12-29T09:02:28.000Z</time>
      </trkpt>
      <trkpt lat="43.49818" lon="6.94295">
        <ele>205.80000305176</ele>
        <time>2013-12-29T09:02:31.000Z</time>
      </trkpt>
      <trkpt lat="43.49808" lon="6.94289">
        <ele>203.19999694824</ele>
        <time>2013-12-29T09:02:34.000Z</time>
      </trkpt>
      <trkpt lat="43.49796" lon="6.9429">
        <ele>201.19999694824</ele>
        <time>2013-12-29T09:02:37.000Z</time>
      </trkpt>
      <trkpt lat="43.49786" lon="6.94286">
        <ele>199</ele>
        <time>2013-12-29T09:02:39.000Z</time>
      </trkpt>
      <trkpt lat="43.49779" lon="6.94284">
        <ele>197.80000305176</ele>
        <time>2013-12-29T09:02:40.000Z</time>
      </trkpt>
      <trkpt lat="43.49774" lon="6.94281">
        <ele>196.80000305176</ele>
        <time>2013-12-29T09:02:41.000Z</time>
      </trkpt>
      <trkpt lat="43.49764" lon="6.94265">
        <ele>195.19999694824</ele>
        <time>2013-12-29T09:02:44.000Z</time>
      </trkpt>
      <trkpt lat="43.49765" lon="6.94253">
        <ele>195.60000610352</ele>
        <time>2013-12-29T09:02:47.000Z</time>
      </trkpt>
      <trkpt lat="43.49757" lon="6.94246">
        <ele>194</ele>
        <time>2013-12-29T09:02:49.000Z</time>
      </trkpt>
      <trkpt lat="43.49754" lon="6.94241">
        <ele>193</ele>
        <time>2013-12-29T09:02:50.000Z</time>
      </trkpt>
      <trkpt lat="43.49736" lon="6.94219">
        <ele>186.60000610352</ele>
        <time>2013-12-29T09:02:54.000Z</time>
      </trkpt>
      <trkpt lat="43.49734" lon="6.94224">
        <ele>186.80000305176</ele>
        <time>2013-12-29T09:02:57.000Z</time>
      </trkpt>
      <trkpt lat="43.49744" lon="6.94227">
        <ele>189.19999694824</ele>
        <time>2013-12-29T09:03:00.000Z</time>
      </trkpt>
      <trkpt lat="43.4976" lon="6.94233">
        <ele>192.39999389648</ele>
        <time>2013-12-29T09:03:04.000Z</time>
      </trkpt>
      <trkpt lat="43.49763" lon="6.94247">
        <ele>195</ele>
        <time>2013-12-29T09:03:07.000Z</time>
      </trkpt>
      <trkpt lat="43.49765" lon="6.94256">
        <ele>195.60000610352</ele>
        <time>2013-12-29T09:03:09.000Z</time>
      </trkpt>
      <trkpt lat="43.49767" lon="6.94259">
        <ele>195.80000305176</ele>
        <time>2013-12-29T09:03:10.000Z</time>
      </trkpt>
      <trkpt lat="43.49767" lon="6.94264">
        <ele>195.60000610352</ele>
        <time>2013-12-29T09:03:12.000Z</time>
      </trkpt>
      <trkpt lat="43.49763" lon="6.94272">
        <ele>195</ele>
        <time>2013-12-29T09:03:15.000Z</time>
      </trkpt>
      <trkpt lat="43.49764" lon="6.94274">
        <ele>195.19999694824</ele>
        <time>2013-12-29T09:03:18.000Z</time>
      </trkpt>
      <trkpt lat="43.49764" lon="6.94274">
        <ele>195.19999694824</ele>
        <time>2013-12-29T09:03:19.000Z</time>
      </trkpt>
      <trkpt lat="43.4976" lon="6.94278">
        <ele>194.19999694824</ele>
        <time>2013-12-29T09:04:13.000Z</time>
      </trkpt>
      <trkpt lat="43.49758" lon="6.9428">
        <ele>194</ele>
        <time>2013-12-29T09:04:27.000Z</time>
      </trkpt>
      <trkpt lat="43.49758" lon="6.94276">
        <ele>194.19999694824</ele>
        <time>2013-12-29T09:04:31.000Z</time>
      </trkpt>
      <trkpt lat="43.49759" lon="6.94276">
        <ele>194.19999694824</ele>
        <time>2013-12-29T09:04:36.000Z</time>
      </trkpt>
      <trkpt lat="43.49758" lon="6.94274">
        <ele>194.19999694824</ele>
        <time>2013-12-29T09:05:37.000Z</time>
      </trkpt>
      <trkpt lat="43.49756" lon="6.9427">
        <ele>194</ele>
        <time>2013-12-29T09:05:39.000Z</time>
      </trkpt>
      <trkpt lat="43.49753" lon="6.94268">
        <ele>193.60000610352</ele>
        <time>2013-12-29T09:05:41.000Z</time>
      </trkpt>
      <trkpt lat="43.49752" lon="6.94271">
        <ele>193.19999694824</ele>
        <time>2013-12-29T09:05:45.000Z</time>
      </trkpt>
      <trkpt lat="43.49745" lon="6.94276">
        <ele>191.39999389648</ele>
        <time>2013-12-29T09:05:52.000Z</time>
      </trkpt>
      <trkpt lat="43.49744" lon="6.94279">
        <ele>191.19999694824</ele>
        <time>2013-12-29T09:05:53.000Z</time>
      </trkpt>
      <trkpt lat="43.49744" lon="6.94285">
        <ele>190.60000610352</ele>
        <time>2013-12-29T09:05:56.000Z</time>
      </trkpt>
      <trkpt lat="43.49748" lon="6.94298">
        <ele>191.19999694824</ele>
        <time>2013-12-29T09:06:00.000Z</time>
      </trkpt>
      <trkpt lat="43.49745" lon="6.94301">
        <ele>190.19999694824</ele>
        <time>2013-12-29T09:06:03.000Z</time>
      </trkpt>
      <trkpt lat="43.49734" lon="6.9429">
        <ele>188</ele>
        <time>2013-12-29T09:06:08.000Z</time>
      </trkpt>
      <trkpt lat="43.49725" lon="6.94285">
        <ele>186</ele>
        <time>2013-12-29T09:06:12.000Z</time>
      </trkpt>
      <trkpt lat="43.49715" lon="6.94282">
        <ele>183.60000610352</ele>
        <time>2013-12-29T09:06:16.000Z</time>
      </trkpt>
      <trkpt lat="43.4971" lon="6.94278">
        <ele>182.80000305176</ele>
        <time>2013-12-29T09:06:18.000Z</time>
      </trkpt>
      <trkpt lat="43.49709" lon="6.94271">
        <ele>183</ele>
        <time>2013-12-29T09:06:20.000Z</time>
      </trkpt>
      <trkpt lat="43.49711" lon="6.94259">
        <ele>184.80000305176</ele>
        <time>2013-12-29T09:06:24.000Z</time>
      </trkpt>
      <trkpt lat="43.49707" lon="6.94253">
        <ele>184.39999389648</ele>
        <time>2013-12-29T09:06:27.000Z</time>
      </trkpt>
      <trkpt lat="43.49706" lon="6.94249">
        <ele>184.39999389648</ele>
        <time>2013-12-29T09:06:28.000Z</time>
      </trkpt>
      <trkpt lat="43.49703" lon="6.94227">
        <ele>181</ele>
        <time>2013-12-29T09:06:33.000Z</time>
      </trkpt>
      <trkpt lat="43.49706" lon="6.94222">
        <ele>181</ele>
        <time>2013-12-29T09:06:36.000Z</time>
      </trkpt>
      <trkpt lat="43.49709" lon="6.94223">
        <ele>181.80000305176</ele>
        <time>2013-12-29T09:06:38.000Z</time>
      </trkpt>
      <trkpt lat="43.49712" lon="6.94223">
        <ele>182.19999694824</ele>
        <time>2013-12-29T09:06:40.000Z</time>
      </trkpt>
      <trkpt lat="43.49723" lon="6.94217">
        <ele>183.60000610352</ele>
        <time>2013-12-29T09:06:45.000Z</time>
      </trkpt>
      <trkpt lat="43.49733" lon="6.9422">
        <ele>185.80000305176</ele>
        <time>2013-12-29T09:06:49.000Z</time>
      </trkpt>
      <trkpt lat="43.49747" lon="6.94226">
        <ele>189.60000610352</ele>
        <time>2013-12-29T09:06:54.000Z</time>
      </trkpt>
      <trkpt lat="43.49762" lon="6.94245">
        <ele>194.60000610352</ele>
        <time>2013-12-29T09:07:01.000Z</time>
      </trkpt>
      <trkpt lat="43.49762" lon="6.94265">
        <ele>195</ele>
        <time>2013-12-29T09:07:07.000Z</time>
      </trkpt>
      <trkpt lat="43.49759" lon="6.94278">
        <ele>194.19999694824</ele>
        <time>2013-12-29T09:07:13.000Z</time>
      </trkpt>
      <trkpt lat="43.49759" lon="6.94281">
        <ele>194.19999694824</ele>
        <time>2013-12-29T09:07:15.000Z</time>
      </trkpt>
      <trkpt lat="43.49761" lon="6.94279">
        <ele>194.39999389648</ele>
        <time>2013-12-29T09:07:18.000Z</time>
      </trkpt>
      <trkpt lat="43.49761" lon="6.94279">
        <ele>194.39999389648</ele>
        <time>2013-12-29T09:07:19.000Z</time>
      </trkpt>
      <trkpt lat="43.4976" lon="6.94279">
        <ele>194.39999389648</ele>
        <time>2013-12-29T09:07:25.000Z</time>
      </trkpt>
      <trkpt lat="43.4976" lon="6.94272">
        <ele>194.39999389648</ele>
        <time>2013-12-29T09:07:30.000Z</time>
      </trkpt>
      <trkpt lat="43.4976" lon="6.94272">
        <ele>194.60000610352</ele>
        <time>2013-12-29T09:07:31.000Z</time>
      </trkpt>
      <trkpt lat="43.49761" lon="6.94274">
        <ele>194.60000610352</ele>
        <time>2013-12-29T09:07:40.000Z</time>
      </trkpt>
      <trkpt lat="43.49765" lon="6.94264">
        <ele>195.39999389648</ele>
        <time>2013-12-29T09:09:05.000Z</time>
      </trkpt>
      <trkpt lat="43.49757" lon="6.94244">
        <ele>193.80000305176</ele>
        <time>2013-12-29T09:09:08.000Z</time>
      </trkpt>
      <trkpt lat="43.49739" lon="6.94223">
        <ele>187.60000610352</ele>
        <time>2013-12-29T09:09:12.000Z</time>
      </trkpt>
      <trkpt lat="43.49734" lon="6.94226">
        <ele>187.19999694824</ele>
        <time>2013-12-29T09:09:15.000Z</time>
      </trkpt>
      <trkpt lat="43.49737" lon="6.94228">
        <ele>188</ele>
        <time>2013-12-29T09:09:19.000Z</time>
      </trkpt>
      <trkpt lat="43.49735" lon="6.94222">
        <ele>186.60000610352</ele>
        <time>2013-12-29T09:09:23.000Z</time>
      </trkpt>
      <trkpt lat="43.49722" lon="6.94215">
        <ele>183.19999694824</ele>
        <time>2013-12-29T09:09:28.000Z</time>
      </trkpt>
      <trkpt lat="43.49707" lon="6.94218">
        <ele>180.80000305176</ele>
        <time>2013-12-29T09:09:31.000Z</time>
      </trkpt>
      <trkpt lat="43.49692" lon="6.94223">
        <ele>178.39999389648</ele>
        <time>2013-12-29T09:09:35.000Z</time>
      </trkpt>
      <trkpt lat="43.49684" lon="6.94224">
        <ele>177</ele>
        <time>2013-12-29T09:09:39.000Z</time>
      </trkpt>
      <trkpt lat="43.49677" lon="6.94236">
        <ele>176.80000305176</ele>
        <time>2013-12-29T09:09:43.000Z</time>
      </trkpt>
      <trkpt lat="43.4967" lon="6.94245">
        <ele>176.19999694824</ele>
        <time>2013-12-29T09:09:47.000Z</time>
      </trkpt>
      <trkpt lat="43.49658" lon="6.94243">
        <ele>173.60000610352</ele>
        <time>2013-12-29T09:09:50.000Z</time>
      </trkpt>
      <trkpt lat="43.49653" lon="6.94242">
        <ele>172.80000305176</ele>
        <time>2013-12-29T09:09:51.000Z</time>
      </trkpt>
      <trkpt lat="43.49638" lon="6.94247">
        <ele>170.60000610352</ele>
        <time>2013-12-29T09:09:54.000Z</time>
      </trkpt>
      <trkpt lat="43.49618" lon="6.9426">
        <ele>166.19999694824</ele>
        <time>2013-12-29T09:09:59.000Z</time>
      </trkpt>
      <trkpt lat="43.4961" lon="6.94273">
        <ele>163.60000610352</ele>
        <time>2013-12-29T09:10:03.000Z</time>
      </trkpt>
      <trkpt lat="43.49605" lon="6.9428">
        <ele>162.19999694824</ele>
        <time>2013-12-29T09:10:05.000Z</time>
      </trkpt>
      <trkpt lat="43.496" lon="6.9428">
        <ele>161.39999389648</ele>
        <time>2013-12-29T09:10:07.000Z</time>
      </trkpt>
      <trkpt lat="43.49585" lon="6.94283">
        <ele>158.80000305176</ele>
        <time>2013-12-29T09:10:12.000Z</time>
      </trkpt>
      <trkpt lat="43.49579" lon="6.94283">
        <ele>158.39999389648</ele>
        <time>2013-12-29T09:10:15.000Z</time>
      </trkpt>
      <trkpt lat="43.49569" lon="6.94288">
        <ele>157.39999389648</ele>
        <time>2013-12-29T09:10:19.000Z</time>
      </trkpt>
      <trkpt lat="43.49561" lon="6.94279">
        <ele>157.60000610352</ele>
        <time>2013-12-29T09:10:22.000Z</time>
      </trkpt>
      <trkpt lat="43.49554" lon="6.94265">
        <ele>158.39999389648</ele>
        <time>2013-12-29T09:10:27.000Z</time>
      </trkpt>
      <trkpt lat="43.49548" lon="6.94249">
        <ele>159.19999694824</ele>
        <time>2013-12-29T09:10:32.000Z</time>
      </trkpt>
      <trkpt lat="43.49546" lon="6.94247">
        <ele>158.80000305176</ele>
        <time>2013-12-29T09:10:33.000Z</time>
      </trkpt>
      <trkpt lat="43.49538" lon="6.94246">
        <ele>158.19999694824</ele>
        <time>2013-12-29T09:10:36.000Z</time>
      </trkpt>
      <trkpt lat="43.49535" lon="6.94246">
        <ele>158.19999694824</ele>
        <time>2013-12-29T09:10:37.000Z</time>
      </trkpt>
      <trkpt lat="43.49522" lon="6.94249">
        <ele>158</ele>
        <time>2013-12-29T09:10:42.000Z</time>
      </trkpt>
      <trkpt lat="43.49495" lon="6.94255">
        <ele>156.39999389648</ele>
        <time>2013-12-29T09:10:51.000Z</time>
      </trkpt>
      <trkpt lat="43.49473" lon="6.94254">
        <ele>156.19999694824</ele>
        <time>2013-12-29T09:10:58.000Z</time>
      </trkpt>
      <trkpt lat="43.49452" lon="6.94255">
        <ele>155.60000610352</ele>
        <time>2013-12-29T09:11:03.000Z</time>
      </trkpt>
      <trkpt lat="43.49448" lon="6.94252">
        <ele>156</ele>
        <time>2013-12-29T09:11:04.000Z</time>
      </trkpt>
      <trkpt lat="43.49445" lon="6.94246">
        <ele>156</ele>
        <time>2013-12-29T09:11:06.000Z</time>
      </trkpt>
      <trkpt lat="43.49439" lon="6.94241">
        <ele>155.39999389648</ele>
        <time>2013-12-29T09:11:10.000Z</time>
      </trkpt>
      <trkpt lat="43.49433" lon="6.94244">
        <ele>155.80000305176</ele>
        <time>2013-12-29T09:11:14.000Z</time>
      </trkpt>
      <trkpt lat="43.49426" lon="6.94244">
        <ele>155.60000610352</ele>
        <time>2013-12-29T09:11:18.000Z</time>
      </trkpt>
      <trkpt lat="43.49419" lon="6.94249">
        <ele>156</ele>
        <time>2013-12-29T09:11:22.000Z</time>
      </trkpt>
      <trkpt lat="43.49417" lon="6.94251">
        <ele>155.80000305176</ele>
        <time>2013-12-29T09:11:23.000Z</time>
      </trkpt>
      <trkpt lat="43.49411" lon="6.94256">
        <ele>155</ele>
        <time>2013-12-29T09:11:28.000Z</time>
      </trkpt>
      <trkpt lat="43.49409" lon="6.94257">
        <ele>155</ele>
        <time>2013-12-29T09:11:30.000Z</time>
      </trkpt>
      <trkpt lat="43.49408" lon="6.94255">
        <ele>155.39999389648</ele>
        <time>2013-12-29T09:11:34.000Z</time>
      </trkpt>
      <trkpt lat="43.49405" lon="6.94259">
        <ele>154.80000305176</ele>
        <time>2013-12-29T09:12:30.000Z</time>
      </trkpt>
      <trkpt lat="43.49396" lon="6.94269">
        <ele>153.19999694824</ele>
        <time>2013-12-29T09:12:34.000Z</time>
      </trkpt>
      <trkpt lat="43.49385" lon="6.94279">
        <ele>151.60000610352</ele>
        <time>2013-12-29T09:12:38.000Z</time>
      </trkpt>
      <trkpt lat="43.49372" lon="6.94293">
        <ele>149.39999389648</ele>
        <time>2013-12-29T09:12:42.000Z</time>
      </trkpt>
      <trkpt lat="43.49371" lon="6.94296">
        <ele>148.80000305176</ele>
        <time>2013-12-29T09:12:43.000Z</time>
      </trkpt>
      <trkpt lat="43.49367" lon="6.94303">
        <ele>147.60000610352</ele>
        <time>2013-12-29T09:12:45.000Z</time>
      </trkpt>
      <trkpt lat="43.49368" lon="6.94308">
        <ele>146.60000610352</ele>
        <time>2013-12-29T09:12:48.000Z</time>
      </trkpt>
      <trkpt lat="43.49365" lon="6.94317">
        <ele>145</ele>
        <time>2013-12-29T09:12:51.000Z</time>
      </trkpt>
      <trkpt lat="43.49364" lon="6.94321">
        <ele>144.19999694824</ele>
        <time>2013-12-29T09:12:52.000Z</time>
      </trkpt>
      <trkpt lat="43.49364" lon="6.94327">
        <ele>143.19999694824</ele>
        <time>2013-12-29T09:12:55.000Z</time>
      </trkpt>
      <trkpt lat="43.49361" lon="6.94339">
        <ele>140.19999694824</ele>
        <time>2013-12-29T09:12:59.000Z</time>
      </trkpt>
      <trkpt lat="43.49353" lon="6.94354">
        <ele>135.19999694824</ele>
        <time>2013-12-29T09:13:03.000Z</time>
      </trkpt>
      <trkpt lat="43.49349" lon="6.94367">
        <ele>131</ele>
        <time>2013-12-29T09:13:07.000Z</time>
      </trkpt>
      <trkpt lat="43.49343" lon="6.94377">
        <ele>128</ele>
        <time>2013-12-29T09:13:11.000Z</time>
      </trkpt>
      <trkpt lat="43.4934" lon="6.94385">
        <ele>125.59999847412</ele>
        <time>2013-12-29T09:13:15.000Z</time>
      </trkpt>
      <trkpt lat="43.49341" lon="6.94386">
        <ele>125</ele>
        <time>2013-12-29T09:13:16.000Z</time>
      </trkpt>
      <trkpt lat="43.49335" lon="6.94394">
        <ele>123</ele>
        <time>2013-12-29T09:13:20.000Z</time>
      </trkpt>
      <trkpt lat="43.49321" lon="6.94399">
        <ele>118.80000305176</ele>
        <time>2013-12-29T09:13:25.000Z</time>
      </trkpt>
      <trkpt lat="43.49313" lon="6.94399">
        <ele>116.80000305176</ele>
        <time>2013-12-29T09:13:27.000Z</time>
      </trkpt>
      <trkpt lat="43.49303" lon="6.94402">
        <ele>114</ele>
        <time>2013-12-29T09:13:30.000Z</time>
      </trkpt>
      <trkpt lat="43.49291" lon="6.94403">
        <ele>111</ele>
        <time>2013-12-29T09:13:35.000Z</time>
      </trkpt>
      <trkpt lat="43.49288" lon="6.94411">
        <ele>108.59999847412</ele>
        <time>2013-12-29T09:13:39.000Z</time>
      </trkpt>
      <trkpt lat="43.49284" lon="6.9441">
        <ele>108.19999694824</ele>
        <time>2013-12-29T09:13:42.000Z</time>
      </trkpt>
      <trkpt lat="43.4928" lon="6.94407">
        <ele>107.80000305176</ele>
        <time>2013-12-29T09:13:47.000Z</time>
      </trkpt>
      <trkpt lat="43.49275" lon="6.94406">
        <ele>107</ele>
        <time>2013-12-29T09:15:14.000Z</time>
      </trkpt>
      <trkpt lat="43.49274" lon="6.94401">
        <ele>108</ele>
        <time>2013-12-29T09:16:25.000Z</time>
      </trkpt>
      <trkpt lat="43.49273" lon="6.944">
        <ele>108</ele>
        <time>2013-12-29T09:16:26.000Z</time>
      </trkpt>
      <trkpt lat="43.49273" lon="6.94397">
        <ele>108.40000152588</ele>
        <time>2013-12-29T09:16:31.000Z</time>
      </trkpt>
      <trkpt lat="43.49271" lon="6.94396">
        <ele>108.19999694824</ele>
        <time>2013-12-29T09:16:32.000Z</time>
      </trkpt>
      <trkpt lat="43.49266" lon="6.94389">
        <ele>108.40000152588</ele>
        <time>2013-12-29T09:16:35.000Z</time>
      </trkpt>
      <trkpt lat="43.49257" lon="6.94386">
        <ele>106.80000305176</ele>
        <time>2013-12-29T09:16:39.000Z</time>
      </trkpt>
      <trkpt lat="43.49252" lon="6.94385">
        <ele>106</ele>
        <time>2013-12-29T09:16:41.000Z</time>
      </trkpt>
      <trkpt lat="43.49242" lon="6.94384">
        <ele>102.80000305176</ele>
        <time>2013-12-29T09:16:45.000Z</time>
      </trkpt>
      <trkpt lat="43.49236" lon="6.94382">
        <ele>101</ele>
        <time>2013-12-29T09:16:48.000Z</time>
      </trkpt>
      <trkpt lat="43.49237" lon="6.9438">
        <ele>101.40000152588</ele>
        <time>2013-12-29T09:16:49.000Z</time>
      </trkpt>
      <trkpt lat="43.49237" lon="6.94379">
        <ele>101.80000305176</ele>
        <time>2013-12-29T09:16:54.000Z</time>
      </trkpt>
      <trkpt lat="43.49236" lon="6.94368">
        <ele>103.19999694824</ele>
        <time>2013-12-29T09:17:25.000Z</time>
      </trkpt>
      <trkpt lat="43.49234" lon="6.94348">
        <ele>106</ele>
        <time>2013-12-29T09:17:32.000Z</time>
      </trkpt>
      <trkpt lat="43.49232" lon="6.94336">
        <ele>107.19999694824</ele>
        <time>2013-12-29T09:17:37.000Z</time>
      </trkpt>
      <trkpt lat="43.49231" lon="6.94335">
        <ele>107</ele>
        <time>2013-12-29T09:17:38.000Z</time>
      </trkpt>
      <trkpt lat="43.49225" lon="6.94332">
        <ele>105.80000305176</ele>
        <time>2013-12-29T09:17:41.000Z</time>
      </trkpt>
      <trkpt lat="43.49218" lon="6.94327">
        <ele>104.40000152588</ele>
        <time>2013-12-29T09:17:44.000Z</time>
      </trkpt>
      <trkpt lat="43.49198" lon="6.94311">
        <ele>102.19999694824</ele>
        <time>2013-12-29T09:17:50.000Z</time>
      </trkpt>
      <trkpt lat="43.49188" lon="6.943">
        <ele>101.80000305176</ele>
        <time>2013-12-29T09:17:55.000Z</time>
      </trkpt>
      <trkpt lat="43.4918" lon="6.94282">
        <ele>104.40000152588</ele>
        <time>2013-12-29T09:18:01.000Z</time>
      </trkpt>
      <trkpt lat="43.49174" lon="6.94271">
        <ele>105.40000152588</ele>
        <time>2013-12-29T09:18:06.000Z</time>
      </trkpt>
      <trkpt lat="43.49163" lon="6.94264">
        <ele>104.40000152588</ele>
        <time>2013-12-29T09:18:11.000Z</time>
      </trkpt>
      <trkpt lat="43.49146" lon="6.94261">
        <ele>102.59999847412</ele>
        <time>2013-12-29T09:18:17.000Z</time>
      </trkpt>
      <trkpt lat="43.4913" lon="6.94259">
        <ele>100.80000305176</ele>
        <time>2013-12-29T09:18:22.000Z</time>
      </trkpt>
      <trkpt lat="43.49112" lon="6.94252">
        <ele>99.800003051758</ele>
        <time>2013-12-29T09:18:27.000Z</time>
      </trkpt>
      <trkpt lat="43.49096" lon="6.94236">
        <ele>100.80000305176</ele>
        <time>2013-12-29T09:18:32.000Z</time>
      </trkpt>
      <trkpt lat="43.49086" lon="6.94219">
        <ele>102.19999694824</ele>
        <time>2013-12-29T09:18:38.000Z</time>
      </trkpt>
      <trkpt lat="43.49075" lon="6.94201">
        <ele>104.80000305176</ele>
        <time>2013-12-29T09:18:44.000Z</time>
      </trkpt>
      <trkpt lat="43.49073" lon="6.94199">
        <ele>105.40000152588</ele>
        <time>2013-12-29T09:18:48.000Z</time>
      </trkpt>
      <trkpt lat="43.49069" lon="6.94194">
        <ele>106.19999694824</ele>
        <time>2013-12-29T09:18:53.000Z</time>
      </trkpt>
      <trkpt lat="43.49061" lon="6.94179">
        <ele>108.59999847412</ele>
        <time>2013-12-29T09:18:57.000Z</time>
      </trkpt>
      <trkpt lat="43.49058" lon="6.94166">
        <ele>110.59999847412</ele>
        <time>2013-12-29T09:19:02.000Z</time>
      </trkpt>
      <trkpt lat="43.49057" lon="6.94153">
        <ele>110.40000152588</ele>
        <time>2013-12-29T09:19:08.000Z</time>
      </trkpt>
      <trkpt lat="43.49058" lon="6.94151">
        <ele>110.40000152588</ele>
        <time>2013-12-29T09:19:09.000Z</time>
      </trkpt>
      <trkpt lat="43.49063" lon="6.94141">
        <ele>110.40000152588</ele>
        <time>2013-12-29T09:19:16.000Z</time>
      </trkpt>
      <trkpt lat="43.49063" lon="6.94141">
        <ele>110.40000152588</ele>
        <time>2013-12-29T09:19:22.000Z</time>
      </trkpt>
      <trkpt lat="43.49065" lon="6.94135">
        <ele>110.40000152588</ele>
        <time>2013-12-29T09:19:31.000Z</time>
      </trkpt>
      <trkpt lat="43.49066" lon="6.94133">
        <ele>110.40000152588</ele>
        <time>2013-12-29T09:19:32.000Z</time>
      </trkpt>
      <trkpt lat="43.49071" lon="6.94123">
        <ele>110.40000152588</ele>
        <time>2013-12-29T09:19:36.000Z</time>
      </trkpt>
      <trkpt lat="43.49074" lon="6.94117">
        <ele>110.59999847412</ele>
        <time>2013-12-29T09:19:38.000Z</time>
      </trkpt>
      <trkpt lat="43.49086" lon="6.9409">
        <ele>112</ele>
        <time>2013-12-29T09:19:47.000Z</time>
      </trkpt>
      <trkpt lat="43.49094" lon="6.94064">
        <ele>114.59999847412</ele>
        <time>2013-12-29T09:19:55.000Z</time>
      </trkpt>
      <trkpt lat="43.49097" lon="6.94042">
        <ele>114.40000152588</ele>
        <time>2013-12-29T09:20:01.000Z</time>
      </trkpt>
      <trkpt lat="43.49099" lon="6.9402">
        <ele>114.19999694824</ele>
        <time>2013-12-29T09:20:07.000Z</time>
      </trkpt>
      <trkpt lat="43.49104" lon="6.93985">
        <ele>114.40000152588</ele>
        <time>2013-12-29T09:20:16.000Z</time>
      </trkpt>
      <trkpt lat="43.4911" lon="6.93953">
        <ele>114.40000152588</ele>
        <time>2013-12-29T09:20:24.000Z</time>
      </trkpt>
      <trkpt lat="43.49112" lon="6.93922">
        <ele>113</ele>
        <time>2013-12-29T09:20:32.000Z</time>
      </trkpt>
      <trkpt lat="43.49118" lon="6.93886">
        <ele>112</ele>
        <time>2013-12-29T09:20:40.000Z</time>
      </trkpt>
      <trkpt lat="43.49128" lon="6.93868">
        <ele>114.19999694824</ele>
        <time>2013-12-29T09:20:45.000Z</time>
      </trkpt>
      <trkpt lat="43.49139" lon="6.93859">
        <ele>117.40000152588</ele>
        <time>2013-12-29T09:20:50.000Z</time>
      </trkpt>
      <trkpt lat="43.49149" lon="6.93841">
        <ele>119.19999694824</ele>
        <time>2013-12-29T09:20:57.000Z</time>
      </trkpt>
      <trkpt lat="43.49156" lon="6.93823">
        <ele>120.80000305176</ele>
        <time>2013-12-29T09:21:03.000Z</time>
      </trkpt>
      <trkpt lat="43.49163" lon="6.93801">
        <ele>122.59999847412</ele>
        <time>2013-12-29T09:21:10.000Z</time>
      </trkpt>
      <trkpt lat="43.49163" lon="6.93774">
        <ele>122.19999694824</ele>
        <time>2013-12-29T09:21:18.000Z</time>
      </trkpt>
      <trkpt lat="43.49155" lon="6.93758">
        <ele>118.80000305176</ele>
        <time>2013-12-29T09:21:23.000Z</time>
      </trkpt>
      <trkpt lat="43.49143" lon="6.93732">
        <ele>114</ele>
        <time>2013-12-29T09:21:31.000Z</time>
      </trkpt>
      <trkpt lat="43.49144" lon="6.9371">
        <ele>114.59999847412</ele>
        <time>2013-12-29T09:21:37.000Z</time>
      </trkpt>
      <trkpt lat="43.49152" lon="6.93681">
        <ele>118</ele>
        <time>2013-12-29T09:21:45.000Z</time>
      </trkpt>
      <trkpt lat="43.49157" lon="6.93657">
        <ele>119.19999694824</ele>
        <time>2013-12-29T09:21:52.000Z</time>
      </trkpt>
      <trkpt lat="43.49167" lon="6.93634">
        <ele>120.19999694824</ele>
        <time>2013-12-29T09:21:59.000Z</time>
      </trkpt>
      <trkpt lat="43.49179" lon="6.9362">
        <ele>123.40000152588</ele>
        <time>2013-12-29T09:22:05.000Z</time>
      </trkpt>
      <trkpt lat="43.49191" lon="6.93604">
        <ele>126.19999694824</ele>
        <time>2013-12-29T09:22:11.000Z</time>
      </trkpt>
      <trkpt lat="43.49205" lon="6.93591">
        <ele>130</ele>
        <time>2013-12-29T09:22:17.000Z</time>
      </trkpt>
      <trkpt lat="43.49216" lon="6.9358">
        <ele>133</ele>
        <time>2013-12-29T09:22:22.000Z</time>
      </trkpt>
      <trkpt lat="43.49218" lon="6.93577">
        <ele>133.60000610352</ele>
        <time>2013-12-29T09:22:23.000Z</time>
      </trkpt>
      <trkpt lat="43.49215" lon="6.93563">
        <ele>132.60000610352</ele>
        <time>2013-12-29T09:22:26.000Z</time>
      </trkpt>
      <trkpt lat="43.49215" lon="6.93559">
        <ele>132.60000610352</ele>
        <time>2013-12-29T09:22:27.000Z</time>
      </trkpt>
      <trkpt lat="43.49214" lon="6.93545">
        <ele>132</ele>
        <time>2013-12-29T09:22:32.000Z</time>
      </trkpt>
      <trkpt lat="43.49205" lon="6.9353">
        <ele>128</ele>
        <time>2013-12-29T09:22:37.000Z</time>
      </trkpt>
      <trkpt lat="43.49203" lon="6.93517">
        <ele>126.80000305176</ele>
        <time>2013-12-29T09:22:42.000Z</time>
      </trkpt>
      <trkpt lat="43.492" lon="6.93499">
        <ele>125</ele>
        <time>2013-12-29T09:22:47.000Z</time>
      </trkpt>
      <trkpt lat="43.49201" lon="6.93474">
        <ele>125</ele>
        <time>2013-12-29T09:22:54.000Z</time>
      </trkpt>
      <trkpt lat="43.49205" lon="6.93456">
        <ele>126.40000152588</ele>
        <time>2013-12-29T09:23:00.000Z</time>
      </trkpt>
      <trkpt lat="43.4921" lon="6.9344">
        <ele>128.60000610352</ele>
        <time>2013-12-29T09:23:06.000Z</time>
      </trkpt>
      <trkpt lat="43.49215" lon="6.93426">
        <ele>130.80000305176</ele>
        <time>2013-12-29T09:23:11.000Z</time>
      </trkpt>
      <trkpt lat="43.49221" lon="6.93407">
        <ele>133.60000610352</ele>
        <time>2013-12-29T09:23:17.000Z</time>
      </trkpt>
      <trkpt lat="43.49227" lon="6.93389">
        <ele>135.19999694824</ele>
        <time>2013-12-29T09:23:23.000Z</time>
      </trkpt>
      <trkpt lat="43.49229" lon="6.93367">
        <ele>134.39999389648</ele>
        <time>2013-12-29T09:23:29.000Z</time>
      </trkpt>
      <trkpt lat="43.49234" lon="6.93346">
        <ele>135.80000305176</ele>
        <time>2013-12-29T09:23:35.000Z</time>
      </trkpt>
      <trkpt lat="43.49237" lon="6.93323">
        <ele>135</ele>
        <time>2013-12-29T09:23:41.000Z</time>
      </trkpt>
      <trkpt lat="43.49239" lon="6.93297">
        <ele>133.39999389648</ele>
        <time>2013-12-29T09:23:47.000Z</time>
      </trkpt>
      <trkpt lat="43.49237" lon="6.93275">
        <ele>129.39999389648</ele>
        <time>2013-12-29T09:23:52.000Z</time>
      </trkpt>
      <trkpt lat="43.49242" lon="6.93253">
        <ele>129.19999694824</ele>
        <time>2013-12-29T09:23:58.000Z</time>
      </trkpt>
      <trkpt lat="43.49252" lon="6.93239">
        <ele>130.39999389648</ele>
        <time>2013-12-29T09:24:04.000Z</time>
      </trkpt>
      <trkpt lat="43.49262" lon="6.9323">
        <ele>131.80000305176</ele>
        <time>2013-12-29T09:24:09.000Z</time>
      </trkpt>
      <trkpt lat="43.4928" lon="6.93214">
        <ele>134.80000305176</ele>
        <time>2013-12-29T09:24:16.000Z</time>
      </trkpt>
      <trkpt lat="43.49292" lon="6.93202">
        <ele>137</ele>
        <time>2013-12-29T09:24:21.000Z</time>
      </trkpt>
      <trkpt lat="43.49308" lon="6.93182">
        <ele>139.60000610352</ele>
        <time>2013-12-29T09:24:28.000Z</time>
      </trkpt>
      <trkpt lat="43.4931" lon="6.93175">
        <ele>138.80000305176</ele>
        <time>2013-12-29T09:24:30.000Z</time>
      </trkpt>
      <trkpt lat="43.4931" lon="6.93166">
        <ele>137.60000610352</ele>
        <time>2013-12-29T09:24:32.000Z</time>
      </trkpt>
      <trkpt lat="43.49308" lon="6.93154">
        <ele>134.19999694824</ele>
        <time>2013-12-29T09:24:35.000Z</time>
      </trkpt>
      <trkpt lat="43.49306" lon="6.93146">
        <ele>132</ele>
        <time>2013-12-29T09:24:37.000Z</time>
      </trkpt>
      <trkpt lat="43.49304" lon="6.93127">
        <ele>127.59999847412</ele>
        <time>2013-12-29T09:24:42.000Z</time>
      </trkpt>
      <trkpt lat="43.49313" lon="6.93116">
        <ele>129</ele>
        <time>2013-12-29T09:24:46.000Z</time>
      </trkpt>
      <trkpt lat="43.49331" lon="6.93095">
        <ele>133</ele>
        <time>2013-12-29T09:24:53.000Z</time>
      </trkpt>
      <trkpt lat="43.49345" lon="6.93075">
        <ele>134</ele>
        <time>2013-12-29T09:24:59.000Z</time>
      </trkpt>
      <trkpt lat="43.49359" lon="6.93053">
        <ele>134.39999389648</ele>
        <time>2013-12-29T09:25:05.000Z</time>
      </trkpt>
      <trkpt lat="43.49371" lon="6.93027">
        <ele>133.80000305176</ele>
        <time>2013-12-29T09:25:10.000Z</time>
      </trkpt>
      <trkpt lat="43.49369" lon="6.93014">
        <ele>130.80000305176</ele>
        <time>2013-12-29T09:25:12.000Z</time>
      </trkpt>
      <trkpt lat="43.49367" lon="6.93009">
        <ele>129.19999694824</ele>
        <time>2013-12-29T09:25:13.000Z</time>
      </trkpt>
      <trkpt lat="43.49366" lon="6.92987">
        <ele>125.80000305176</ele>
        <time>2013-12-29T09:25:17.000Z</time>
      </trkpt>
      <trkpt lat="43.4937" lon="6.92973">
        <ele>125.19999694824</ele>
        <time>2013-12-29T09:25:20.000Z</time>
      </trkpt>
      <trkpt lat="43.49372" lon="6.92964">
        <ele>124.80000305176</ele>
        <time>2013-12-29T09:25:22.000Z</time>
      </trkpt>
      <trkpt lat="43.49384" lon="6.92939">
        <ele>125.80000305176</ele>
        <time>2013-12-29T09:25:28.000Z</time>
      </trkpt>
      <trkpt lat="43.49384" lon="6.9293">
        <ele>124.40000152588</ele>
        <time>2013-12-29T09:25:30.000Z</time>
      </trkpt>
      <trkpt lat="43.49383" lon="6.92927">
        <ele>123.59999847412</ele>
        <time>2013-12-29T09:25:31.000Z</time>
      </trkpt>
      <trkpt lat="43.49381" lon="6.92904">
        <ele>119.80000305176</ele>
        <time>2013-12-29T09:25:36.000Z</time>
      </trkpt>
      <trkpt lat="43.49386" lon="6.92867">
        <ele>116</ele>
        <time>2013-12-29T09:25:43.000Z</time>
      </trkpt>
      <trkpt lat="43.49399" lon="6.9284">
        <ele>116.40000152588</ele>
        <time>2013-12-29T09:25:49.000Z</time>
      </trkpt>
      <trkpt lat="43.49417" lon="6.92828">
        <ele>120</ele>
        <time>2013-12-29T09:25:54.000Z</time>
      </trkpt>
      <trkpt lat="43.49433" lon="6.92825">
        <ele>120.19999694824</ele>
        <time>2013-12-29T09:25:58.000Z</time>
      </trkpt>
      <trkpt lat="43.4944" lon="6.92828">
        <ele>120.80000305176</ele>
        <time>2013-12-29T09:26:00.000Z</time>
      </trkpt>
      <trkpt lat="43.49453" lon="6.92829">
        <ele>121.40000152588</ele>
        <time>2013-12-29T09:26:04.000Z</time>
      </trkpt>
      <trkpt lat="43.4946" lon="6.9282">
        <ele>120.59999847412</ele>
        <time>2013-12-29T09:26:07.000Z</time>
      </trkpt>
      <trkpt lat="43.49463" lon="6.92816">
        <ele>120.40000152588</ele>
        <time>2013-12-29T09:26:08.000Z</time>
      </trkpt>
      <trkpt lat="43.49484" lon="6.92791">
        <ele>120</ele>
        <time>2013-12-29T09:26:17.000Z</time>
      </trkpt>
      <trkpt lat="43.49491" lon="6.92783">
        <ele>120.19999694824</ele>
        <time>2013-12-29T09:26:24.000Z</time>
      </trkpt>
      <trkpt lat="43.4949" lon="6.92779">
        <ele>120</ele>
        <time>2013-12-29T09:26:27.000Z</time>
      </trkpt>
      <trkpt lat="43.49489" lon="6.92779">
        <ele>119.80000305176</ele>
        <time>2013-12-29T09:26:29.000Z</time>
      </trkpt>
      <trkpt lat="43.4949" lon="6.92776">
        <ele>119.59999847412</ele>
        <time>2013-12-29T09:26:32.000Z</time>
      </trkpt>
      <trkpt lat="43.4949" lon="6.92776">
        <ele>119.59999847412</ele>
        <time>2013-12-29T09:26:33.000Z</time>
      </trkpt>
      <trkpt lat="43.49484" lon="6.92777">
        <ele>119</ele>
        <time>2013-12-29T09:28:22.000Z</time>
      </trkpt>
      <trkpt lat="43.49489" lon="6.92778">
        <ele>119.80000305176</ele>
        <time>2013-12-29T09:28:51.000Z</time>
      </trkpt>
      <trkpt lat="43.49493" lon="6.92778">
        <ele>120.19999694824</ele>
        <time>2013-12-29T09:29:29.000Z</time>
      </trkpt>
      <trkpt lat="43.4949" lon="6.92779">
        <ele>119.80000305176</ele>
        <time>2013-12-29T09:29:55.000Z</time>
      </trkpt>
      <trkpt lat="43.49487" lon="6.92784">
        <ele>119.80000305176</ele>
        <time>2013-12-29T09:31:06.000Z</time>
      </trkpt>
      <trkpt lat="43.49483" lon="6.92792">
        <ele>119.80000305176</ele>
        <time>2013-12-29T09:31:12.000Z</time>
      </trkpt>
      <trkpt lat="43.49478" lon="6.9281">
        <ele>120.80000305176</ele>
        <time>2013-12-29T09:31:19.000Z</time>
      </trkpt>
      <trkpt lat="43.49468" lon="6.92829">
        <ele>121.80000305176</ele>
        <time>2013-12-29T09:31:26.000Z</time>
      </trkpt>
      <trkpt lat="43.49453" lon="6.92847">
        <ele>124</ele>
        <time>2013-12-29T09:31:33.000Z</time>
      </trkpt>
      <trkpt lat="43.49444" lon="6.92845">
        <ele>123.40000152588</ele>
        <time>2013-12-29T09:31:37.000Z</time>
      </trkpt>
      <trkpt lat="43.49431" lon="6.92844">
        <ele>123</ele>
        <time>2013-12-29T09:31:43.000Z</time>
      </trkpt>
      <trkpt lat="43.4942" lon="6.9285">
        <ele>123.80000305176</ele>
        <time>2013-12-29T09:31:50.000Z</time>
      </trkpt>
      <trkpt lat="43.49411" lon="6.92864">
        <ele>123.80000305176</ele>
        <time>2013-12-29T09:31:57.000Z</time>
      </trkpt>
      <trkpt lat="43.49406" lon="6.9288">
        <ele>124.80000305176</ele>
        <time>2013-12-29T09:32:04.000Z</time>
      </trkpt>
      <trkpt lat="43.49406" lon="6.92899">
        <ele>127.40000152588</ele>
        <time>2013-12-29T09:32:12.000Z</time>
      </trkpt>
      <trkpt lat="43.4941" lon="6.92919">
        <ele>132</ele>
        <time>2013-12-29T09:32:20.000Z</time>
      </trkpt>
      <trkpt lat="43.49413" lon="6.92938">
        <ele>135.60000610352</ele>
        <time>2013-12-29T09:32:27.000Z</time>
      </trkpt>
      <trkpt lat="43.4941" lon="6.92954">
        <ele>136.80000305176</ele>
        <time>2013-12-29T09:32:33.000Z</time>
      </trkpt>
      <trkpt lat="43.49404" lon="6.92975">
        <ele>137.39999389648</ele>
        <time>2013-12-29T09:32:41.000Z</time>
      </trkpt>
      <trkpt lat="43.49405" lon="6.92995">
        <ele>140.19999694824</ele>
        <time>2013-12-29T09:32:48.000Z</time>
      </trkpt>
      <trkpt lat="43.49407" lon="6.9302">
        <ele>144.39999389648</ele>
        <time>2013-12-29T09:32:56.000Z</time>
      </trkpt>
      <trkpt lat="43.49402" lon="6.93047">
        <ele>147</ele>
        <time>2013-12-29T09:33:05.000Z</time>
      </trkpt>
      <trkpt lat="43.49396" lon="6.93066">
        <ele>148.19999694824</ele>
        <time>2013-12-29T09:33:12.000Z</time>
      </trkpt>
      <trkpt lat="43.49386" lon="6.93089">
        <ele>148.60000610352</ele>
        <time>2013-12-29T09:33:21.000Z</time>
      </trkpt>
      <trkpt lat="43.49376" lon="6.93105">
        <ele>147.80000305176</ele>
        <time>2013-12-29T09:33:28.000Z</time>
      </trkpt>
      <trkpt lat="43.49369" lon="6.93121">
        <ele>148</ele>
        <time>2013-12-29T09:33:34.000Z</time>
      </trkpt>
      <trkpt lat="43.4936" lon="6.9315">
        <ele>149.80000305176</ele>
        <time>2013-12-29T09:33:44.000Z</time>
      </trkpt>
      <trkpt lat="43.49358" lon="6.93174">
        <ele>153</ele>
        <time>2013-12-29T09:33:52.000Z</time>
      </trkpt>
      <trkpt lat="43.49365" lon="6.93195">
        <ele>156.39999389648</ele>
        <time>2013-12-29T09:34:00.000Z</time>
      </trkpt>
      <trkpt lat="43.49373" lon="6.93201">
        <ele>158</ele>
        <time>2013-12-29T09:34:05.000Z</time>
      </trkpt>
      <trkpt lat="43.49371" lon="6.93193">
        <ele>157</ele>
        <time>2013-12-29T09:34:08.000Z</time>
      </trkpt>
      <trkpt lat="43.49369" lon="6.93191">
        <ele>156.60000610352</ele>
        <time>2013-12-29T09:34:09.000Z</time>
      </trkpt>
      <trkpt lat="43.49369" lon="6.93173">
        <ele>154.80000305176</ele>
        <time>2013-12-29T09:34:15.000Z</time>
      </trkpt>
      <trkpt lat="43.49376" lon="6.93157">
        <ele>154.60000610352</ele>
        <time>2013-12-29T09:34:21.000Z</time>
      </trkpt>
      <trkpt lat="43.4939" lon="6.93142">
        <ele>155.60000610352</ele>
        <time>2013-12-29T09:34:28.000Z</time>
      </trkpt>
      <trkpt lat="43.49405" lon="6.93131">
        <ele>158.19999694824</ele>
        <time>2013-12-29T09:34:35.000Z</time>
      </trkpt>
      <trkpt lat="43.49423" lon="6.93122">
        <ele>159.19999694824</ele>
        <time>2013-12-29T09:34:42.000Z</time>
      </trkpt>
      <trkpt lat="43.49438" lon="6.9312">
        <ele>156.39999389648</ele>
        <time>2013-12-29T09:34:50.000Z</time>
      </trkpt>
      <trkpt lat="43.49441" lon="6.93122">
        <ele>155.80000305176</ele>
        <time>2013-12-29T09:34:53.000Z</time>
      </trkpt>
      <trkpt lat="43.49443" lon="6.93127">
        <ele>155.80000305176</ele>
        <time>2013-12-29T09:34:57.000Z</time>
      </trkpt>
      <trkpt lat="43.49443" lon="6.93129">
        <ele>155.80000305176</ele>
        <time>2013-12-29T09:34:58.000Z</time>
      </trkpt>
      <trkpt lat="43.49443" lon="6.93131">
        <ele>156</ele>
        <time>2013-12-29T09:35:01.000Z</time>
      </trkpt>
      <trkpt lat="43.49444" lon="6.93131">
        <ele>155.80000305176</ele>
        <time>2013-12-29T09:35:03.000Z</time>
      </trkpt>
      <trkpt lat="43.49445" lon="6.93138">
        <ele>156</ele>
        <time>2013-12-29T09:35:57.000Z</time>
      </trkpt>
      <trkpt lat="43.49445" lon="6.93156">
        <ele>156.80000305176</ele>
        <time>2013-12-29T09:36:04.000Z</time>
      </trkpt>
      <trkpt lat="43.49439" lon="6.93178">
        <ele>158.60000610352</ele>
        <time>2013-12-29T09:36:10.000Z</time>
      </trkpt>
      <trkpt lat="43.49424" lon="6.93206">
        <ele>162</ele>
        <time>2013-12-29T09:36:17.000Z</time>
      </trkpt>
      <trkpt lat="43.49411" lon="6.93228">
        <ele>163.60000610352</ele>
        <time>2013-12-29T09:36:23.000Z</time>
      </trkpt>
      <trkpt lat="43.49406" lon="6.93247">
        <ele>163.60000610352</ele>
        <time>2013-12-29T09:36:29.000Z</time>
      </trkpt>
      <trkpt lat="43.49401" lon="6.93273">
        <ele>164</ele>
        <time>2013-12-29T09:36:36.000Z</time>
      </trkpt>
      <trkpt lat="43.49402" lon="6.93292">
        <ele>164.60000610352</ele>
        <time>2013-12-29T09:36:41.000Z</time>
      </trkpt>
      <trkpt lat="43.49402" lon="6.93314">
        <ele>165.19999694824</ele>
        <time>2013-12-29T09:36:48.000Z</time>
      </trkpt>
      <trkpt lat="43.49397" lon="6.93328">
        <ele>166.19999694824</ele>
        <time>2013-12-29T09:36:53.000Z</time>
      </trkpt>
      <trkpt lat="43.49395" lon="6.93328">
        <ele>166.39999389648</ele>
        <time>2013-12-29T09:36:54.000Z</time>
      </trkpt>
      <trkpt lat="43.49392" lon="6.93324">
        <ele>166.60000610352</ele>
        <time>2013-12-29T09:36:56.000Z</time>
      </trkpt>
      <trkpt lat="43.49379" lon="6.9331">
        <ele>167</ele>
        <time>2013-12-29T09:37:04.000Z</time>
      </trkpt>
      <trkpt lat="43.49366" lon="6.93311">
        <ele>168</ele>
        <time>2013-12-29T09:37:10.000Z</time>
      </trkpt>
      <trkpt lat="43.49351" lon="6.93317">
        <ele>169.80000305176</ele>
        <time>2013-12-29T09:37:17.000Z</time>
      </trkpt>
      <trkpt lat="43.49342" lon="6.93333">
        <ele>172.80000305176</ele>
        <time>2013-12-29T09:37:24.000Z</time>
      </trkpt>
      <trkpt lat="43.49343" lon="6.93351">
        <ele>174</ele>
        <time>2013-12-29T09:37:30.000Z</time>
      </trkpt>
      <trkpt lat="43.49351" lon="6.93361">
        <ele>173.60000610352</ele>
        <time>2013-12-29T09:37:35.000Z</time>
      </trkpt>
      <trkpt lat="43.49357" lon="6.93373">
        <ele>173.60000610352</ele>
        <time>2013-12-29T09:37:40.000Z</time>
      </trkpt>
      <trkpt lat="43.49354" lon="6.93386">
        <ele>174.60000610352</ele>
        <time>2013-12-29T09:37:45.000Z</time>
      </trkpt>
      <trkpt lat="43.49351" lon="6.93398">
        <ele>175.80000305176</ele>
        <time>2013-12-29T09:37:52.000Z</time>
      </trkpt>
      <trkpt lat="43.49348" lon="6.9342">
        <ele>177.39999389648</ele>
        <time>2013-12-29T09:37:59.000Z</time>
      </trkpt>
      <trkpt lat="43.49345" lon="6.93449">
        <ele>177.19999694824</ele>
        <time>2013-12-29T09:38:07.000Z</time>
      </trkpt>
      <trkpt lat="43.49339" lon="6.93475">
        <ele>177.80000305176</ele>
        <time>2013-12-29T09:38:14.000Z</time>
      </trkpt>
      <trkpt lat="43.49338" lon="6.93508">
        <ele>177</ele>
        <time>2013-12-29T09:38:18.000Z</time>
      </trkpt>
      <trkpt lat="43.49343" lon="6.93529">
        <ele>174.80000305176</ele>
        <time>2013-12-29T09:38:20.000Z</time>
      </trkpt>
      <trkpt lat="43.49346" lon="6.93541">
        <ele>173.39999389648</ele>
        <time>2013-12-29T09:38:21.000Z</time>
      </trkpt>
      <trkpt lat="43.49348" lon="6.93554">
        <ele>172.19999694824</ele>
        <time>2013-12-29T09:38:22.000Z</time>
      </trkpt>
      <trkpt lat="43.49349" lon="6.93583">
        <ele>170</ele>
        <time>2013-12-29T09:38:24.000Z</time>
      </trkpt>
      <trkpt lat="43.4934" lon="6.93619">
        <ele>173</ele>
        <time>2013-12-29T09:38:27.000Z</time>
      </trkpt>
      <trkpt lat="43.49334" lon="6.93636">
        <ele>175</ele>
        <time>2013-12-29T09:38:29.000Z</time>
      </trkpt>
      <trkpt lat="43.49332" lon="6.93644">
        <ele>175.19999694824</ele>
        <time>2013-12-29T09:38:30.000Z</time>
      </trkpt>
      <trkpt lat="43.49329" lon="6.93657">
        <ele>174.80000305176</ele>
        <time>2013-12-29T09:38:32.000Z</time>
      </trkpt>
      <trkpt lat="43.49326" lon="6.93669">
        <ele>174.60000610352</ele>
        <time>2013-12-29T09:38:34.000Z</time>
      </trkpt>
      <trkpt lat="43.49325" lon="6.93681">
        <ele>174.19999694824</ele>
        <time>2013-12-29T09:38:36.000Z</time>
      </trkpt>
      <trkpt lat="43.49322" lon="6.93706">
        <ele>173.60000610352</ele>
        <time>2013-12-29T09:38:40.000Z</time>
      </trkpt>
      <trkpt lat="43.49318" lon="6.93726">
        <ele>173.19999694824</ele>
        <time>2013-12-29T09:38:43.000Z</time>
      </trkpt>
      <trkpt lat="43.49315" lon="6.93741">
        <ele>172.80000305176</ele>
        <time>2013-12-29T09:38:45.000Z</time>
      </trkpt>
      <trkpt lat="43.49315" lon="6.9375">
        <ele>172.80000305176</ele>
        <time>2013-12-29T09:38:46.000Z</time>
      </trkpt>
      <trkpt lat="43.49315" lon="6.93779">
        <ele>173.39999389648</ele>
        <time>2013-12-29T09:38:49.000Z</time>
      </trkpt>
      <trkpt lat="43.49314" lon="6.93789">
        <ele>173.60000610352</ele>
        <time>2013-12-29T09:38:50.000Z</time>
      </trkpt>
      <trkpt lat="43.49313" lon="6.93797">
        <ele>173.60000610352</ele>
        <time>2013-12-29T09:38:51.000Z</time>
      </trkpt>
      <trkpt lat="43.49312" lon="6.93807">
        <ele>173.60000610352</ele>
        <time>2013-12-29T09:38:53.000Z</time>
      </trkpt>
      <trkpt lat="43.49311" lon="6.93815">
        <ele>173.60000610352</ele>
        <time>2013-12-29T09:38:56.000Z</time>
      </trkpt>
      <trkpt lat="43.4931" lon="6.93818">
        <ele>173.60000610352</ele>
        <time>2013-12-29T09:38:57.000Z</time>
      </trkpt>
      <trkpt lat="43.49308" lon="6.93844">
        <ele>173.80000305176</ele>
        <time>2013-12-29T09:39:03.000Z</time>
      </trkpt>
      <trkpt lat="43.4931" lon="6.93876">
        <ele>174.39999389648</ele>
        <time>2013-12-29T09:39:10.000Z</time>
      </trkpt>
      <trkpt lat="43.49317" lon="6.93913">
        <ele>175.19999694824</ele>
        <time>2013-12-29T09:39:19.000Z</time>
      </trkpt>
      <trkpt lat="43.49323" lon="6.93945">
        <ele>175.60000610352</ele>
        <time>2013-12-29T09:39:25.000Z</time>
      </trkpt>
      <trkpt lat="43.49329" lon="6.93983">
        <ele>175.39999389648</ele>
        <time>2013-12-29T09:39:30.000Z</time>
      </trkpt>
      <trkpt lat="43.49335" lon="6.9403">
        <ele>173.39999389648</ele>
        <time>2013-12-29T09:39:35.000Z</time>
      </trkpt>
      <trkpt lat="43.49337" lon="6.94081">
        <ele>171.39999389648</ele>
        <time>2013-12-29T09:39:40.000Z</time>
      </trkpt>
      <trkpt lat="43.49341" lon="6.94103">
        <ele>169.39999389648</ele>
        <time>2013-12-29T09:39:42.000Z</time>
      </trkpt>
      <trkpt lat="43.49342" lon="6.94126">
        <ele>168.19999694824</ele>
        <time>2013-12-29T09:39:44.000Z</time>
      </trkpt>
      <trkpt lat="43.49342" lon="6.94141">
        <ele>167.60000610352</ele>
        <time>2013-12-29T09:39:46.000Z</time>
      </trkpt>
      <trkpt lat="43.49343" lon="6.94147">
        <ele>167.39999389648</ele>
        <time>2013-12-29T09:39:47.000Z</time>
      </trkpt>
      <trkpt lat="43.49345" lon="6.94186">
        <ele>164.19999694824</ele>
        <time>2013-12-29T09:39:53.000Z</time>
      </trkpt>
      <trkpt lat="43.49346" lon="6.94216">
        <ele>161.19999694824</ele>
        <time>2013-12-29T09:39:57.000Z</time>
      </trkpt>
      <trkpt lat="43.49347" lon="6.94225">
        <ele>160.19999694824</ele>
        <time>2013-12-29T09:39:58.000Z</time>
      </trkpt>
      <trkpt lat="43.4935" lon="6.9424">
        <ele>158.60000610352</ele>
        <time>2013-12-29T09:40:00.000Z</time>
      </trkpt>
      <trkpt lat="43.49355" lon="6.94249">
        <ele>157.60000610352</ele>
        <time>2013-12-29T09:40:02.000Z</time>
      </trkpt>
      <trkpt lat="43.49371" lon="6.94252">
        <ele>156.60000610352</ele>
        <time>2013-12-29T09:40:05.000Z</time>
      </trkpt>
      <trkpt lat="43.49384" lon="6.94252">
        <ele>156.39999389648</ele>
        <time>2013-12-29T09:40:07.000Z</time>
      </trkpt>
      <trkpt lat="43.49405" lon="6.9425">
        <ele>156.19999694824</ele>
        <time>2013-12-29T09:40:10.000Z</time>
      </trkpt>
      <trkpt lat="43.49443" lon="6.94251">
        <ele>156.19999694824</ele>
        <time>2013-12-29T09:40:15.000Z</time>
      </trkpt>
      <trkpt lat="43.49461" lon="6.9425">
        <ele>156.60000610352</ele>
        <time>2013-12-29T09:40:19.000Z</time>
      </trkpt>
      <trkpt lat="43.49468" lon="6.9425">
        <ele>156.60000610352</ele>
        <time>2013-12-29T09:40:21.000Z</time>
      </trkpt>
      <trkpt lat="43.49479" lon="6.9425">
        <ele>156.80000305176</ele>
        <time>2013-12-29T09:40:24.000Z</time>
      </trkpt>
      <trkpt lat="43.49504" lon="6.94249">
        <ele>157</ele>
        <time>2013-12-29T09:40:31.000Z</time>
      </trkpt>
      <trkpt lat="43.49523" lon="6.94246">
        <ele>157.60000610352</ele>
        <time>2013-12-29T09:40:37.000Z</time>
      </trkpt>
      <trkpt lat="43.49545" lon="6.94247">
        <ele>158.80000305176</ele>
        <time>2013-12-29T09:40:43.000Z</time>
      </trkpt>
      <trkpt lat="43.49546" lon="6.94252">
        <ele>159</ele>
        <time>2013-12-29T09:40:44.000Z</time>
      </trkpt>
      <trkpt lat="43.49549" lon="6.9426">
        <ele>158.39999389648</ele>
        <time>2013-12-29T09:40:46.000Z</time>
      </trkpt>
      <trkpt lat="43.49561" lon="6.94271">
        <ele>158.19999694824</ele>
        <time>2013-12-29T09:40:50.000Z</time>
      </trkpt>
      <trkpt lat="43.49563" lon="6.94269">
        <ele>158.39999389648</ele>
        <time>2013-12-29T09:40:51.000Z</time>
      </trkpt>
      <trkpt lat="43.49567" lon="6.94263">
        <ele>159.19999694824</ele>
        <time>2013-12-29T09:40:53.000Z</time>
      </trkpt>
      <trkpt lat="43.49574" lon="6.94253">
        <ele>160.39999389648</ele>
        <time>2013-12-29T09:40:56.000Z</time>
      </trkpt>
      <trkpt lat="43.49579" lon="6.94249">
        <ele>160.60000610352</ele>
        <time>2013-12-29T09:40:58.000Z</time>
      </trkpt>
      <trkpt lat="43.49592" lon="6.94243">
        <ele>161.60000610352</ele>
        <time>2013-12-29T09:41:04.000Z</time>
      </trkpt>
      <trkpt lat="43.49609" lon="6.94238">
        <ele>164</ele>
        <time>2013-12-29T09:41:13.000Z</time>
      </trkpt>
      <trkpt lat="43.49622" lon="6.94229">
        <ele>165.39999389648</ele>
        <time>2013-12-29T09:41:20.000Z</time>
      </trkpt>
      <trkpt lat="43.49636" lon="6.9422">
        <ele>167.19999694824</ele>
        <time>2013-12-29T09:41:28.000Z</time>
      </trkpt>
      <trkpt lat="43.49654" lon="6.94208">
        <ele>169.39999389648</ele>
        <time>2013-12-29T09:41:37.000Z</time>
      </trkpt>
      <trkpt lat="43.49668" lon="6.94194">
        <ele>171</ele>
        <time>2013-12-29T09:41:46.000Z</time>
      </trkpt>
      <trkpt lat="43.49682" lon="6.9418">
        <ele>171.80000305176</ele>
        <time>2013-12-29T09:41:54.000Z</time>
      </trkpt>
      <trkpt lat="43.49695" lon="6.9417">
        <ele>172.80000305176</ele>
        <time>2013-12-29T09:42:02.000Z</time>
      </trkpt>
      <trkpt lat="43.49704" lon="6.94168">
        <ele>174</ele>
        <time>2013-12-29T09:42:09.000Z</time>
      </trkpt>
      <trkpt lat="43.49711" lon="6.94171">
        <ele>175.39999389648</ele>
        <time>2013-12-29T09:42:15.000Z</time>
      </trkpt>
      <trkpt lat="43.49709" lon="6.94167">
        <ele>174.60000610352</ele>
        <time>2013-12-29T09:42:19.000Z</time>
      </trkpt>
      <trkpt lat="43.49709" lon="6.94167">
        <ele>174.60000610352</ele>
        <time>2013-12-29T09:42:20.000Z</time>
      </trkpt>
      <trkpt lat="43.49708" lon="6.94167">
        <ele>174.60000610352</ele>
        <time>2013-12-29T09:42:21.000Z</time>
      </trkpt>
      <trkpt lat="43.4971" lon="6.94172">
        <ele>175.39999389648</ele>
        <time>2013-12-29T09:42:24.000Z</time>
      </trkpt>
      <trkpt lat="43.49718" lon="6.94169">
        <ele>176.19999694824</ele>
        <time>2013-12-29T09:42:28.000Z</time>
      </trkpt>
      <trkpt lat="43.49723" lon="6.94168">
        <ele>177</ele>
        <time>2013-12-29T09:42:32.000Z</time>
      </trkpt>
      <trkpt lat="43.49727" lon="6.9417">
        <ele>177.80000305176</ele>
        <time>2013-12-29T09:42:35.000Z</time>
      </trkpt>
      <trkpt lat="43.49729" lon="6.94169">
        <ele>178.19999694824</ele>
        <time>2013-12-29T09:42:39.000Z</time>
      </trkpt>
      <trkpt lat="43.49729" lon="6.9417">
        <ele>178.19999694824</ele>
        <time>2013-12-29T09:42:46.000Z</time>
      </trkpt>
      <trkpt lat="43.49718" lon="6.94156">
        <ele>173.60000610352</ele>
        <time>2013-12-29T09:46:57.000Z</time>
      </trkpt>
      <trkpt lat="43.49716" lon="6.94152">
        <ele>172.39999389648</ele>
        <time>2013-12-29T09:46:59.000Z</time>
      </trkpt>
      <trkpt lat="43.4972" lon="6.9415">
        <ele>172.60000610352</ele>
        <time>2013-12-29T09:47:01.000Z</time>
      </trkpt>
      <trkpt lat="43.49716" lon="6.94144">
        <ele>170.80000305176</ele>
        <time>2013-12-29T09:47:05.000Z</time>
      </trkpt>
      <trkpt lat="43.49707" lon="6.94139">
        <ele>168.39999389648</ele>
        <time>2013-12-29T09:47:08.000Z</time>
      </trkpt>
      <trkpt lat="43.49705" lon="6.94132">
        <ele>166.80000305176</ele>
        <time>2013-12-29T09:47:10.000Z</time>
      </trkpt>
      <trkpt lat="43.49702" lon="6.94125">
        <ele>165.19999694824</ele>
        <time>2013-12-29T09:47:12.000Z</time>
      </trkpt>
      <trkpt lat="43.49691" lon="6.9411">
        <ele>161.39999389648</ele>
        <time>2013-12-29T09:47:17.000Z</time>
      </trkpt>
      <trkpt lat="43.49679" lon="6.94103">
        <ele>159.39999389648</ele>
        <time>2013-12-29T09:47:21.000Z</time>
      </trkpt>
      <trkpt lat="43.49677" lon="6.94098">
        <ele>158.60000610352</ele>
        <time>2013-12-29T09:47:23.000Z</time>
      </trkpt>
      <trkpt lat="43.49674" lon="6.94091">
        <ele>157.39999389648</ele>
        <time>2013-12-29T09:47:25.000Z</time>
      </trkpt>
      <trkpt lat="43.4967" lon="6.94076">
        <ele>155.39999389648</ele>
        <time>2013-12-29T09:47:30.000Z</time>
      </trkpt>
      <trkpt lat="43.49667" lon="6.94063">
        <ele>154</ele>
        <time>2013-12-29T09:47:33.000Z</time>
      </trkpt>
      <trkpt lat="43.49669" lon="6.9406">
        <ele>153.60000610352</ele>
        <time>2013-12-29T09:47:34.000Z</time>
      </trkpt>
      <trkpt lat="43.49673" lon="6.94049">
        <ele>152.19999694824</ele>
        <time>2013-12-29T09:47:37.000Z</time>
      </trkpt>
      <trkpt lat="43.49668" lon="6.9404">
        <ele>151.80000305176</ele>
        <time>2013-12-29T09:47:39.000Z</time>
      </trkpt>
      <trkpt lat="43.49667" lon="6.94035">
        <ele>151.39999389648</ele>
        <time>2013-12-29T09:47:40.000Z</time>
      </trkpt>
      <trkpt lat="43.49674" lon="6.94027">
        <ele>149.80000305176</ele>
        <time>2013-12-29T09:47:43.000Z</time>
      </trkpt>
      <trkpt lat="43.49675" lon="6.94014">
        <ele>148.19999694824</ele>
        <time>2013-12-29T09:47:46.000Z</time>
      </trkpt>
      <trkpt lat="43.49673" lon="6.94003">
        <ele>147.19999694824</ele>
        <time>2013-12-29T09:47:49.000Z</time>
      </trkpt>
      <trkpt lat="43.49674" lon="6.93999">
        <ele>146.60000610352</ele>
        <time>2013-12-29T09:47:50.000Z</time>
      </trkpt>
      <trkpt lat="43.49675" lon="6.93996">
        <ele>146</ele>
        <time>2013-12-29T09:47:51.000Z</time>
      </trkpt>
      <trkpt lat="43.49676" lon="6.93984">
        <ele>144.39999389648</ele>
        <time>2013-12-29T09:47:55.000Z</time>
      </trkpt>
      <trkpt lat="43.49675" lon="6.93969">
        <ele>142.39999389648</ele>
        <time>2013-12-29T09:47:59.000Z</time>
      </trkpt>
      <trkpt lat="43.49672" lon="6.93965">
        <ele>142.39999389648</ele>
        <time>2013-12-29T09:48:01.000Z</time>
      </trkpt>
      <trkpt lat="43.49667" lon="6.93959">
        <ele>142.60000610352</ele>
        <time>2013-12-29T09:48:05.000Z</time>
      </trkpt>
      <trkpt lat="43.49665" lon="6.9395">
        <ele>141</ele>
        <time>2013-12-29T09:48:09.000Z</time>
      </trkpt>
      <trkpt lat="43.4966" lon="6.93951">
        <ele>140</ele>
        <time>2013-12-29T09:48:13.000Z</time>
      </trkpt>
      <trkpt lat="43.49657" lon="6.9395">
        <ele>139</ele>
        <time>2013-12-29T09:48:18.000Z</time>
      </trkpt>
      <trkpt lat="43.49657" lon="6.9395">
        <ele>139</ele>
        <time>2013-12-29T09:48:20.000Z</time>
      </trkpt>
      <trkpt lat="43.49649" lon="6.93944">
        <ele>136.60000610352</ele>
        <time>2013-12-29T09:48:25.000Z</time>
      </trkpt>
      <trkpt lat="43.49643" lon="6.93923">
        <ele>132.39999389648</ele>
        <time>2013-12-29T09:48:30.000Z</time>
      </trkpt>
      <trkpt lat="43.4965" lon="6.93905">
        <ele>131</ele>
        <time>2013-12-29T09:48:34.000Z</time>
      </trkpt>
      <trkpt lat="43.49663" lon="6.93885">
        <ele>130.39999389648</ele>
        <time>2013-12-29T09:48:39.000Z</time>
      </trkpt>
      <trkpt lat="43.49668" lon="6.93869">
        <ele>128.19999694824</ele>
        <time>2013-12-29T09:48:43.000Z</time>
      </trkpt>
      <trkpt lat="43.49671" lon="6.93847">
        <ele>124.19999694824</ele>
        <time>2013-12-29T09:48:48.000Z</time>
      </trkpt>
      <trkpt lat="43.49676" lon="6.9384">
        <ele>122.59999847412</ele>
        <time>2013-12-29T09:48:53.000Z</time>
      </trkpt>
      <trkpt lat="43.49676" lon="6.93841">
        <ele>122.80000305176</ele>
        <time>2013-12-29T09:48:59.000Z</time>
      </trkpt>
      <trkpt lat="43.49674" lon="6.93832">
        <ele>121.19999694824</ele>
        <time>2013-12-29T09:50:08.000Z</time>
      </trkpt>
      <trkpt lat="43.49678" lon="6.93823">
        <ele>118.80000305176</ele>
        <time>2013-12-29T09:50:10.000Z</time>
      </trkpt>
      <trkpt lat="43.49691" lon="6.93803">
        <ele>113.40000152588</ele>
        <time>2013-12-29T09:50:15.000Z</time>
      </trkpt>
      <trkpt lat="43.49706" lon="6.93781">
        <ele>108</ele>
        <time>2013-12-29T09:50:20.000Z</time>
      </trkpt>
      <trkpt lat="43.49711" lon="6.93775">
        <ele>106.40000152588</ele>
        <time>2013-12-29T09:50:22.000Z</time>
      </trkpt>
      <trkpt lat="43.49716" lon="6.93768">
        <ele>105</ele>
        <time>2013-12-29T09:50:25.000Z</time>
      </trkpt>
      <trkpt lat="43.49718" lon="6.9376">
        <ele>103.19999694824</ele>
        <time>2013-12-29T09:50:28.000Z</time>
      </trkpt>
      <trkpt lat="43.49721" lon="6.93759">
        <ele>102.80000305176</ele>
        <time>2013-12-29T09:50:29.000Z</time>
      </trkpt>
      <trkpt lat="43.49731" lon="6.93759">
        <ele>102.80000305176</ele>
        <time>2013-12-29T09:50:32.000Z</time>
      </trkpt>
      <trkpt lat="43.49734" lon="6.93758">
        <ele>102.59999847412</ele>
        <time>2013-12-29T09:50:33.000Z</time>
      </trkpt>
      <trkpt lat="43.49748" lon="6.9376">
        <ele>103</ele>
        <time>2013-12-29T09:50:37.000Z</time>
      </trkpt>
      <trkpt lat="43.49758" lon="6.93762">
        <ele>100.80000305176</ele>
        <time>2013-12-29T09:50:41.000Z</time>
      </trkpt>
      <trkpt lat="43.49764" lon="6.93761">
        <ele>98.400001525879</ele>
        <time>2013-12-29T09:50:45.000Z</time>
      </trkpt>
      <trkpt lat="43.49765" lon="6.93759">
        <ele>97.599998474121</ele>
        <time>2013-12-29T09:50:46.000Z</time>
      </trkpt>
      <trkpt lat="43.49774" lon="6.93747">
        <ele>92</ele>
        <time>2013-12-29T09:50:51.000Z</time>
      </trkpt>
      <trkpt lat="43.49781" lon="6.93739">
        <ele>88</ele>
        <time>2013-12-29T09:50:55.000Z</time>
      </trkpt>
      <trkpt lat="43.4978" lon="6.93737">
        <ele>87.800003051758</ele>
        <time>2013-12-29T09:50:56.000Z</time>
      </trkpt>
      <trkpt lat="43.4978" lon="6.93736">
        <ele>87.400001525879</ele>
        <time>2013-12-29T09:51:00.000Z</time>
      </trkpt>
      <trkpt lat="43.4978" lon="6.93736">
        <ele>87.599998474121</ele>
        <time>2013-12-29T09:51:10.000Z</time>
      </trkpt>
      <trkpt lat="43.49782" lon="6.93727">
        <ele>84.599998474121</ele>
        <time>2013-12-29T09:52:13.000Z</time>
      </trkpt>
      <trkpt lat="43.49782" lon="6.93711">
        <ele>81</ele>
        <time>2013-12-29T09:52:17.000Z</time>
      </trkpt>
      <trkpt lat="43.49784" lon="6.93709">
        <ele>80</ele>
        <time>2013-12-29T09:52:18.000Z</time>
      </trkpt>
      <trkpt lat="43.49784" lon="6.93706">
        <ele>79.199996948242</ele>
        <time>2013-12-29T09:52:20.000Z</time>
      </trkpt>
      <trkpt lat="43.49786" lon="6.93698">
        <ele>76.400001525879</ele>
        <time>2013-12-29T09:52:24.000Z</time>
      </trkpt>
      <trkpt lat="43.49792" lon="6.93697">
        <ele>74.599998474121</ele>
        <time>2013-12-29T09:52:27.000Z</time>
      </trkpt>
      <trkpt lat="43.49794" lon="6.93696">
        <ele>73.800003051758</ele>
        <time>2013-12-29T09:52:28.000Z</time>
      </trkpt>
      <trkpt lat="43.49793" lon="6.93686">
        <ele>71.599998474121</ele>
        <time>2013-12-29T09:52:32.000Z</time>
      </trkpt>
      <trkpt lat="43.49787" lon="6.93678">
        <ele>71.199996948242</ele>
        <time>2013-12-29T09:52:36.000Z</time>
      </trkpt>
      <trkpt lat="43.49778" lon="6.93673">
        <ele>72.800003051758</ele>
        <time>2013-12-29T09:52:41.000Z</time>
      </trkpt>
      <trkpt lat="43.49775" lon="6.93674">
        <ele>74</ele>
        <time>2013-12-29T09:52:43.000Z</time>
      </trkpt>
      <trkpt lat="43.49772" lon="6.9367">
        <ele>73.800003051758</ele>
        <time>2013-12-29T09:52:45.000Z</time>
      </trkpt>
      <trkpt lat="43.49772" lon="6.93669">
        <ele>73.400001525879</ele>
        <time>2013-12-29T09:52:46.000Z</time>
      </trkpt>
      <trkpt lat="43.49771" lon="6.93658">
        <ele>71.400001525879</ele>
        <time>2013-12-29T09:52:51.000Z</time>
      </trkpt>
      <trkpt lat="43.49771" lon="6.93647">
        <ele>69.199996948242</ele>
        <time>2013-12-29T09:52:55.000Z</time>
      </trkpt>
      <trkpt lat="43.49775" lon="6.9364">
        <ele>66.599998474121</ele>
        <time>2013-12-29T09:52:58.000Z</time>
      </trkpt>
      <trkpt lat="43.49784" lon="6.93639">
        <ele>64.400001525879</ele>
        <time>2013-12-29T09:53:01.000Z</time>
      </trkpt>
      <trkpt lat="43.49789" lon="6.93637">
        <ele>63</ele>
        <time>2013-12-29T09:53:03.000Z</time>
      </trkpt>
      <trkpt lat="43.4979" lon="6.93636">
        <ele>62.599998474121</ele>
        <time>2013-12-29T09:53:04.000Z</time>
      </trkpt>
      <trkpt lat="43.49792" lon="6.93634">
        <ele>61.799999237061</ele>
        <time>2013-12-29T09:53:07.000Z</time>
      </trkpt>
      <trkpt lat="43.49791" lon="6.93631">
        <ele>61.400001525879</ele>
        <time>2013-12-29T09:53:10.000Z</time>
      </trkpt>
      <trkpt lat="43.49791" lon="6.93631">
        <ele>61.400001525879</ele>
        <time>2013-12-29T09:53:11.000Z</time>
      </trkpt>
      <trkpt lat="43.49792" lon="6.93632">
        <ele>61.200000762939</ele>
        <time>2013-12-29T09:53:25.000Z</time>
      </trkpt>
      <trkpt lat="43.49787" lon="6.93629">
        <ele>62</ele>
        <time>2013-12-29T09:53:54.000Z</time>
      </trkpt>
      <trkpt lat="43.49786" lon="6.9363">
        <ele>62.200000762939</ele>
        <time>2013-12-29T09:54:00.000Z</time>
      </trkpt>
      <trkpt lat="43.49783" lon="6.93629">
        <ele>62.799999237061</ele>
        <time>2013-12-29T09:54:10.000Z</time>
      </trkpt>
      <trkpt lat="43.49777" lon="6.93622">
        <ele>62.799999237061</ele>
        <time>2013-12-29T09:54:15.000Z</time>
      </trkpt>
      <trkpt lat="43.49766" lon="6.93609">
        <ele>62.400001525879</ele>
        <time>2013-12-29T09:54:20.000Z</time>
      </trkpt>
      <trkpt lat="43.49753" lon="6.93591">
        <ele>60.400001525879</ele>
        <time>2013-12-29T09:54:25.000Z</time>
      </trkpt>
      <trkpt lat="43.49739" lon="6.93575">
        <ele>60</ele>
        <time>2013-12-29T09:54:31.000Z</time>
      </trkpt>
      <trkpt lat="43.49725" lon="6.93571">
        <ele>61.400001525879</ele>
        <time>2013-12-29T09:54:37.000Z</time>
      </trkpt>
      <trkpt lat="43.49704" lon="6.93569">
        <ele>63.200000762939</ele>
        <time>2013-12-29T09:54:44.000Z</time>
      </trkpt>
      <trkpt lat="43.49688" lon="6.93581">
        <ele>64.199996948242</ele>
        <time>2013-12-29T09:54:49.000Z</time>
      </trkpt>
      <trkpt lat="43.4967" lon="6.93606">
        <ele>68.800003051758</ele>
        <time>2013-12-29T09:54:56.000Z</time>
      </trkpt>
      <trkpt lat="43.49652" lon="6.93639">
        <ele>74.800003051758</ele>
        <time>2013-12-29T09:55:04.000Z</time>
      </trkpt>
      <trkpt lat="43.49636" lon="6.93657">
        <ele>76.800003051758</ele>
        <time>2013-12-29T09:55:11.000Z</time>
      </trkpt>
      <trkpt lat="43.49626" lon="6.93667">
        <ele>77.199996948242</ele>
        <time>2013-12-29T09:55:17.000Z</time>
      </trkpt>
      <trkpt lat="43.49615" lon="6.93674">
        <ele>78</ele>
        <time>2013-12-29T09:55:23.000Z</time>
      </trkpt>
      <trkpt lat="43.49612" lon="6.93669">
        <ele>77.400001525879</ele>
        <time>2013-12-29T09:55:25.000Z</time>
      </trkpt>
      <trkpt lat="43.49612" lon="6.93665">
        <ele>77</ele>
        <time>2013-12-29T09:55:27.000Z</time>
      </trkpt>
      <trkpt lat="43.49616" lon="6.93661">
        <ele>77.199996948242</ele>
        <time>2013-12-29T09:55:30.000Z</time>
      </trkpt>
      <trkpt lat="43.49616" lon="6.93658">
        <ele>77.400001525879</ele>
        <time>2013-12-29T09:55:32.000Z</time>
      </trkpt>
      <trkpt lat="43.4962" lon="6.93646">
        <ele>77.599998474121</ele>
        <time>2013-12-29T09:55:40.000Z</time>
      </trkpt>
      <trkpt lat="43.49624" lon="6.93634">
        <ele>77.599998474121</ele>
        <time>2013-12-29T09:55:47.000Z</time>
      </trkpt>
      <trkpt lat="43.4963" lon="6.93617">
        <ele>76.800003051758</ele>
        <time>2013-12-29T09:55:54.000Z</time>
      </trkpt>
      <trkpt lat="43.49634" lon="6.93601">
        <ele>75.599998474121</ele>
        <time>2013-12-29T09:56:00.000Z</time>
      </trkpt>
      <trkpt lat="43.49639" lon="6.93583">
        <ele>74</ele>
        <time>2013-12-29T09:56:06.000Z</time>
      </trkpt>
      <trkpt lat="43.49644" lon="6.9356">
        <ele>74.599998474121</ele>
        <time>2013-12-29T09:56:14.000Z</time>
      </trkpt>
      <trkpt lat="43.4965" lon="6.93546">
        <ele>73.400001525879</ele>
        <time>2013-12-29T09:56:20.000Z</time>
      </trkpt>
      <trkpt lat="43.49658" lon="6.93527">
        <ele>71.800003051758</ele>
        <time>2013-12-29T09:56:28.000Z</time>
      </trkpt>
      <trkpt lat="43.49665" lon="6.93502">
        <ele>69.800003051758</ele>
        <time>2013-12-29T09:56:37.000Z</time>
      </trkpt>
      <trkpt lat="43.49666" lon="6.93483">
        <ele>69.199996948242</ele>
        <time>2013-12-29T09:56:44.000Z</time>
      </trkpt>
      <trkpt lat="43.49665" lon="6.93479">
        <ele>69.800003051758</ele>
        <time>2013-12-29T09:56:46.000Z</time>
      </trkpt>
      <trkpt lat="43.49661" lon="6.93469">
        <ele>71</ele>
        <time>2013-12-29T09:56:50.000Z</time>
      </trkpt>
      <trkpt lat="43.49659" lon="6.93456">
        <ele>71.800003051758</ele>
        <time>2013-12-29T09:56:55.000Z</time>
      </trkpt>
      <trkpt lat="43.49654" lon="6.93442">
        <ele>74</ele>
        <time>2013-12-29T09:57:01.000Z</time>
      </trkpt>
      <trkpt lat="43.49646" lon="6.93427">
        <ele>77</ele>
        <time>2013-12-29T09:57:08.000Z</time>
      </trkpt>
      <trkpt lat="43.49636" lon="6.93411">
        <ele>80.800003051758</ele>
        <time>2013-12-29T09:57:15.000Z</time>
      </trkpt>
      <trkpt lat="43.49624" lon="6.93396">
        <ele>85</ele>
        <time>2013-12-29T09:57:22.000Z</time>
      </trkpt>
      <trkpt lat="43.49611" lon="6.93386">
        <ele>89.599998474121</ele>
        <time>2013-12-29T09:57:28.000Z</time>
      </trkpt>
      <trkpt lat="43.49599" lon="6.93379">
        <ele>93.800003051758</ele>
        <time>2013-12-29T09:57:34.000Z</time>
      </trkpt>
      <trkpt lat="43.49583" lon="6.93373">
        <ele>99.400001525879</ele>
        <time>2013-12-29T09:57:41.000Z</time>
      </trkpt>
      <trkpt lat="43.49571" lon="6.93366">
        <ele>103.40000152588</ele>
        <time>2013-12-29T09:57:48.000Z</time>
      </trkpt>
      <trkpt lat="43.49569" lon="6.93359">
        <ele>103.59999847412</ele>
        <time>2013-12-29T09:57:50.000Z</time>
      </trkpt>
      <trkpt lat="43.49571" lon="6.93354">
        <ele>102.19999694824</ele>
        <time>2013-12-29T09:57:52.000Z</time>
      </trkpt>
      <trkpt lat="43.49578" lon="6.93347">
        <ele>99.199996948242</ele>
        <time>2013-12-29T09:57:57.000Z</time>
      </trkpt>
      <trkpt lat="43.49581" lon="6.93344">
        <ele>97.800003051758</ele>
        <time>2013-12-29T09:57:59.000Z</time>
      </trkpt>
      <trkpt lat="43.49586" lon="6.93338">
        <ele>95.599998474121</ele>
        <time>2013-12-29T09:58:02.000Z</time>
      </trkpt>
      <trkpt lat="43.49596" lon="6.93333">
        <ele>91.800003051758</ele>
        <time>2013-12-29T09:58:07.000Z</time>
      </trkpt>
      <trkpt lat="43.49612" lon="6.93322">
        <ele>87.800003051758</ele>
        <time>2013-12-29T09:58:14.000Z</time>
      </trkpt>
      <trkpt lat="43.49621" lon="6.93305">
        <ele>86.199996948242</ele>
        <time>2013-12-29T09:58:20.000Z</time>
      </trkpt>
      <trkpt lat="43.49623" lon="6.93274">
        <ele>88</ele>
        <time>2013-12-29T09:58:29.000Z</time>
      </trkpt>
      <trkpt lat="43.49621" lon="6.9326">
        <ele>89.800003051758</ele>
        <time>2013-12-29T09:58:33.000Z</time>
      </trkpt>
      <trkpt lat="43.49618" lon="6.93254">
        <ele>91.400001525879</ele>
        <time>2013-12-29T09:58:35.000Z</time>
      </trkpt>
      <trkpt lat="43.49604" lon="6.93239">
        <ele>96.800003051758</ele>
        <time>2013-12-29T09:58:41.000Z</time>
      </trkpt>
      <trkpt lat="43.49583" lon="6.93217">
        <ele>104.80000305176</ele>
        <time>2013-12-29T09:58:49.000Z</time>
      </trkpt>
      <trkpt lat="43.49579" lon="6.93204">
        <ele>107</ele>
        <time>2013-12-29T09:58:52.000Z</time>
      </trkpt>
      <trkpt lat="43.4958" lon="6.932">
        <ele>106.80000305176</ele>
        <time>2013-12-29T09:58:53.000Z</time>
      </trkpt>
      <trkpt lat="43.4959" lon="6.93184">
        <ele>104</ele>
        <time>2013-12-29T09:58:59.000Z</time>
      </trkpt>
      <trkpt lat="43.49606" lon="6.93166">
        <ele>99.800003051758</ele>
        <time>2013-12-29T09:59:06.000Z</time>
      </trkpt>
      <trkpt lat="43.49623" lon="6.93145">
        <ele>97</ele>
        <time>2013-12-29T09:59:14.000Z</time>
      </trkpt>
      <trkpt lat="43.49631" lon="6.93121">
        <ele>97.400001525879</ele>
        <time>2013-12-29T09:59:21.000Z</time>
      </trkpt>
      <trkpt lat="43.49635" lon="6.93094">
        <ele>99.800003051758</ele>
        <time>2013-12-29T09:59:29.000Z</time>
      </trkpt>
      <trkpt lat="43.49634" lon="6.93065">
        <ele>101.40000152588</ele>
        <time>2013-12-29T09:59:37.000Z</time>
      </trkpt>
      <trkpt lat="43.49623" lon="6.9305">
        <ele>104.40000152588</ele>
        <time>2013-12-29T09:59:42.000Z</time>
      </trkpt>
      <trkpt lat="43.49606" lon="6.9304">
        <ele>109</ele>
        <time>2013-12-29T09:59:48.000Z</time>
      </trkpt>
      <trkpt lat="43.49591" lon="6.93027">
        <ele>112.40000152588</ele>
        <time>2013-12-29T09:59:54.000Z</time>
      </trkpt>
      <trkpt lat="43.4959" lon="6.93023">
        <ele>112.59999847412</ele>
        <time>2013-12-29T09:59:55.000Z</time>
      </trkpt>
      <trkpt lat="43.49591" lon="6.93008">
        <ele>111.59999847412</ele>
        <time>2013-12-29T09:59:59.000Z</time>
      </trkpt>
      <trkpt lat="43.49592" lon="6.93005">
        <ele>111</ele>
        <time>2013-12-29T10:00:00.000Z</time>
      </trkpt>
      <trkpt lat="43.49594" lon="6.92987">
        <ele>109.40000152588</ele>
        <time>2013-12-29T10:00:05.000Z</time>
      </trkpt>
      <trkpt lat="43.49594" lon="6.92983">
        <ele>109.40000152588</ele>
        <time>2013-12-29T10:00:06.000Z</time>
      </trkpt>
      <trkpt lat="43.49592" lon="6.9298">
        <ele>109.59999847412</ele>
        <time>2013-12-29T10:00:07.000Z</time>
      </trkpt>
      <trkpt lat="43.49585" lon="6.92969">
        <ele>110.40000152588</ele>
        <time>2013-12-29T10:00:11.000Z</time>
      </trkpt>
      <trkpt lat="43.49577" lon="6.92944">
        <ele>111.40000152588</ele>
        <time>2013-12-29T10:00:18.000Z</time>
      </trkpt>
      <trkpt lat="43.49563" lon="6.92914">
        <ele>113.80000305176</ele>
        <time>2013-12-29T10:00:28.000Z</time>
      </trkpt>
      <trkpt lat="43.49549" lon="6.92897">
        <ele>117</ele>
        <time>2013-12-29T10:00:35.000Z</time>
      </trkpt>
      <trkpt lat="43.49536" lon="6.92878">
        <ele>119</ele>
        <time>2013-12-29T10:00:42.000Z</time>
      </trkpt>
      <trkpt lat="43.49519" lon="6.92857">
        <ele>121.40000152588</ele>
        <time>2013-12-29T10:00:50.000Z</time>
      </trkpt>
      <trkpt lat="43.49502" lon="6.92837">
        <ele>123</ele>
        <time>2013-12-29T10:00:58.000Z</time>
      </trkpt>
      <trkpt lat="43.49501" lon="6.92834">
        <ele>122.80000305176</ele>
        <time>2013-12-29T10:00:59.000Z</time>
      </trkpt>
      <trkpt lat="43.495" lon="6.92813">
        <ele>122.19999694824</ele>
        <time>2013-12-29T10:01:05.000Z</time>
      </trkpt>
      <trkpt lat="43.49493" lon="6.92794">
        <ele>121</ele>
        <time>2013-12-29T10:01:11.000Z</time>
      </trkpt>
      <trkpt lat="43.49489" lon="6.92784">
        <ele>120</ele>
        <time>2013-12-29T10:01:16.000Z</time>
      </trkpt>
      <trkpt lat="43.49488" lon="6.92782">
        <ele>119.80000305176</ele>
        <time>2013-12-29T10:01:19.000Z</time>
      </trkpt>
      <trkpt lat="43.49486" lon="6.92779">
        <ele>119.40000152588</ele>
        <time>2013-12-29T10:01:22.000Z</time>
      </trkpt>
      <trkpt lat="43.49485" lon="6.92778">
        <ele>119.19999694824</ele>
        <time>2013-12-29T10:01:23.000Z</time>
      </trkpt>
      <trkpt lat="43.49485" lon="6.92778">
        <ele>119.19999694824</ele>
        <time>2013-12-29T10:01:24.000Z</time>
      </trkpt>
      <trkpt lat="43.49483" lon="6.92776">
        <ele>118.80000305176</ele>
        <time>2013-12-29T10:01:28.000Z</time>
      </trkpt>
      <trkpt lat="43.49481" lon="6.92774">
        <ele>118.40000152588</ele>
        <time>2013-12-29T10:01:33.000Z</time>
      </trkpt>
      <trkpt lat="43.49479" lon="6.92771">
        <ele>118</ele>
        <time>2013-12-29T10:01:39.000Z</time>
      </trkpt>
      <trkpt lat="43.49481" lon="6.92771">
        <ele>118.19999694824</ele>
        <time>2013-12-29T10:01:51.000Z</time>
      </trkpt>
      <trkpt lat="43.49483" lon="6.92772">
        <ele>118.59999847412</ele>
        <time>2013-12-29T10:09:35.000Z</time>
      </trkpt>
      <trkpt lat="43.49484" lon="6.92772">
        <ele>118.80000305176</ele>
        <time>2013-12-29T10:09:43.000Z</time>
      </trkpt>
      <trkpt lat="43.49483" lon="6.9278">
        <ele>119.19999694824</ele>
        <time>2013-12-29T10:14:24.000Z</time>
      </trkpt>
      <trkpt lat="43.49479" lon="6.92796">
        <ele>119.80000305176</ele>
        <time>2013-12-29T10:14:31.000Z</time>
      </trkpt>
      <trkpt lat="43.49473" lon="6.9281">
        <ele>120.40000152588</ele>
        <time>2013-12-29T10:14:37.000Z</time>
      </trkpt>
      <trkpt lat="43.49462" lon="6.92828">
        <ele>121.59999847412</ele>
        <time>2013-12-29T10:14:46.000Z</time>
      </trkpt>
      <trkpt lat="43.49452" lon="6.92843">
        <ele>123.40000152588</ele>
        <time>2013-12-29T10:14:55.000Z</time>
      </trkpt>
      <trkpt lat="43.49441" lon="6.92842">
        <ele>123</ele>
        <time>2013-12-29T10:15:01.000Z</time>
      </trkpt>
      <trkpt lat="43.49426" lon="6.92843">
        <ele>122.59999847412</ele>
        <time>2013-12-29T10:15:09.000Z</time>
      </trkpt>
      <trkpt lat="43.49414" lon="6.92851">
        <ele>123</ele>
        <time>2013-12-29T10:15:16.000Z</time>
      </trkpt>
      <trkpt lat="43.49407" lon="6.92863">
        <ele>122.59999847412</ele>
        <time>2013-12-29T10:15:22.000Z</time>
      </trkpt>
      <trkpt lat="43.49401" lon="6.92881">
        <ele>123.40000152588</ele>
        <time>2013-12-29T10:15:30.000Z</time>
      </trkpt>
      <trkpt lat="43.49402" lon="6.92898">
        <ele>126.19999694824</ele>
        <time>2013-12-29T10:15:36.000Z</time>
      </trkpt>
      <trkpt lat="43.49409" lon="6.92919">
        <ele>131.80000305176</ele>
        <time>2013-12-29T10:15:44.000Z</time>
      </trkpt>
      <trkpt lat="43.49412" lon="6.92944">
        <ele>135.80000305176</ele>
        <time>2013-12-29T10:15:52.000Z</time>
      </trkpt>
      <trkpt lat="43.49406" lon="6.92964">
        <ele>136.60000610352</ele>
        <time>2013-12-29T10:15:59.000Z</time>
      </trkpt>
      <trkpt lat="43.49404" lon="6.92982">
        <ele>138</ele>
        <time>2013-12-29T10:16:06.000Z</time>
      </trkpt>
      <trkpt lat="43.49405" lon="6.92999">
        <ele>140.80000305176</ele>
        <time>2013-12-29T10:16:13.000Z</time>
      </trkpt>
      <trkpt lat="43.49405" lon="6.93021">
        <ele>144</ele>
        <time>2013-12-29T10:16:21.000Z</time>
      </trkpt>
      <trkpt lat="43.49401" lon="6.93043">
        <ele>146.19999694824</ele>
        <time>2013-12-29T10:16:29.000Z</time>
      </trkpt>
      <trkpt lat="43.49394" lon="6.93067">
        <ele>147.60000610352</ele>
        <time>2013-12-29T10:16:38.000Z</time>
      </trkpt>
      <trkpt lat="43.49387" lon="6.93083">
        <ele>148</ele>
        <time>2013-12-29T10:16:45.000Z</time>
      </trkpt>
      <trkpt lat="43.49376" lon="6.93102">
        <ele>147.19999694824</ele>
        <time>2013-12-29T10:16:54.000Z</time>
      </trkpt>
      <trkpt lat="43.49367" lon="6.93119">
        <ele>147</ele>
        <time>2013-12-29T10:17:02.000Z</time>
      </trkpt>
      <trkpt lat="43.49358" lon="6.93143">
        <ele>148.39999389648</ele>
        <time>2013-12-29T10:17:12.000Z</time>
      </trkpt>
      <trkpt lat="43.49355" lon="6.93161">
        <ele>150.60000610352</ele>
        <time>2013-12-29T10:17:19.000Z</time>
      </trkpt>
      <trkpt lat="43.49359" lon="6.93179">
        <ele>153.60000610352</ele>
        <time>2013-12-29T10:17:27.000Z</time>
      </trkpt>
      <trkpt lat="43.49366" lon="6.93195">
        <ele>156.60000610352</ele>
        <time>2013-12-29T10:17:35.000Z</time>
      </trkpt>
      <trkpt lat="43.4937" lon="6.93201">
        <ele>157.80000305176</ele>
        <time>2013-12-29T10:17:40.000Z</time>
      </trkpt>
      <trkpt lat="43.49371" lon="6.932">
        <ele>157.80000305176</ele>
        <time>2013-12-29T10:17:41.000Z</time>
      </trkpt>
      <trkpt lat="43.49371" lon="6.93195">
        <ele>157.19999694824</ele>
        <time>2013-12-29T10:17:46.000Z</time>
      </trkpt>
      <trkpt lat="43.49368" lon="6.93188">
        <ele>156.19999694824</ele>
        <time>2013-12-29T10:17:51.000Z</time>
      </trkpt>
      <trkpt lat="43.49367" lon="6.93182">
        <ele>155.39999389648</ele>
        <time>2013-12-29T10:17:54.000Z</time>
      </trkpt>
      <trkpt lat="43.4937" lon="6.93166">
        <ele>154.39999389648</ele>
        <time>2013-12-29T10:18:01.000Z</time>
      </trkpt>
      <trkpt lat="43.49379" lon="6.93149">
        <ele>154</ele>
        <time>2013-12-29T10:18:08.000Z</time>
      </trkpt>
      <trkpt lat="43.49392" lon="6.93134">
        <ele>155.39999389648</ele>
        <time>2013-12-29T10:18:15.000Z</time>
      </trkpt>
      <trkpt lat="43.49407" lon="6.93126">
        <ele>158</ele>
        <time>2013-12-29T10:18:22.000Z</time>
      </trkpt>
      <trkpt lat="43.49426" lon="6.93118">
        <ele>158.39999389648</ele>
        <time>2013-12-29T10:18:31.000Z</time>
      </trkpt>
      <trkpt lat="43.49435" lon="6.93116">
        <ele>156.60000610352</ele>
        <time>2013-12-29T10:18:37.000Z</time>
      </trkpt>
      <trkpt lat="43.49439" lon="6.93119">
        <ele>156.19999694824</ele>
        <time>2013-12-29T10:18:41.000Z</time>
      </trkpt>
      <trkpt lat="43.4944" lon="6.9312">
        <ele>156</ele>
        <time>2013-12-29T10:18:44.000Z</time>
      </trkpt>
      <trkpt lat="43.49441" lon="6.9312">
        <ele>156</ele>
        <time>2013-12-29T10:18:49.000Z</time>
      </trkpt>
      <trkpt lat="43.4944" lon="6.93124">
        <ele>156.19999694824</ele>
        <time>2013-12-29T10:19:10.000Z</time>
      </trkpt>
      <trkpt lat="43.49441" lon="6.93148">
        <ele>157.19999694824</ele>
        <time>2013-12-29T10:19:15.000Z</time>
      </trkpt>
      <trkpt lat="43.49437" lon="6.93172">
        <ele>159.19999694824</ele>
        <time>2013-12-29T10:19:20.000Z</time>
      </trkpt>
      <trkpt lat="43.49423" lon="6.93196">
        <ele>162.19999694824</ele>
        <time>2013-12-29T10:19:26.000Z</time>
      </trkpt>
      <trkpt lat="43.49408" lon="6.93223">
        <ele>163.19999694824</ele>
        <time>2013-12-29T10:19:33.000Z</time>
      </trkpt>
      <trkpt lat="43.494" lon="6.93251">
        <ele>163.39999389648</ele>
        <time>2013-12-29T10:19:41.000Z</time>
      </trkpt>
      <trkpt lat="43.49398" lon="6.93279">
        <ele>164.39999389648</ele>
        <time>2013-12-29T10:19:48.000Z</time>
      </trkpt>
      <trkpt lat="43.49399" lon="6.93298">
        <ele>165</ele>
        <time>2013-12-29T10:19:53.000Z</time>
      </trkpt>
      <trkpt lat="43.49398" lon="6.93317">
        <ele>165.80000305176</ele>
        <time>2013-12-29T10:19:59.000Z</time>
      </trkpt>
      <trkpt lat="43.49394" lon="6.93322">
        <ele>166.19999694824</ele>
        <time>2013-12-29T10:20:01.000Z</time>
      </trkpt>
      <trkpt lat="43.4939" lon="6.93322">
        <ele>166.60000610352</ele>
        <time>2013-12-29T10:20:03.000Z</time>
      </trkpt>
      <trkpt lat="43.49376" lon="6.93308">
        <ele>167</ele>
        <time>2013-12-29T10:20:10.000Z</time>
      </trkpt>
      <trkpt lat="43.49364" lon="6.93308">
        <ele>167.80000305176</ele>
        <time>2013-12-29T10:20:16.000Z</time>
      </trkpt>
      <trkpt lat="43.49347" lon="6.93313">
        <ele>169.80000305176</ele>
        <time>2013-12-29T10:20:24.000Z</time>
      </trkpt>
      <trkpt lat="43.4934" lon="6.93328">
        <ele>172.39999389648</ele>
        <time>2013-12-29T10:20:30.000Z</time>
      </trkpt>
      <trkpt lat="43.49341" lon="6.93344">
        <ele>173.80000305176</ele>
        <time>2013-12-29T10:20:36.000Z</time>
      </trkpt>
      <trkpt lat="43.49348" lon="6.93355">
        <ele>173.60000610352</ele>
        <time>2013-12-29T10:20:41.000Z</time>
      </trkpt>
      <trkpt lat="43.49354" lon="6.93369">
        <ele>173.80000305176</ele>
        <time>2013-12-29T10:20:47.000Z</time>
      </trkpt>
      <trkpt lat="43.49351" lon="6.9338">
        <ele>174.80000305176</ele>
        <time>2013-12-29T10:20:52.000Z</time>
      </trkpt>
      <trkpt lat="43.49349" lon="6.93385">
        <ele>175.39999389648</ele>
        <time>2013-12-29T10:20:58.000Z</time>
      </trkpt>
      <trkpt lat="43.49348" lon="6.9339">
        <ele>176</ele>
        <time>2013-12-29T10:21:10.000Z</time>
      </trkpt>
      <trkpt lat="43.49344" lon="6.93405">
        <ele>177.39999389648</ele>
        <time>2013-12-29T10:21:15.000Z</time>
      </trkpt>
      <trkpt lat="43.49342" lon="6.93428">
        <ele>178.19999694824</ele>
        <time>2013-12-29T10:21:21.000Z</time>
      </trkpt>
      <trkpt lat="43.49342" lon="6.93432">
        <ele>178.19999694824</ele>
        <time>2013-12-29T10:21:23.000Z</time>
      </trkpt>
      <trkpt lat="43.49341" lon="6.93434">
        <ele>178.39999389648</ele>
        <time>2013-12-29T10:21:25.000Z</time>
      </trkpt>
      <trkpt lat="43.49341" lon="6.93428">
        <ele>178.39999389648</ele>
        <time>2013-12-29T10:21:30.000Z</time>
      </trkpt>
      <trkpt lat="43.49342" lon="6.93428">
        <ele>178.19999694824</ele>
        <time>2013-12-29T10:21:31.000Z</time>
      </trkpt>
      <trkpt lat="43.49343" lon="6.93426">
        <ele>178.19999694824</ele>
        <time>2013-12-29T10:21:33.000Z</time>
      </trkpt>
      <trkpt lat="43.49341" lon="6.93425">
        <ele>178.39999389648</ele>
        <time>2013-12-29T10:21:35.000Z</time>
      </trkpt>
      <trkpt lat="43.49341" lon="6.93437">
        <ele>178.19999694824</ele>
        <time>2013-12-29T10:21:39.000Z</time>
      </trkpt>
      <trkpt lat="43.49341" lon="6.93448">
        <ele>178</ele>
        <time>2013-12-29T10:21:42.000Z</time>
      </trkpt>
      <trkpt lat="43.4934" lon="6.9345">
        <ele>178</ele>
        <time>2013-12-29T10:21:44.000Z</time>
      </trkpt>
      <trkpt lat="43.4934" lon="6.93449">
        <ele>178.19999694824</ele>
        <time>2013-12-29T10:22:05.000Z</time>
      </trkpt>
      <trkpt lat="43.49339" lon="6.93448">
        <ele>178.19999694824</ele>
        <time>2013-12-29T10:22:19.000Z</time>
      </trkpt>
      <trkpt lat="43.49339" lon="6.93447">
        <ele>178.39999389648</ele>
        <time>2013-12-29T10:23:17.000Z</time>
      </trkpt>
      <trkpt lat="43.49342" lon="6.93443">
        <ele>178</ele>
        <time>2013-12-29T10:23:21.000Z</time>
      </trkpt>
      <trkpt lat="43.49345" lon="6.93441">
        <ele>177.39999389648</ele>
        <time>2013-12-29T10:23:23.000Z</time>
      </trkpt>
      <trkpt lat="43.49346" lon="6.93436">
        <ele>177.39999389648</ele>
        <time>2013-12-29T10:23:27.000Z</time>
      </trkpt>
      <trkpt lat="43.49347" lon="6.93438">
        <ele>177.19999694824</ele>
        <time>2013-12-29T10:23:34.000Z</time>
      </trkpt>
      <trkpt lat="43.49342" lon="6.9344">
        <ele>178</ele>
        <time>2013-12-29T10:25:14.000Z</time>
      </trkpt>
      <trkpt lat="43.49342" lon="6.93447">
        <ele>177.80000305176</ele>
        <time>2013-12-29T10:25:19.000Z</time>
      </trkpt>
      <trkpt lat="43.49341" lon="6.93452">
        <ele>178</ele>
        <time>2013-12-29T10:25:24.000Z</time>
      </trkpt>
      <trkpt lat="43.49341" lon="6.93443">
        <ele>178</ele>
        <time>2013-12-29T10:25:28.000Z</time>
      </trkpt>
      <trkpt lat="43.49342" lon="6.93441">
        <ele>178</ele>
        <time>2013-12-29T10:25:29.000Z</time>
      </trkpt>
      <trkpt lat="43.49343" lon="6.93436">
        <ele>178</ele>
        <time>2013-12-29T10:25:32.000Z</time>
      </trkpt>
      <trkpt lat="43.49342" lon="6.93434">
        <ele>178.19999694824</ele>
        <time>2013-12-29T10:25:34.000Z</time>
      </trkpt>
      <trkpt lat="43.49342" lon="6.93434">
        <ele>178.19999694824</ele>
        <time>2013-12-29T10:25:41.000Z</time>
      </trkpt>
      <trkpt lat="43.4934" lon="6.93432">
        <ele>178.60000610352</ele>
        <time>2013-12-29T10:25:48.000Z</time>
      </trkpt>
      <trkpt lat="43.4934" lon="6.93432">
        <ele>178.60000610352</ele>
        <time>2013-12-29T10:25:58.000Z</time>
      </trkpt>
      <trkpt lat="43.49334" lon="6.93426">
        <ele>179.60000610352</ele>
        <time>2013-12-29T10:26:52.000Z</time>
      </trkpt>
      <trkpt lat="43.4933" lon="6.93419">
        <ele>178.80000305176</ele>
        <time>2013-12-29T10:26:54.000Z</time>
      </trkpt>
      <trkpt lat="43.4933" lon="6.93414">
        <ele>178.60000610352</ele>
        <time>2013-12-29T10:26:55.000Z</time>
      </trkpt>
      <trkpt lat="43.49334" lon="6.93397">
        <ele>178.39999389648</ele>
        <time>2013-12-29T10:26:58.000Z</time>
      </trkpt>
      <trkpt lat="43.49331" lon="6.93386">
        <ele>177</ele>
        <time>2013-12-29T10:27:01.000Z</time>
      </trkpt>
      <trkpt lat="43.4933" lon="6.93368">
        <ele>175.19999694824</ele>
        <time>2013-12-29T10:27:04.000Z</time>
      </trkpt>
      <trkpt lat="43.49333" lon="6.93342">
        <ele>174.60000610352</ele>
        <time>2013-12-29T10:27:08.000Z</time>
      </trkpt>
      <trkpt lat="43.49334" lon="6.93335">
        <ele>174</ele>
        <time>2013-12-29T10:27:11.000Z</time>
      </trkpt>
      <trkpt lat="43.49334" lon="6.93333">
        <ele>173.80000305176</ele>
        <time>2013-12-29T10:27:12.000Z</time>
      </trkpt>
      <trkpt lat="43.49333" lon="6.93321">
        <ele>172.19999694824</ele>
        <time>2013-12-29T10:27:16.000Z</time>
      </trkpt>
      <trkpt lat="43.49345" lon="6.93305">
        <ele>168.80000305176</ele>
        <time>2013-12-29T10:27:20.000Z</time>
      </trkpt>
      <trkpt lat="43.49353" lon="6.93291">
        <ele>166.60000610352</ele>
        <time>2013-12-29T10:27:25.000Z</time>
      </trkpt>
      <trkpt lat="43.49355" lon="6.93283">
        <ele>165.60000610352</ele>
        <time>2013-12-29T10:27:29.000Z</time>
      </trkpt>
      <trkpt lat="43.49358" lon="6.93279">
        <ele>165</ele>
        <time>2013-12-29T10:27:32.000Z</time>
      </trkpt>
      <trkpt lat="43.49358" lon="6.93278">
        <ele>165</ele>
        <time>2013-12-29T10:27:33.000Z</time>
      </trkpt>
      <trkpt lat="43.49359" lon="6.93276">
        <ele>164.80000305176</ele>
        <time>2013-12-29T10:27:34.000Z</time>
      </trkpt>
      <trkpt lat="43.4936" lon="6.93271">
        <ele>164.19999694824</ele>
        <time>2013-12-29T10:27:36.000Z</time>
      </trkpt>
      <trkpt lat="43.49362" lon="6.93269">
        <ele>164</ele>
        <time>2013-12-29T10:27:37.000Z</time>
      </trkpt>
      <trkpt lat="43.49364" lon="6.93264">
        <ele>163.39999389648</ele>
        <time>2013-12-29T10:27:39.000Z</time>
      </trkpt>
      <trkpt lat="43.49365" lon="6.93256">
        <ele>162.80000305176</ele>
        <time>2013-12-29T10:27:42.000Z</time>
      </trkpt>
      <trkpt lat="43.49359" lon="6.93246">
        <ele>161.60000610352</ele>
        <time>2013-12-29T10:27:46.000Z</time>
      </trkpt>
      <trkpt lat="43.4935" lon="6.93246">
        <ele>161</ele>
        <time>2013-12-29T10:27:49.000Z</time>
      </trkpt>
      <trkpt lat="43.49346" lon="6.93246">
        <ele>160.80000305176</ele>
        <time>2013-12-29T10:27:50.000Z</time>
      </trkpt>
      <trkpt lat="43.49328" lon="6.93253">
        <ele>159.80000305176</ele>
        <time>2013-12-29T10:27:55.000Z</time>
      </trkpt>
      <trkpt lat="43.49316" lon="6.93261">
        <ele>156.60000610352</ele>
        <time>2013-12-29T10:27:59.000Z</time>
      </trkpt>
      <trkpt lat="43.49303" lon="6.93268">
        <ele>153.19999694824</ele>
        <time>2013-12-29T10:28:04.000Z</time>
      </trkpt>
      <trkpt lat="43.49301" lon="6.93268">
        <ele>152.39999389648</ele>
        <time>2013-12-29T10:28:05.000Z</time>
      </trkpt>
      <trkpt lat="43.493" lon="6.93265">
        <ele>151.60000610352</ele>
        <time>2013-12-29T10:28:07.000Z</time>
      </trkpt>
      <trkpt lat="43.49299" lon="6.93255">
        <ele>149.80000305176</ele>
        <time>2013-12-29T10:28:11.000Z</time>
      </trkpt>
      <trkpt lat="43.4929" lon="6.93257">
        <ele>146.80000305176</ele>
        <time>2013-12-29T10:28:15.000Z</time>
      </trkpt>
      <trkpt lat="43.49287" lon="6.93259">
        <ele>146.19999694824</ele>
        <time>2013-12-29T10:28:16.000Z</time>
      </trkpt>
      <trkpt lat="43.49283" lon="6.93263">
        <ele>145.39999389648</ele>
        <time>2013-12-29T10:28:19.000Z</time>
      </trkpt>
      <trkpt lat="43.49282" lon="6.93265">
        <ele>145.19999694824</ele>
        <time>2013-12-29T10:28:21.000Z</time>
      </trkpt>
      <trkpt lat="43.49277" lon="6.93266">
        <ele>143.39999389648</ele>
        <time>2013-12-29T10:28:24.000Z</time>
      </trkpt>
      <trkpt lat="43.49274" lon="6.93266">
        <ele>142.80000305176</ele>
        <time>2013-12-29T10:28:25.000Z</time>
      </trkpt>
      <trkpt lat="43.49267" lon="6.93269">
        <ele>140.60000610352</ele>
        <time>2013-12-29T10:28:28.000Z</time>
      </trkpt>
      <trkpt lat="43.49266" lon="6.93272">
        <ele>140.39999389648</ele>
        <time>2013-12-29T10:28:29.000Z</time>
      </trkpt>
      <trkpt lat="43.49265" lon="6.93278">
        <ele>140.80000305176</ele>
        <time>2013-12-29T10:28:32.000Z</time>
      </trkpt>
      <trkpt lat="43.49265" lon="6.93278">
        <ele>140.80000305176</ele>
        <time>2013-12-29T10:28:33.000Z</time>
      </trkpt>
      <trkpt lat="43.49261" lon="6.93278">
        <ele>139.39999389648</ele>
        <time>2013-12-29T10:28:44.000Z</time>
      </trkpt>
      <trkpt lat="43.49261" lon="6.9327">
        <ele>138.39999389648</ele>
        <time>2013-12-29T10:28:48.000Z</time>
      </trkpt>
      <trkpt lat="43.49258" lon="6.93263">
        <ele>136.60000610352</ele>
        <time>2013-12-29T10:28:53.000Z</time>
      </trkpt>
      <trkpt lat="43.49256" lon="6.93264">
        <ele>136</ele>
        <time>2013-12-29T10:28:55.000Z</time>
      </trkpt>
      <trkpt lat="43.49256" lon="6.93264">
        <ele>135.80000305176</ele>
        <time>2013-12-29T10:28:56.000Z</time>
      </trkpt>
      <trkpt lat="43.49256" lon="6.93264">
        <ele>135.80000305176</ele>
        <time>2013-12-29T10:28:57.000Z</time>
      </trkpt>
      <trkpt lat="43.49253" lon="6.93266">
        <ele>135.19999694824</ele>
        <time>2013-12-29T10:29:08.000Z</time>
      </trkpt>
      <trkpt lat="43.49253" lon="6.93267">
        <ele>135.19999694824</ele>
        <time>2013-12-29T10:29:09.000Z</time>
      </trkpt>
      <trkpt lat="43.49248" lon="6.93267">
        <ele>133.60000610352</ele>
        <time>2013-12-29T10:29:13.000Z</time>
      </trkpt>
      <trkpt lat="43.49249" lon="6.93254">
        <ele>132.19999694824</ele>
        <time>2013-12-29T10:29:17.000Z</time>
      </trkpt>
      <trkpt lat="43.4925" lon="6.93251">
        <ele>132</ele>
        <time>2013-12-29T10:29:18.000Z</time>
      </trkpt>
      <trkpt lat="43.4925" lon="6.9324">
        <ele>129.80000305176</ele>
        <time>2013-12-29T10:29:22.000Z</time>
      </trkpt>
      <trkpt lat="43.49249" lon="6.93239">
        <ele>129.19999694824</ele>
        <time>2013-12-29T10:29:23.000Z</time>
      </trkpt>
      <trkpt lat="43.49247" lon="6.9324">
        <ele>128.39999389648</ele>
        <time>2013-12-29T10:29:26.000Z</time>
      </trkpt>
      <trkpt lat="43.49246" lon="6.93239">
        <ele>127.80000305176</ele>
        <time>2013-12-29T10:29:32.000Z</time>
      </trkpt>
      <trkpt lat="43.49244" lon="6.93252">
        <ele>129.80000305176</ele>
        <time>2013-12-29T10:30:44.000Z</time>
      </trkpt>
      <trkpt lat="43.49243" lon="6.93252">
        <ele>129.19999694824</ele>
        <time>2013-12-29T10:30:45.000Z</time>
      </trkpt>
      <trkpt lat="43.49235" lon="6.93254">
        <ele>126.19999694824</ele>
        <time>2013-12-29T10:30:50.000Z</time>
      </trkpt>
      <trkpt lat="43.49226" lon="6.93258">
        <ele>123</ele>
        <time>2013-12-29T10:30:55.000Z</time>
      </trkpt>
      <trkpt lat="43.49225" lon="6.93257">
        <ele>122.40000152588</ele>
        <time>2013-12-29T10:30:56.000Z</time>
      </trkpt>
      <trkpt lat="43.49222" lon="6.93258">
        <ele>121.40000152588</ele>
        <time>2013-12-29T10:30:59.000Z</time>
      </trkpt>
      <trkpt lat="43.4922" lon="6.93268">
        <ele>121.40000152588</ele>
        <time>2013-12-29T10:31:03.000Z</time>
      </trkpt>
      <trkpt lat="43.49214" lon="6.93274">
        <ele>119.40000152588</ele>
        <time>2013-12-29T10:31:07.000Z</time>
      </trkpt>
      <trkpt lat="43.49213" lon="6.93275">
        <ele>119</ele>
        <time>2013-12-29T10:31:08.000Z</time>
      </trkpt>
      <trkpt lat="43.49211" lon="6.93278">
        <ele>118.40000152588</ele>
        <time>2013-12-29T10:31:11.000Z</time>
      </trkpt>
      <trkpt lat="43.49208" lon="6.93277">
        <ele>117.19999694824</ele>
        <time>2013-12-29T10:31:15.000Z</time>
      </trkpt>
      <trkpt lat="43.49206" lon="6.93277">
        <ele>116.40000152588</ele>
        <time>2013-12-29T10:31:16.000Z</time>
      </trkpt>
      <trkpt lat="43.49203" lon="6.93276">
        <ele>115</ele>
        <time>2013-12-29T10:31:20.000Z</time>
      </trkpt>
      <trkpt lat="43.49198" lon="6.93266">
        <ele>112</ele>
        <time>2013-12-29T10:31:50.000Z</time>
      </trkpt>
      <trkpt lat="43.4919" lon="6.93255">
        <ele>107.59999847412</ele>
        <time>2013-12-29T10:31:55.000Z</time>
      </trkpt>
      <trkpt lat="43.49181" lon="6.93245">
        <ele>103.19999694824</ele>
        <time>2013-12-29T10:31:59.000Z</time>
      </trkpt>
      <trkpt lat="43.49176" lon="6.93226">
        <ele>99.800003051758</ele>
        <time>2013-12-29T10:32:04.000Z</time>
      </trkpt>
      <trkpt lat="43.49175" lon="6.93223">
        <ele>99.199996948242</ele>
        <time>2013-12-29T10:32:05.000Z</time>
      </trkpt>
      <trkpt lat="43.49171" lon="6.93221">
        <ele>97.599998474121</ele>
        <time>2013-12-29T10:32:07.000Z</time>
      </trkpt>
      <trkpt lat="43.49166" lon="6.93217">
        <ele>95.400001525879</ele>
        <time>2013-12-29T10:32:11.000Z</time>
      </trkpt>
      <trkpt lat="43.49161" lon="6.93208">
        <ele>93.800003051758</ele>
        <time>2013-12-29T10:32:16.000Z</time>
      </trkpt>
      <trkpt lat="43.49155" lon="6.93204">
        <ele>92.199996948242</ele>
        <time>2013-12-29T10:32:20.000Z</time>
      </trkpt>
      <trkpt lat="43.4915" lon="6.93194">
        <ele>90.400001525879</ele>
        <time>2013-12-29T10:32:24.000Z</time>
      </trkpt>
      <trkpt lat="43.49145" lon="6.93183">
        <ele>89.199996948242</ele>
        <time>2013-12-29T10:32:28.000Z</time>
      </trkpt>
      <trkpt lat="43.49141" lon="6.9318">
        <ele>88.400001525879</ele>
        <time>2013-12-29T10:32:30.000Z</time>
      </trkpt>
      <trkpt lat="43.49131" lon="6.93171">
        <ele>86.400001525879</ele>
        <time>2013-12-29T10:32:33.000Z</time>
      </trkpt>
      <trkpt lat="43.49122" lon="6.93167">
        <ele>85</ele>
        <time>2013-12-29T10:32:37.000Z</time>
      </trkpt>
      <trkpt lat="43.4911" lon="6.9317">
        <ele>83</ele>
        <time>2013-12-29T10:32:41.000Z</time>
      </trkpt>
      <trkpt lat="43.49093" lon="6.9317">
        <ele>80.400001525879</ele>
        <time>2013-12-29T10:32:46.000Z</time>
      </trkpt>
      <trkpt lat="43.49085" lon="6.93162">
        <ele>78.599998474121</ele>
        <time>2013-12-29T10:32:50.000Z</time>
      </trkpt>
      <trkpt lat="43.49085" lon="6.93159">
        <ele>78.199996948242</ele>
        <time>2013-12-29T10:32:51.000Z</time>
      </trkpt>
      <trkpt lat="43.49076" lon="6.9315">
        <ele>75.400001525879</ele>
        <time>2013-12-29T10:32:54.000Z</time>
      </trkpt>
      <trkpt lat="43.49069" lon="6.93144">
        <ele>73.199996948242</ele>
        <time>2013-12-29T10:32:56.000Z</time>
      </trkpt>
      <trkpt lat="43.49064" lon="6.9314">
        <ele>71.800003051758</ele>
        <time>2013-12-29T10:32:58.000Z</time>
      </trkpt>
      <trkpt lat="43.49061" lon="6.9314">
        <ele>71.400001525879</ele>
        <time>2013-12-29T10:32:59.000Z</time>
      </trkpt>
      <trkpt lat="43.49056" lon="6.93144">
        <ele>71.199996948242</ele>
        <time>2013-12-29T10:33:01.000Z</time>
      </trkpt>
      <trkpt lat="43.49044" lon="6.93151">
        <ele>70</ele>
        <time>2013-12-29T10:33:06.000Z</time>
      </trkpt>
      <trkpt lat="43.49043" lon="6.93151">
        <ele>70</ele>
        <time>2013-12-29T10:33:07.000Z</time>
      </trkpt>
      <trkpt lat="43.49043" lon="6.93151">
        <ele>69.800003051758</ele>
        <time>2013-12-29T10:33:08.000Z</time>
      </trkpt>
      <trkpt lat="43.4904" lon="6.93151">
        <ele>69.400001525879</ele>
        <time>2013-12-29T10:33:10.000Z</time>
      </trkpt>
      <trkpt lat="43.49034" lon="6.93149">
        <ele>68.199996948242</ele>
        <time>2013-12-29T10:33:15.000Z</time>
      </trkpt>
      <trkpt lat="43.49035" lon="6.9315">
        <ele>68.400001525879</ele>
        <time>2013-12-29T10:33:20.000Z</time>
      </trkpt>
      <trkpt lat="43.49038" lon="6.9315">
        <ele>68.800003051758</ele>
        <time>2013-12-29T10:33:25.000Z</time>
      </trkpt>
      <trkpt lat="43.49038" lon="6.9315">
        <ele>68.800003051758</ele>
        <time>2013-12-29T10:33:30.000Z</time>
      </trkpt>
      <trkpt lat="43.49039" lon="6.93151">
        <ele>69</ele>
        <time>2013-12-29T10:33:37.000Z</time>
      </trkpt>
      <trkpt lat="43.49033" lon="6.93149">
        <ele>67.800003051758</ele>
        <time>2013-12-29T10:33:56.000Z</time>
      </trkpt>
      <trkpt lat="43.49031" lon="6.93149">
        <ele>67.599998474121</ele>
        <time>2013-12-29T10:33:58.000Z</time>
      </trkpt>
      <trkpt lat="43.49031" lon="6.93149">
        <ele>67.599998474121</ele>
        <time>2013-12-29T10:34:00.000Z</time>
      </trkpt>
      <trkpt lat="43.4903" lon="6.93151">
        <ele>67.599998474121</ele>
        <time>2013-12-29T10:34:08.000Z</time>
      </trkpt>
      <trkpt lat="43.49028" lon="6.93153">
        <ele>67.599998474121</ele>
        <time>2013-12-29T10:34:13.000Z</time>
      </trkpt>
      <trkpt lat="43.49029" lon="6.93153">
        <ele>67.800003051758</ele>
        <time>2013-12-29T10:34:19.000Z</time>
      </trkpt>
      <trkpt lat="43.49028" lon="6.93157">
        <ele>68.199996948242</ele>
        <time>2013-12-29T10:34:59.000Z</time>
      </trkpt>
      <trkpt lat="43.49025" lon="6.9316">
        <ele>68</ele>
        <time>2013-12-29T10:41:03.000Z</time>
      </trkpt>
      <trkpt lat="43.49022" lon="6.93156">
        <ele>67.199996948242</ele>
        <time>2013-12-29T10:41:24.000Z</time>
      </trkpt>
      <trkpt lat="43.49021" lon="6.93157">
        <ele>67</ele>
        <time>2013-12-29T10:41:30.000Z</time>
      </trkpt>
      <trkpt lat="43.49022" lon="6.93161">
        <ele>67.800003051758</ele>
        <time>2013-12-29T10:41:42.000Z</time>
      </trkpt>
      <trkpt lat="43.49016" lon="6.93163">
        <ele>67</ele>
        <time>2013-12-29T10:41:46.000Z</time>
      </trkpt>
      <trkpt lat="43.4901" lon="6.93165">
        <ele>66.400001525879</ele>
        <time>2013-12-29T10:41:50.000Z</time>
      </trkpt>
      <trkpt lat="43.49009" lon="6.93167">
        <ele>66.400001525879</ele>
        <time>2013-12-29T10:41:51.000Z</time>
      </trkpt>
      <trkpt lat="43.49009" lon="6.93174">
        <ele>66</ele>
        <time>2013-12-29T10:41:53.000Z</time>
      </trkpt>
      <trkpt lat="43.49011" lon="6.93177">
        <ele>66</ele>
        <time>2013-12-29T10:41:54.000Z</time>
      </trkpt>
      <trkpt lat="43.49026" lon="6.9319">
        <ele>67.599998474121</ele>
        <time>2013-12-29T10:41:59.000Z</time>
      </trkpt>
      <trkpt lat="43.49034" lon="6.93192">
        <ele>68.800003051758</ele>
        <time>2013-12-29T10:42:03.000Z</time>
      </trkpt>
      <trkpt lat="43.49044" lon="6.93202">
        <ele>69.599998474121</ele>
        <time>2013-12-29T10:42:07.000Z</time>
      </trkpt>
      <trkpt lat="43.49049" lon="6.93219">
        <ele>69.199996948242</ele>
        <time>2013-12-29T10:42:11.000Z</time>
      </trkpt>
      <trkpt lat="43.4905" lon="6.93225">
        <ele>68.800003051758</ele>
        <time>2013-12-29T10:42:13.000Z</time>
      </trkpt>
      <trkpt lat="43.4905" lon="6.93231">
        <ele>68.400001525879</ele>
        <time>2013-12-29T10:42:15.000Z</time>
      </trkpt>
      <trkpt lat="43.49046" lon="6.93229">
        <ele>67.800003051758</ele>
        <time>2013-12-29T10:42:18.000Z</time>
      </trkpt>
      <trkpt lat="43.49035" lon="6.93215">
        <ele>67.199996948242</ele>
        <time>2013-12-29T10:42:23.000Z</time>
      </trkpt>
      <trkpt lat="43.49033" lon="6.93213">
        <ele>67</ele>
        <time>2013-12-29T10:42:24.000Z</time>
      </trkpt>
      <trkpt lat="43.49029" lon="6.93214">
        <ele>66.400001525879</ele>
        <time>2013-12-29T10:42:26.000Z</time>
      </trkpt>
      <trkpt lat="43.49022" lon="6.93215">
        <ele>65</ele>
        <time>2013-12-29T10:42:31.000Z</time>
      </trkpt>
      <trkpt lat="43.49014" lon="6.93216">
        <ele>63.799999237061</ele>
        <time>2013-12-29T10:42:34.000Z</time>
      </trkpt>
      <trkpt lat="43.49012" lon="6.93216">
        <ele>63.400001525879</ele>
        <time>2013-12-29T10:42:35.000Z</time>
      </trkpt>
      <trkpt lat="43.49002" lon="6.93222">
        <ele>61.200000762939</ele>
        <time>2013-12-29T10:42:40.000Z</time>
      </trkpt>
      <trkpt lat="43.48998" lon="6.93226">
        <ele>60.400001525879</ele>
        <time>2013-12-29T10:42:44.000Z</time>
      </trkpt>
      <trkpt lat="43.48999" lon="6.93227">
        <ele>60.400001525879</ele>
        <time>2013-12-29T10:42:45.000Z</time>
      </trkpt>
      <trkpt lat="43.49002" lon="6.9323">
        <ele>60.799999237061</ele>
        <time>2013-12-29T10:42:50.000Z</time>
      </trkpt>
      <trkpt lat="43.49002" lon="6.93236">
        <ele>60.400001525879</ele>
        <time>2013-12-29T10:42:55.000Z</time>
      </trkpt>
      <trkpt lat="43.49" lon="6.93238">
        <ele>59.799999237061</ele>
        <time>2013-12-29T10:42:58.000Z</time>
      </trkpt>
      <trkpt lat="43.49" lon="6.93239">
        <ele>59.799999237061</ele>
        <time>2013-12-29T10:43:00.000Z</time>
      </trkpt>
      <trkpt lat="43.48994" lon="6.93243">
        <ele>58.599998474121</ele>
        <time>2013-12-29T10:43:04.000Z</time>
      </trkpt>
      <trkpt lat="43.48992" lon="6.93243">
        <ele>58.400001525879</ele>
        <time>2013-12-29T10:43:05.000Z</time>
      </trkpt>
      <trkpt lat="43.48989" lon="6.93242">
        <ele>58.200000762939</ele>
        <time>2013-12-29T10:43:07.000Z</time>
      </trkpt>
      <trkpt lat="43.48986" lon="6.93239">
        <ele>57.799999237061</ele>
        <time>2013-12-29T10:43:09.000Z</time>
      </trkpt>
      <trkpt lat="43.48976" lon="6.93229">
        <ele>57</ele>
        <time>2013-12-29T10:43:13.000Z</time>
      </trkpt>
      <trkpt lat="43.48964" lon="6.93209">
        <ele>55.799999237061</ele>
        <time>2013-12-29T10:43:18.000Z</time>
      </trkpt>
      <trkpt lat="43.48962" lon="6.93189">
        <ele>55.799999237061</ele>
        <time>2013-12-29T10:43:24.000Z</time>
      </trkpt>
      <trkpt lat="43.48963" lon="6.93187">
        <ele>56.200000762939</ele>
        <time>2013-12-29T10:43:28.000Z</time>
      </trkpt>
      <trkpt lat="43.48967" lon="6.93176">
        <ele>57.200000762939</ele>
        <time>2013-12-29T10:43:52.000Z</time>
      </trkpt>
      <trkpt lat="43.48978" lon="6.93164">
        <ele>59.599998474121</ele>
        <time>2013-12-29T10:43:57.000Z</time>
      </trkpt>
      <trkpt lat="43.48989" lon="6.93147">
        <ele>59.799999237061</ele>
        <time>2013-12-29T10:44:02.000Z</time>
      </trkpt>
      <trkpt lat="43.48999" lon="6.93121">
        <ele>57.799999237061</ele>
        <time>2013-12-29T10:44:07.000Z</time>
      </trkpt>
      <trkpt lat="43.49011" lon="6.93113">
        <ele>58.599998474121</ele>
        <time>2013-12-29T10:44:11.000Z</time>
      </trkpt>
      <trkpt lat="43.49027" lon="6.93104">
        <ele>60</ele>
        <time>2013-12-29T10:44:17.000Z</time>
      </trkpt>
      <trkpt lat="43.49041" lon="6.93102">
        <ele>62.200000762939</ele>
        <time>2013-12-29T10:44:24.000Z</time>
      </trkpt>
      <trkpt lat="43.49054" lon="6.93095">
        <ele>63.400001525879</ele>
        <time>2013-12-29T10:44:31.000Z</time>
      </trkpt>
      <trkpt lat="43.49066" lon="6.93089">
        <ele>64.800003051758</ele>
        <time>2013-12-29T10:44:38.000Z</time>
      </trkpt>
      <trkpt lat="43.49079" lon="6.93084">
        <ele>66.199996948242</ele>
        <time>2013-12-29T10:44:45.000Z</time>
      </trkpt>
      <trkpt lat="43.49092" lon="6.93087">
        <ele>68</ele>
        <time>2013-12-29T10:44:51.000Z</time>
      </trkpt>
      <trkpt lat="43.49102" lon="6.93096">
        <ele>70.199996948242</ele>
        <time>2013-12-29T10:44:57.000Z</time>
      </trkpt>
      <trkpt lat="43.49117" lon="6.93109">
        <ele>73.599998474121</ele>
        <time>2013-12-29T10:45:05.000Z</time>
      </trkpt>
      <trkpt lat="43.49129" lon="6.93115">
        <ele>76</ele>
        <time>2013-12-29T10:45:12.000Z</time>
      </trkpt>
      <trkpt lat="43.49144" lon="6.93123">
        <ele>79.199996948242</ele>
        <time>2013-12-29T10:45:20.000Z</time>
      </trkpt>
      <trkpt lat="43.49153" lon="6.93128">
        <ele>81</ele>
        <time>2013-12-29T10:45:26.000Z</time>
      </trkpt>
      <trkpt lat="43.49166" lon="6.93126">
        <ele>82.199996948242</ele>
        <time>2013-12-29T10:45:33.000Z</time>
      </trkpt>
      <trkpt lat="43.4918" lon="6.93131">
        <ele>87</ele>
        <time>2013-12-29T10:45:39.000Z</time>
      </trkpt>
      <trkpt lat="43.49198" lon="6.9313">
        <ele>91.599998474121</ele>
        <time>2013-12-29T10:45:46.000Z</time>
      </trkpt>
      <trkpt lat="43.49214" lon="6.93116">
        <ele>92.800003051758</ele>
        <time>2013-12-29T10:45:53.000Z</time>
      </trkpt>
      <trkpt lat="43.49215" lon="6.931">
        <ele>89.599998474121</ele>
        <time>2013-12-29T10:45:57.000Z</time>
      </trkpt>
      <trkpt lat="43.49219" lon="6.93079">
        <ele>86.400001525879</ele>
        <time>2013-12-29T10:46:04.000Z</time>
      </trkpt>
      <trkpt lat="43.49228" lon="6.93058">
        <ele>85.199996948242</ele>
        <time>2013-12-29T10:46:11.000Z</time>
      </trkpt>
      <trkpt lat="43.49245" lon="6.93046">
        <ele>87.599998474121</ele>
        <time>2013-12-29T10:46:18.000Z</time>
      </trkpt>
      <trkpt lat="43.49261" lon="6.93038">
        <ele>92.599998474121</ele>
        <time>2013-12-29T10:46:25.000Z</time>
      </trkpt>
      <trkpt lat="43.49275" lon="6.93025">
        <ele>96.199996948242</ele>
        <time>2013-12-29T10:46:32.000Z</time>
      </trkpt>
      <trkpt lat="43.49279" lon="6.93015">
        <ele>95.800003051758</ele>
        <time>2013-12-29T10:46:36.000Z</time>
      </trkpt>
      <trkpt lat="43.49277" lon="6.92997">
        <ele>92.199996948242</ele>
        <time>2013-12-29T10:46:42.000Z</time>
      </trkpt>
      <trkpt lat="43.49281" lon="6.92972">
        <ele>90.599998474121</ele>
        <time>2013-12-29T10:46:50.000Z</time>
      </trkpt>
      <trkpt lat="43.49292" lon="6.9295">
        <ele>92.199996948242</ele>
        <time>2013-12-29T10:46:58.000Z</time>
      </trkpt>
      <trkpt lat="43.493" lon="6.92939">
        <ele>94.199996948242</ele>
        <time>2013-12-29T10:47:03.000Z</time>
      </trkpt>
      <trkpt lat="43.49313" lon="6.92928">
        <ele>98</ele>
        <time>2013-12-29T10:47:09.000Z</time>
      </trkpt>
      <trkpt lat="43.49327" lon="6.92915">
        <ele>102.19999694824</ele>
        <time>2013-12-29T10:47:16.000Z</time>
      </trkpt>
      <trkpt lat="43.49335" lon="6.92902">
        <ele>103.80000305176</ele>
        <time>2013-12-29T10:47:21.000Z</time>
      </trkpt>
      <trkpt lat="43.49337" lon="6.9288">
        <ele>101.80000305176</ele>
        <time>2013-12-29T10:47:27.000Z</time>
      </trkpt>
      <trkpt lat="43.49341" lon="6.92858">
        <ele>100.19999694824</ele>
        <time>2013-12-29T10:47:35.000Z</time>
      </trkpt>
      <trkpt lat="43.49344" lon="6.92838">
        <ele>99.199996948242</ele>
        <time>2013-12-29T10:47:42.000Z</time>
      </trkpt>
      <trkpt lat="43.49356" lon="6.9282">
        <ele>101</ele>
        <time>2013-12-29T10:47:50.000Z</time>
      </trkpt>
      <trkpt lat="43.49374" lon="6.92802">
        <ele>104</ele>
        <time>2013-12-29T10:47:59.000Z</time>
      </trkpt>
      <trkpt lat="43.49391" lon="6.92793">
        <ele>107.19999694824</ele>
        <time>2013-12-29T10:48:07.000Z</time>
      </trkpt>
      <trkpt lat="43.49413" lon="6.92787">
        <ele>111.80000305176</ele>
        <time>2013-12-29T10:48:16.000Z</time>
      </trkpt>
      <trkpt lat="43.49429" lon="6.92795">
        <ele>115.19999694824</ele>
        <time>2013-12-29T10:48:23.000Z</time>
      </trkpt>
      <trkpt lat="43.49445" lon="6.92805">
        <ele>118</ele>
        <time>2013-12-29T10:48:31.000Z</time>
      </trkpt>
      <trkpt lat="43.49453" lon="6.92798">
        <ele>117.59999847412</ele>
        <time>2013-12-29T10:48:35.000Z</time>
      </trkpt>
      <trkpt lat="43.49467" lon="6.92785">
        <ele>117.80000305176</ele>
        <time>2013-12-29T10:48:43.000Z</time>
      </trkpt>
      <trkpt lat="43.49478" lon="6.92779">
        <ele>118.40000152588</ele>
        <time>2013-12-29T10:48:50.000Z</time>
      </trkpt>
      <trkpt lat="43.49485" lon="6.92773">
        <ele>119</ele>
        <time>2013-12-29T10:48:57.000Z</time>
      </trkpt>
      <trkpt lat="43.49486" lon="6.92772">
        <ele>119</ele>
        <time>2013-12-29T10:48:58.000Z</time>
      </trkpt>
      <trkpt lat="43.49485" lon="6.92768">
        <ele>118.59999847412</ele>
        <time>2013-12-29T10:49:02.000Z</time>
      </trkpt>
      <trkpt lat="43.49484" lon="6.92773">
        <ele>118.80000305176</ele>
        <time>2013-12-29T10:49:08.000Z</time>
      </trkpt>
      <trkpt lat="43.49486" lon="6.92774">
        <ele>119</ele>
        <time>2013-12-29T10:49:12.000Z</time>
      </trkpt>
      <trkpt lat="43.49487" lon="6.92773">
        <ele>119.19999694824</ele>
        <time>2013-12-29T10:49:19.000Z</time>
      </trkpt>
      <trkpt lat="43.49487" lon="6.92773">
        <ele>119.19999694824</ele>
        <time>2013-12-29T10:49:25.000Z</time>
      </trkpt>
      <trkpt lat="43.49487" lon="6.92777">
        <ele>119.40000152588</ele>
        <time>2013-12-29T10:53:22.000Z</time>
      </trkpt>
      <trkpt lat="43.49487" lon="6.92775">
        <ele>119.19999694824</ele>
        <time>2013-12-29T10:54:07.000Z</time>
      </trkpt>
      <trkpt lat="43.49487" lon="6.92784">
        <ele>119.80000305176</ele>
        <time>2013-12-29T10:54:31.000Z</time>
      </trkpt>
      <trkpt lat="43.49483" lon="6.928">
        <ele>120.40000152588</ele>
        <time>2013-12-29T10:54:38.000Z</time>
      </trkpt>
      <trkpt lat="43.49477" lon="6.92811">
        <ele>120.80000305176</ele>
        <time>2013-12-29T10:54:43.000Z</time>
      </trkpt>
      <trkpt lat="43.49464" lon="6.92827">
        <ele>121.59999847412</ele>
        <time>2013-12-29T10:54:51.000Z</time>
      </trkpt>
      <trkpt lat="43.49449" lon="6.92844">
        <ele>123.40000152588</ele>
        <time>2013-12-29T10:55:00.000Z</time>
      </trkpt>
      <trkpt lat="43.4944" lon="6.92842">
        <ele>123</ele>
        <time>2013-12-29T10:55:05.000Z</time>
      </trkpt>
      <trkpt lat="43.49421" lon="6.92845">
        <ele>122.80000305176</ele>
        <time>2013-12-29T10:55:14.000Z</time>
      </trkpt>
      <trkpt lat="43.49408" lon="6.92856">
        <ele>121.80000305176</ele>
        <time>2013-12-29T10:55:21.000Z</time>
      </trkpt>
      <trkpt lat="43.49399" lon="6.92877">
        <ele>122</ele>
        <time>2013-12-29T10:55:29.000Z</time>
      </trkpt>
      <trkpt lat="43.49401" lon="6.92901">
        <ele>126</ele>
        <time>2013-12-29T10:55:36.000Z</time>
      </trkpt>
      <trkpt lat="43.49408" lon="6.92925">
        <ele>132</ele>
        <time>2013-12-29T10:55:44.000Z</time>
      </trkpt>
      <trkpt lat="43.4941" lon="6.92943">
        <ele>135.19999694824</ele>
        <time>2013-12-29T10:55:50.000Z</time>
      </trkpt>
      <trkpt lat="43.49405" lon="6.92964">
        <ele>136.19999694824</ele>
        <time>2013-12-29T10:55:57.000Z</time>
      </trkpt>
      <trkpt lat="43.49403" lon="6.92986">
        <ele>138.39999389648</ele>
        <time>2013-12-29T10:56:05.000Z</time>
      </trkpt>
      <trkpt lat="43.49407" lon="6.93007">
        <ele>142.60000610352</ele>
        <time>2013-12-29T10:56:12.000Z</time>
      </trkpt>
      <trkpt lat="43.49407" lon="6.93021">
        <ele>144.80000305176</ele>
        <time>2013-12-29T10:56:17.000Z</time>
      </trkpt>
      <trkpt lat="43.49405" lon="6.93045">
        <ele>147.80000305176</ele>
        <time>2013-12-29T10:56:24.000Z</time>
      </trkpt>
      <trkpt lat="43.49401" lon="6.93062">
        <ele>149</ele>
        <time>2013-12-29T10:56:30.000Z</time>
      </trkpt>
      <trkpt lat="43.49391" lon="6.93085">
        <ele>149.60000610352</ele>
        <time>2013-12-29T10:56:39.000Z</time>
      </trkpt>
      <trkpt lat="43.49378" lon="6.93105">
        <ele>148.19999694824</ele>
        <time>2013-12-29T10:56:47.000Z</time>
      </trkpt>
      <trkpt lat="43.49368" lon="6.93122">
        <ele>147.60000610352</ele>
        <time>2013-12-29T10:56:54.000Z</time>
      </trkpt>
      <trkpt lat="43.49357" lon="6.93151">
        <ele>149.39999389648</ele>
        <time>2013-12-29T10:57:05.000Z</time>
      </trkpt>
      <trkpt lat="43.49357" lon="6.93169">
        <ele>152.19999694824</ele>
        <time>2013-12-29T10:57:12.000Z</time>
      </trkpt>
      <trkpt lat="43.49362" lon="6.93187">
        <ele>155</ele>
        <time>2013-12-29T10:57:19.000Z</time>
      </trkpt>
      <trkpt lat="43.4937" lon="6.93202">
        <ele>157.80000305176</ele>
        <time>2013-12-29T10:57:27.000Z</time>
      </trkpt>
      <trkpt lat="43.49371" lon="6.93201">
        <ele>157.80000305176</ele>
        <time>2013-12-29T10:57:28.000Z</time>
      </trkpt>
      <trkpt lat="43.4937" lon="6.93193">
        <ele>156.80000305176</ele>
        <time>2013-12-29T10:57:31.000Z</time>
      </trkpt>
      <trkpt lat="43.49369" lon="6.9319">
        <ele>156.39999389648</ele>
        <time>2013-12-29T10:57:32.000Z</time>
      </trkpt>
      <trkpt lat="43.49368" lon="6.9317">
        <ele>154.39999389648</ele>
        <time>2013-12-29T10:57:38.000Z</time>
      </trkpt>
      <trkpt lat="43.49378" lon="6.9315">
        <ele>154</ele>
        <time>2013-12-29T10:57:45.000Z</time>
      </trkpt>
      <trkpt lat="43.49394" lon="6.93134">
        <ele>155.80000305176</ele>
        <time>2013-12-29T10:57:53.000Z</time>
      </trkpt>
      <trkpt lat="43.49415" lon="6.93122">
        <ele>159.80000305176</ele>
        <time>2013-12-29T10:58:01.000Z</time>
      </trkpt>
      <trkpt lat="43.49435" lon="6.93117">
        <ele>156.60000610352</ele>
        <time>2013-12-29T10:58:08.000Z</time>
      </trkpt>
      <trkpt lat="43.49439" lon="6.93121">
        <ele>156.19999694824</ele>
        <time>2013-12-29T10:58:10.000Z</time>
      </trkpt>
      <trkpt lat="43.4944" lon="6.93128">
        <ele>156.39999389648</ele>
        <time>2013-12-29T10:58:12.000Z</time>
      </trkpt>
      <trkpt lat="43.49441" lon="6.93153">
        <ele>157.39999389648</ele>
        <time>2013-12-29T10:58:17.000Z</time>
      </trkpt>
      <trkpt lat="43.49431" lon="6.93187">
        <ele>160.19999694824</ele>
        <time>2013-12-29T10:58:23.000Z</time>
      </trkpt>
      <trkpt lat="43.49411" lon="6.93223">
        <ele>163.60000610352</ele>
        <time>2013-12-29T10:58:29.000Z</time>
      </trkpt>
      <trkpt lat="43.49405" lon="6.93236">
        <ele>163.19999694824</ele>
        <time>2013-12-29T10:58:32.000Z</time>
      </trkpt>
      <trkpt lat="43.49402" lon="6.93246">
        <ele>163.39999389648</ele>
        <time>2013-12-29T10:58:34.000Z</time>
      </trkpt>
      <trkpt lat="43.49399" lon="6.93257">
        <ele>163.60000610352</ele>
        <time>2013-12-29T10:58:37.000Z</time>
      </trkpt>
      <trkpt lat="43.49398" lon="6.93265">
        <ele>163.80000305176</ele>
        <time>2013-12-29T10:58:39.000Z</time>
      </trkpt>
      <trkpt lat="43.49391" lon="6.93282">
        <ele>164.60000610352</ele>
        <time>2013-12-29T10:58:44.000Z</time>
      </trkpt>
      <trkpt lat="43.49384" lon="6.93293">
        <ele>165.39999389648</ele>
        <time>2013-12-29T10:58:49.000Z</time>
      </trkpt>
      <trkpt lat="43.49378" lon="6.933">
        <ele>166.19999694824</ele>
        <time>2013-12-29T10:58:53.000Z</time>
      </trkpt>
      <trkpt lat="43.49376" lon="6.93304">
        <ele>166.60000610352</ele>
        <time>2013-12-29T10:58:55.000Z</time>
      </trkpt>
      <trkpt lat="43.49369" lon="6.93307">
        <ele>167.39999389648</ele>
        <time>2013-12-29T10:59:00.000Z</time>
      </trkpt>
      <trkpt lat="43.4936" lon="6.93309">
        <ele>168.19999694824</ele>
        <time>2013-12-29T10:59:05.000Z</time>
      </trkpt>
      <trkpt lat="43.49348" lon="6.93313">
        <ele>169.60000610352</ele>
        <time>2013-12-29T10:59:12.000Z</time>
      </trkpt>
      <trkpt lat="43.49341" lon="6.93325">
        <ele>171.80000305176</ele>
        <time>2013-12-29T10:59:19.000Z</time>
      </trkpt>
      <trkpt lat="43.49338" lon="6.93339">
        <ele>173.80000305176</ele>
        <time>2013-12-29T10:59:25.000Z</time>
      </trkpt>
      <trkpt lat="43.49341" lon="6.93348">
        <ele>174</ele>
        <time>2013-12-29T10:59:30.000Z</time>
      </trkpt>
      <trkpt lat="43.49351" lon="6.93362">
        <ele>173.60000610352</ele>
        <time>2013-12-29T10:59:38.000Z</time>
      </trkpt>
      <trkpt lat="43.49352" lon="6.9337">
        <ele>174</ele>
        <time>2013-12-29T10:59:41.000Z</time>
      </trkpt>
      <trkpt lat="43.49351" lon="6.93375">
        <ele>174.39999389648</ele>
        <time>2013-12-29T10:59:43.000Z</time>
      </trkpt>
      <trkpt lat="43.49352" lon="6.93383">
        <ele>174.80000305176</ele>
        <time>2013-12-29T10:59:48.000Z</time>
      </trkpt>
      <trkpt lat="43.49353" lon="6.93384">
        <ele>174.80000305176</ele>
        <time>2013-12-29T10:59:54.000Z</time>
      </trkpt>
      <trkpt lat="43.49348" lon="6.9339">
        <ele>175.80000305176</ele>
        <time>2013-12-29T11:02:07.000Z</time>
      </trkpt>
      <trkpt lat="43.49343" lon="6.93411">
        <ele>178</ele>
        <time>2013-12-29T11:02:12.000Z</time>
      </trkpt>
      <trkpt lat="43.4934" lon="6.93446">
        <ele>178.19999694824</ele>
        <time>2013-12-29T11:02:18.000Z</time>
      </trkpt>
      <trkpt lat="43.49332" lon="6.9348">
        <ele>178</ele>
        <time>2013-12-29T11:02:24.000Z</time>
      </trkpt>
      <trkpt lat="43.49331" lon="6.93488">
        <ele>177.60000610352</ele>
        <time>2013-12-29T11:02:25.000Z</time>
      </trkpt>
      <trkpt lat="43.49334" lon="6.93508">
        <ele>177.60000610352</ele>
        <time>2013-12-29T11:02:27.000Z</time>
      </trkpt>
      <trkpt lat="43.49336" lon="6.93519">
        <ele>176.60000610352</ele>
        <time>2013-12-29T11:02:28.000Z</time>
      </trkpt>
      <trkpt lat="43.49343" lon="6.9354">
        <ele>174.19999694824</ele>
        <time>2013-12-29T11:02:30.000Z</time>
      </trkpt>
      <trkpt lat="43.49345" lon="6.93578">
        <ele>171.39999389648</ele>
        <time>2013-12-29T11:02:33.000Z</time>
      </trkpt>
      <trkpt lat="43.49336" lon="6.93613">
        <ele>174</ele>
        <time>2013-12-29T11:02:36.000Z</time>
      </trkpt>
      <trkpt lat="43.49327" lon="6.9365">
        <ele>174</ele>
        <time>2013-12-29T11:02:40.000Z</time>
      </trkpt>
      <trkpt lat="43.49322" lon="6.93677">
        <ele>173.80000305176</ele>
        <time>2013-12-29T11:02:44.000Z</time>
      </trkpt>
      <trkpt lat="43.4932" lon="6.93696">
        <ele>173.39999389648</ele>
        <time>2013-12-29T11:02:49.000Z</time>
      </trkpt>
      <trkpt lat="43.4932" lon="6.937">
        <ele>173.19999694824</ele>
        <time>2013-12-29T11:02:50.000Z</time>
      </trkpt>
      <trkpt lat="43.49315" lon="6.93725">
        <ele>172.60000610352</ele>
        <time>2013-12-29T11:02:56.000Z</time>
      </trkpt>
      <trkpt lat="43.4931" lon="6.93741">
        <ele>172.19999694824</ele>
        <time>2013-12-29T11:03:02.000Z</time>
      </trkpt>
      <trkpt lat="43.49309" lon="6.93744">
        <ele>172</ele>
        <time>2013-12-29T11:03:05.000Z</time>
      </trkpt>
      <trkpt lat="43.49309" lon="6.93749">
        <ele>172</ele>
        <time>2013-12-29T11:03:09.000Z</time>
      </trkpt>
      <trkpt lat="43.49309" lon="6.93749">
        <ele>172</ele>
        <time>2013-12-29T11:03:10.000Z</time>
      </trkpt>
      <trkpt lat="43.49309" lon="6.93749">
        <ele>172</ele>
        <time>2013-12-29T11:03:15.000Z</time>
      </trkpt>
      <trkpt lat="43.49309" lon="6.93753">
        <ele>172.19999694824</ele>
        <time>2013-12-29T11:03:25.000Z</time>
      </trkpt>
      <trkpt lat="43.49309" lon="6.93756">
        <ele>172.19999694824</ele>
        <time>2013-12-29T11:03:27.000Z</time>
      </trkpt>
      <trkpt lat="43.4931" lon="6.93761">
        <ele>172.39999389648</ele>
        <time>2013-12-29T11:03:33.000Z</time>
      </trkpt>
      <trkpt lat="43.4931" lon="6.93754">
        <ele>172.19999694824</ele>
        <time>2013-12-29T11:03:37.000Z</time>
      </trkpt>
      <trkpt lat="43.49308" lon="6.93752">
        <ele>172</ele>
        <time>2013-12-29T11:03:40.000Z</time>
      </trkpt>
      <trkpt lat="43.49309" lon="6.93752">
        <ele>172</ele>
        <time>2013-12-29T11:03:42.000Z</time>
      </trkpt>
      <trkpt lat="43.49302" lon="6.93749">
        <ele>171.19999694824</ele>
        <time>2013-12-29T11:06:23.000Z</time>
      </trkpt>
      <trkpt lat="43.49296" lon="6.93727">
        <ele>170</ele>
        <time>2013-12-29T11:06:27.000Z</time>
      </trkpt>
      <trkpt lat="43.49296" lon="6.93705">
        <ele>169.39999389648</ele>
        <time>2013-12-29T11:06:31.000Z</time>
      </trkpt>
      <trkpt lat="43.49301" lon="6.93694">
        <ele>170</ele>
        <time>2013-12-29T11:06:33.000Z</time>
      </trkpt>
      <trkpt lat="43.49304" lon="6.9369">
        <ele>170.39999389648</ele>
        <time>2013-12-29T11:06:34.000Z</time>
      </trkpt>
      <trkpt lat="43.4932" lon="6.93671">
        <ele>173.39999389648</ele>
        <time>2013-12-29T11:06:38.000Z</time>
      </trkpt>
      <trkpt lat="43.49328" lon="6.93658">
        <ele>174.60000610352</ele>
        <time>2013-12-29T11:06:40.000Z</time>
      </trkpt>
      <trkpt lat="43.49331" lon="6.93645">
        <ele>175</ele>
        <time>2013-12-29T11:06:42.000Z</time>
      </trkpt>
      <trkpt lat="43.49334" lon="6.93619">
        <ele>174.60000610352</ele>
        <time>2013-12-29T11:06:46.000Z</time>
      </trkpt>
      <trkpt lat="43.49339" lon="6.93604">
        <ele>173</ele>
        <time>2013-12-29T11:06:48.000Z</time>
      </trkpt>
      <trkpt lat="43.49346" lon="6.93587">
        <ele>170.80000305176</ele>
        <time>2013-12-29T11:06:50.000Z</time>
      </trkpt>
      <trkpt lat="43.49359" lon="6.93565">
        <ele>169</ele>
        <time>2013-12-29T11:06:54.000Z</time>
      </trkpt>
      <trkpt lat="43.49367" lon="6.93551">
        <ele>168.39999389648</ele>
        <time>2013-12-29T11:06:58.000Z</time>
      </trkpt>
      <trkpt lat="43.4937" lon="6.93549">
        <ele>168</ele>
        <time>2013-12-29T11:06:59.000Z</time>
      </trkpt>
      <trkpt lat="43.49379" lon="6.93534">
        <ele>167.39999389648</ele>
        <time>2013-12-29T11:07:03.000Z</time>
      </trkpt>
      <trkpt lat="43.49387" lon="6.93516">
        <ele>168</ele>
        <time>2013-12-29T11:07:07.000Z</time>
      </trkpt>
      <trkpt lat="43.49388" lon="6.93511">
        <ele>168.39999389648</ele>
        <time>2013-12-29T11:07:08.000Z</time>
      </trkpt>
      <trkpt lat="43.4939" lon="6.93503">
        <ele>168.80000305176</ele>
        <time>2013-12-29T11:07:10.000Z</time>
      </trkpt>
      <trkpt lat="43.49393" lon="6.93499">
        <ele>168.80000305176</ele>
        <time>2013-12-29T11:07:12.000Z</time>
      </trkpt>
      <trkpt lat="43.49395" lon="6.93492">
        <ele>168.39999389648</ele>
        <time>2013-12-29T11:07:15.000Z</time>
      </trkpt>
      <trkpt lat="43.49397" lon="6.93485">
        <ele>168.19999694824</ele>
        <time>2013-12-29T11:07:17.000Z</time>
      </trkpt>
      <trkpt lat="43.49401" lon="6.93474">
        <ele>167.80000305176</ele>
        <time>2013-12-29T11:07:21.000Z</time>
      </trkpt>
      <trkpt lat="43.49402" lon="6.93472">
        <ele>167.80000305176</ele>
        <time>2013-12-29T11:07:22.000Z</time>
      </trkpt>
      <trkpt lat="43.49405" lon="6.93458">
        <ele>167.39999389648</ele>
        <time>2013-12-29T11:07:26.000Z</time>
      </trkpt>
      <trkpt lat="43.49412" lon="6.93446">
        <ele>166.39999389648</ele>
        <time>2013-12-29T11:07:30.000Z</time>
      </trkpt>
      <trkpt lat="43.49423" lon="6.93436">
        <ele>163.39999389648</ele>
        <time>2013-12-29T11:07:35.000Z</time>
      </trkpt>
      <trkpt lat="43.49424" lon="6.93435">
        <ele>162.80000305176</ele>
        <time>2013-12-29T11:07:36.000Z</time>
      </trkpt>
      <trkpt lat="43.49427" lon="6.9344">
        <ele>161.60000610352</ele>
        <time>2013-12-29T11:07:39.000Z</time>
      </trkpt>
      <trkpt lat="43.49427" lon="6.93457">
        <ele>161.39999389648</ele>
        <time>2013-12-29T11:07:44.000Z</time>
      </trkpt>
      <trkpt lat="43.49427" lon="6.93458">
        <ele>161.39999389648</ele>
        <time>2013-12-29T11:07:45.000Z</time>
      </trkpt>
      <trkpt lat="43.49425" lon="6.93464">
        <ele>162</ele>
        <time>2013-12-29T11:07:48.000Z</time>
      </trkpt>
      <trkpt lat="43.49425" lon="6.93465">
        <ele>161.80000305176</ele>
        <time>2013-12-29T11:07:49.000Z</time>
      </trkpt>
      <trkpt lat="43.49428" lon="6.93474">
        <ele>160.60000610352</ele>
        <time>2013-12-29T11:07:53.000Z</time>
      </trkpt>
      <trkpt lat="43.49429" lon="6.93489">
        <ele>160</ele>
        <time>2013-12-29T11:07:57.000Z</time>
      </trkpt>
      <trkpt lat="43.49426" lon="6.93505">
        <ele>160.60000610352</ele>
        <time>2013-12-29T11:08:01.000Z</time>
      </trkpt>
      <trkpt lat="43.49425" lon="6.93514">
        <ele>159.39999389648</ele>
        <time>2013-12-29T11:08:05.000Z</time>
      </trkpt>
      <trkpt lat="43.49426" lon="6.93516">
        <ele>158.80000305176</ele>
        <time>2013-12-29T11:08:06.000Z</time>
      </trkpt>
      <trkpt lat="43.4943" lon="6.93523">
        <ele>156.19999694824</ele>
        <time>2013-12-29T11:08:09.000Z</time>
      </trkpt>
      <trkpt lat="43.49431" lon="6.93527">
        <ele>155.39999389648</ele>
        <time>2013-12-29T11:08:10.000Z</time>
      </trkpt>
      <trkpt lat="43.49431" lon="6.93532">
        <ele>154.19999694824</ele>
        <time>2013-12-29T11:08:13.000Z</time>
      </trkpt>
      <trkpt lat="43.49435" lon="6.93544">
        <ele>150.80000305176</ele>
        <time>2013-12-29T11:08:18.000Z</time>
      </trkpt>
      <trkpt lat="43.49437" lon="6.93547">
        <ele>149.80000305176</ele>
        <time>2013-12-29T11:08:19.000Z</time>
      </trkpt>
      <trkpt lat="43.49445" lon="6.93558">
        <ele>144.80000305176</ele>
        <time>2013-12-29T11:08:24.000Z</time>
      </trkpt>
      <trkpt lat="43.49452" lon="6.93571">
        <ele>139.80000305176</ele>
        <time>2013-12-29T11:08:28.000Z</time>
      </trkpt>
      <trkpt lat="43.49454" lon="6.93577">
        <ele>138</ele>
        <time>2013-12-29T11:08:30.000Z</time>
      </trkpt>
      <trkpt lat="43.49457" lon="6.9358">
        <ele>136.39999389648</ele>
        <time>2013-12-29T11:08:32.000Z</time>
      </trkpt>
      <trkpt lat="43.49459" lon="6.93582">
        <ele>135.39999389648</ele>
        <time>2013-12-29T11:08:33.000Z</time>
      </trkpt>
      <trkpt lat="43.4946" lon="6.93583">
        <ele>134.80000305176</ele>
        <time>2013-12-29T11:08:34.000Z</time>
      </trkpt>
      <trkpt lat="43.49462" lon="6.9359">
        <ele>133.80000305176</ele>
        <time>2013-12-29T11:08:36.000Z</time>
      </trkpt>
      <trkpt lat="43.49465" lon="6.93588">
        <ele>132.39999389648</ele>
        <time>2013-12-29T11:08:39.000Z</time>
      </trkpt>
      <trkpt lat="43.49467" lon="6.93585">
        <ele>132</ele>
        <time>2013-12-29T11:08:40.000Z</time>
      </trkpt>
      <trkpt lat="43.49469" lon="6.93583">
        <ele>131</ele>
        <time>2013-12-29T11:08:42.000Z</time>
      </trkpt>
      <trkpt lat="43.4947" lon="6.93585">
        <ele>130.60000610352</ele>
        <time>2013-12-29T11:08:43.000Z</time>
      </trkpt>
      <trkpt lat="43.49473" lon="6.93597">
        <ele>128.39999389648</ele>
        <time>2013-12-29T11:08:47.000Z</time>
      </trkpt>
      <trkpt lat="43.4948" lon="6.93605">
        <ele>124.40000152588</ele>
        <time>2013-12-29T11:08:51.000Z</time>
      </trkpt>
      <trkpt lat="43.49491" lon="6.93605">
        <ele>119.80000305176</ele>
        <time>2013-12-29T11:08:56.000Z</time>
      </trkpt>
      <trkpt lat="43.49498" lon="6.93603">
        <ele>117</ele>
        <time>2013-12-29T11:09:00.000Z</time>
      </trkpt>
      <trkpt lat="43.49502" lon="6.93614">
        <ele>114</ele>
        <time>2013-12-29T11:09:04.000Z</time>
      </trkpt>
      <trkpt lat="43.49504" lon="6.93616">
        <ele>113.19999694824</ele>
        <time>2013-12-29T11:09:05.000Z</time>
      </trkpt>
      <trkpt lat="43.49504" lon="6.93618">
        <ele>112.80000305176</ele>
        <time>2013-12-29T11:09:06.000Z</time>
      </trkpt>
      <trkpt lat="43.49507" lon="6.93623">
        <ele>111.19999694824</ele>
        <time>2013-12-29T11:09:08.000Z</time>
      </trkpt>
      <trkpt lat="43.4951" lon="6.93624">
        <ele>110.19999694824</ele>
        <time>2013-12-29T11:09:09.000Z</time>
      </trkpt>
      <trkpt lat="43.49516" lon="6.93621">
        <ele>108</ele>
        <time>2013-12-29T11:09:12.000Z</time>
      </trkpt>
      <trkpt lat="43.49525" lon="6.93622">
        <ele>105</ele>
        <time>2013-12-29T11:09:16.000Z</time>
      </trkpt>
      <trkpt lat="43.49526" lon="6.93634">
        <ele>103.19999694824</ele>
        <time>2013-12-29T11:09:19.000Z</time>
      </trkpt>
      <trkpt lat="43.49526" lon="6.93638">
        <ele>102.59999847412</ele>
        <time>2013-12-29T11:09:20.000Z</time>
      </trkpt>
      <trkpt lat="43.49529" lon="6.93645">
        <ele>100.59999847412</ele>
        <time>2013-12-29T11:09:23.000Z</time>
      </trkpt>
      <trkpt lat="43.49538" lon="6.93642">
        <ele>97.599998474121</ele>
        <time>2013-12-29T11:09:27.000Z</time>
      </trkpt>
      <trkpt lat="43.49542" lon="6.93631">
        <ele>97.800003051758</ele>
        <time>2013-12-29T11:09:30.000Z</time>
      </trkpt>
      <trkpt lat="43.49546" lon="6.93616">
        <ele>98</ele>
        <time>2013-12-29T11:09:34.000Z</time>
      </trkpt>
      <trkpt lat="43.49548" lon="6.93601">
        <ele>99.400001525879</ele>
        <time>2013-12-29T11:09:38.000Z</time>
      </trkpt>
      <trkpt lat="43.49551" lon="6.93599">
        <ele>98.599998474121</ele>
        <time>2013-12-29T11:09:42.000Z</time>
      </trkpt>
      <trkpt lat="43.49551" lon="6.936">
        <ele>98.400001525879</ele>
        <time>2013-12-29T11:09:47.000Z</time>
      </trkpt>
      <trkpt lat="43.49559" lon="6.9361">
        <ele>94.199996948242</ele>
        <time>2013-12-29T11:09:53.000Z</time>
      </trkpt>
      <trkpt lat="43.49571" lon="6.93631">
        <ele>87.199996948242</ele>
        <time>2013-12-29T11:10:00.000Z</time>
      </trkpt>
      <trkpt lat="43.49573" lon="6.93637">
        <ele>85.599998474121</ele>
        <time>2013-12-29T11:10:02.000Z</time>
      </trkpt>
      <trkpt lat="43.49576" lon="6.93641">
        <ele>83.599998474121</ele>
        <time>2013-12-29T11:10:04.000Z</time>
      </trkpt>
      <trkpt lat="43.4958" lon="6.93651">
        <ele>80.599998474121</ele>
        <time>2013-12-29T11:10:08.000Z</time>
      </trkpt>
      <trkpt lat="43.49586" lon="6.93646">
        <ele>80</ele>
        <time>2013-12-29T11:10:12.000Z</time>
      </trkpt>
      <trkpt lat="43.49592" lon="6.93645">
        <ele>79.599998474121</ele>
        <time>2013-12-29T11:10:16.000Z</time>
      </trkpt>
      <trkpt lat="43.49594" lon="6.93655">
        <ele>78.400001525879</ele>
        <time>2013-12-29T11:10:20.000Z</time>
      </trkpt>
      <trkpt lat="43.49588" lon="6.93667">
        <ele>77</ele>
        <time>2013-12-29T11:10:23.000Z</time>
      </trkpt>
      <trkpt lat="43.49588" lon="6.93669">
        <ele>77.199996948242</ele>
        <time>2013-12-29T11:10:24.000Z</time>
      </trkpt>
      <trkpt lat="43.4959" lon="6.93671">
        <ele>77.400001525879</ele>
        <time>2013-12-29T11:10:25.000Z</time>
      </trkpt>
      <trkpt lat="43.49591" lon="6.93671">
        <ele>77.400001525879</ele>
        <time>2013-12-29T11:10:28.000Z</time>
      </trkpt>
      <trkpt lat="43.49594" lon="6.9367">
        <ele>77.400001525879</ele>
        <time>2013-12-29T11:10:29.000Z</time>
      </trkpt>
      <trkpt lat="43.49598" lon="6.9367">
        <ele>77.400001525879</ele>
        <time>2013-12-29T11:10:31.000Z</time>
      </trkpt>
      <trkpt lat="43.49607" lon="6.93666">
        <ele>77</ele>
        <time>2013-12-29T11:10:34.000Z</time>
      </trkpt>
      <trkpt lat="43.49609" lon="6.93666">
        <ele>77</ele>
        <time>2013-12-29T11:10:35.000Z</time>
      </trkpt>
      <trkpt lat="43.49612" lon="6.93668">
        <ele>77.199996948242</ele>
        <time>2013-12-29T11:10:37.000Z</time>
      </trkpt>
      <trkpt lat="43.49614" lon="6.93669">
        <ele>77.400001525879</ele>
        <time>2013-12-29T11:10:39.000Z</time>
      </trkpt>
      <trkpt lat="43.49618" lon="6.93666">
        <ele>77</ele>
        <time>2013-12-29T11:10:42.000Z</time>
      </trkpt>
      <trkpt lat="43.49619" lon="6.93664">
        <ele>77</ele>
        <time>2013-12-29T11:10:44.000Z</time>
      </trkpt>
      <trkpt lat="43.4962" lon="6.93665">
        <ele>77</ele>
        <time>2013-12-29T11:10:51.000Z</time>
      </trkpt>
      <trkpt lat="43.49625" lon="6.93663">
        <ele>77</ele>
        <time>2013-12-29T11:11:14.000Z</time>
      </trkpt>
      <trkpt lat="43.49627" lon="6.93661">
        <ele>77</ele>
        <time>2013-12-29T11:11:30.000Z</time>
      </trkpt>
      <trkpt lat="43.49634" lon="6.93653">
        <ele>76.800003051758</ele>
        <time>2013-12-29T11:11:37.000Z</time>
      </trkpt>
      <trkpt lat="43.49638" lon="6.93644">
        <ele>76.199996948242</ele>
        <time>2013-12-29T11:11:42.000Z</time>
      </trkpt>
      <trkpt lat="43.49641" lon="6.93637">
        <ele>75.800003051758</ele>
        <time>2013-12-29T11:11:45.000Z</time>
      </trkpt>
      <trkpt lat="43.49642" lon="6.93633">
        <ele>75.400001525879</ele>
        <time>2013-12-29T11:11:47.000Z</time>
      </trkpt>
      <trkpt lat="43.49646" lon="6.93629">
        <ele>74.800003051758</ele>
        <time>2013-12-29T11:11:52.000Z</time>
      </trkpt>
      <trkpt lat="43.49647" lon="6.93628">
        <ele>74.599998474121</ele>
        <time>2013-12-29T11:11:58.000Z</time>
      </trkpt>
      <trkpt lat="43.4965" lon="6.93629">
        <ele>74.199996948242</ele>
        <time>2013-12-29T11:12:01.000Z</time>
      </trkpt>
      <trkpt lat="43.4965" lon="6.93632">
        <ele>74.400001525879</ele>
        <time>2013-12-29T11:12:03.000Z</time>
      </trkpt>
      <trkpt lat="43.49644" lon="6.93639">
        <ele>75.599998474121</ele>
        <time>2013-12-29T11:12:08.000Z</time>
      </trkpt>
      <trkpt lat="43.4964" lon="6.93648">
        <ele>76.199996948242</ele>
        <time>2013-12-29T11:12:13.000Z</time>
      </trkpt>
      <trkpt lat="43.49641" lon="6.93649">
        <ele>76.199996948242</ele>
        <time>2013-12-29T11:12:14.000Z</time>
      </trkpt>
      <trkpt lat="43.49644" lon="6.93646">
        <ele>76</ele>
        <time>2013-12-29T11:12:17.000Z</time>
      </trkpt>
      <trkpt lat="43.49644" lon="6.93645">
        <ele>75.800003051758</ele>
        <time>2013-12-29T11:12:18.000Z</time>
      </trkpt>
      <trkpt lat="43.49647" lon="6.93639">
        <ele>75.199996948242</ele>
        <time>2013-12-29T11:12:23.000Z</time>
      </trkpt>
      <trkpt lat="43.49647" lon="6.93633">
        <ele>74.800003051758</ele>
        <time>2013-12-29T11:12:30.000Z</time>
      </trkpt>
      <trkpt lat="43.49646" lon="6.93625">
        <ele>74.599998474121</ele>
        <time>2013-12-29T11:12:37.000Z</time>
      </trkpt>
      <trkpt lat="43.49647" lon="6.93626">
        <ele>74.400001525879</ele>
        <time>2013-12-29T11:12:41.000Z</time>
      </trkpt>
      <trkpt lat="43.49653" lon="6.93634">
        <ele>74.199996948242</ele>
        <time>2013-12-29T11:12:59.000Z</time>
      </trkpt>
      <trkpt lat="43.49652" lon="6.93632">
        <ele>74.199996948242</ele>
        <time>2013-12-29T11:13:01.000Z</time>
      </trkpt>
      <trkpt lat="43.49649" lon="6.93637">
        <ele>74.800003051758</ele>
        <time>2013-12-29T11:13:04.000Z</time>
      </trkpt>
      <trkpt lat="43.49649" lon="6.93639">
        <ele>75</ele>
        <time>2013-12-29T11:13:05.000Z</time>
      </trkpt>
      <trkpt lat="43.49644" lon="6.93648">
        <ele>76</ele>
        <time>2013-12-29T11:13:10.000Z</time>
      </trkpt>
      <trkpt lat="43.49638" lon="6.9365">
        <ele>76.400001525879</ele>
        <time>2013-12-29T11:13:16.000Z</time>
      </trkpt>
      <trkpt lat="43.49636" lon="6.93653">
        <ele>76.599998474121</ele>
        <time>2013-12-29T11:13:18.000Z</time>
      </trkpt>
      <trkpt lat="43.49638" lon="6.93655">
        <ele>76.599998474121</ele>
        <time>2013-12-29T11:13:21.000Z</time>
      </trkpt>
      <trkpt lat="43.49639" lon="6.93653">
        <ele>76.599998474121</ele>
        <time>2013-12-29T11:13:27.000Z</time>
      </trkpt>
      <trkpt lat="43.49637" lon="6.93643">
        <ele>76.400001525879</ele>
        <time>2013-12-29T11:13:50.000Z</time>
      </trkpt>
      <trkpt lat="43.4964" lon="6.9364">
        <ele>76</ele>
        <time>2013-12-29T11:13:52.000Z</time>
      </trkpt>
      <trkpt lat="43.49643" lon="6.93632">
        <ele>75.400001525879</ele>
        <time>2013-12-29T11:13:56.000Z</time>
      </trkpt>
      <trkpt lat="43.49643" lon="6.93631">
        <ele>75.199996948242</ele>
        <time>2013-12-29T11:13:57.000Z</time>
      </trkpt>
      <trkpt lat="43.49646" lon="6.93629">
        <ele>74.800003051758</ele>
        <time>2013-12-29T11:14:01.000Z</time>
      </trkpt>
      <trkpt lat="43.49646" lon="6.93629">
        <ele>74.800003051758</ele>
        <time>2013-12-29T11:14:02.000Z</time>
      </trkpt>
      <trkpt lat="43.49655" lon="6.93626">
        <ele>73.199996948242</ele>
        <time>2013-12-29T11:16:41.000Z</time>
      </trkpt>
      <trkpt lat="43.49666" lon="6.93604">
        <ele>68.800003051758</ele>
        <time>2013-12-29T11:16:47.000Z</time>
      </trkpt>
      <trkpt lat="43.49684" lon="6.93578">
        <ele>64.800003051758</ele>
        <time>2013-12-29T11:16:55.000Z</time>
      </trkpt>
      <trkpt lat="43.49704" lon="6.93565">
        <ele>63.400001525879</ele>
        <time>2013-12-29T11:17:01.000Z</time>
      </trkpt>
      <trkpt lat="43.49723" lon="6.93566">
        <ele>61.599998474121</ele>
        <time>2013-12-29T11:17:06.000Z</time>
      </trkpt>
      <trkpt lat="43.49743" lon="6.93574">
        <ele>59.599998474121</ele>
        <time>2013-12-29T11:17:11.000Z</time>
      </trkpt>
      <trkpt lat="43.49747" lon="6.93578">
        <ele>59.400001525879</ele>
        <time>2013-12-29T11:17:12.000Z</time>
      </trkpt>
      <trkpt lat="43.49762" lon="6.93602">
        <ele>61.400001525879</ele>
        <time>2013-12-29T11:17:18.000Z</time>
      </trkpt>
      <trkpt lat="43.49764" lon="6.93605">
        <ele>61.799999237061</ele>
        <time>2013-12-29T11:17:19.000Z</time>
      </trkpt>
      <trkpt lat="43.4978" lon="6.93625">
        <ele>62.799999237061</ele>
        <time>2013-12-29T11:17:24.000Z</time>
      </trkpt>
      <trkpt lat="43.49789" lon="6.93628">
        <ele>61.400001525879</ele>
        <time>2013-12-29T11:17:26.000Z</time>
      </trkpt>
      <trkpt lat="43.49793" lon="6.93626">
        <ele>60.200000762939</ele>
        <time>2013-12-29T11:17:27.000Z</time>
      </trkpt>
      <trkpt lat="43.49814" lon="6.93639">
        <ele>57.400001525879</ele>
        <time>2013-12-29T11:17:31.000Z</time>
      </trkpt>
      <trkpt lat="43.49843" lon="6.93658">
        <ele>54</ele>
        <time>2013-12-29T11:17:35.000Z</time>
      </trkpt>
      <trkpt lat="43.49849" lon="6.93659">
        <ele>53.400001525879</ele>
        <time>2013-12-29T11:17:36.000Z</time>
      </trkpt>
      <trkpt lat="43.49872" lon="6.93661">
        <ele>51.200000762939</ele>
        <time>2013-12-29T11:17:40.000Z</time>
      </trkpt>
      <trkpt lat="43.49884" lon="6.93674">
        <ele>51.799999237061</ele>
        <time>2013-12-29T11:17:43.000Z</time>
      </trkpt>
      <trkpt lat="43.49895" lon="6.93667">
        <ele>48.599998474121</ele>
        <time>2013-12-29T11:17:46.000Z</time>
      </trkpt>
      <trkpt lat="43.49899" lon="6.93663">
        <ele>48.200000762939</ele>
        <time>2013-12-29T11:17:47.000Z</time>
      </trkpt>
      <trkpt lat="43.4991" lon="6.93656">
        <ele>47</ele>
        <time>2013-12-29T11:17:49.000Z</time>
      </trkpt>
      <trkpt lat="43.49917" lon="6.93655">
        <ele>46.400001525879</ele>
        <time>2013-12-29T11:17:50.000Z</time>
      </trkpt>
      <trkpt lat="43.49938" lon="6.93663">
        <ele>44.599998474121</ele>
        <time>2013-12-29T11:17:53.000Z</time>
      </trkpt>
      <trkpt lat="43.49945" lon="6.93666">
        <ele>43.599998474121</ele>
        <time>2013-12-29T11:17:54.000Z</time>
      </trkpt>
      <trkpt lat="43.4997" lon="6.93677">
        <ele>43.799999237061</ele>
        <time>2013-12-29T11:17:58.000Z</time>
      </trkpt>
      <trkpt lat="43.50002" lon="6.93696">
        <ele>44.799999237061</ele>
        <time>2013-12-29T11:18:03.000Z</time>
      </trkpt>
      <trkpt lat="43.50021" lon="6.93706">
        <ele>46.599998474121</ele>
        <time>2013-12-29T11:18:06.000Z</time>
      </trkpt>
      <trkpt lat="43.50036" lon="6.93706">
        <ele>46.599998474121</ele>
        <time>2013-12-29T11:18:08.000Z</time>
      </trkpt>
      <trkpt lat="43.50052" lon="6.937">
        <ele>45.799999237061</ele>
        <time>2013-12-29T11:18:11.000Z</time>
      </trkpt>
      <trkpt lat="43.50068" lon="6.93696">
        <ele>45.799999237061</ele>
        <time>2013-12-29T11:18:15.000Z</time>
      </trkpt>
      <trkpt lat="43.50088" lon="6.93705">
        <ele>46.599998474121</ele>
        <time>2013-12-29T11:18:20.000Z</time>
      </trkpt>
      <trkpt lat="43.50106" lon="6.93711">
        <ele>47.799999237061</ele>
        <time>2013-12-29T11:18:25.000Z</time>
      </trkpt>
      <trkpt lat="43.50137" lon="6.93716">
        <ele>49.200000762939</ele>
        <time>2013-12-29T11:18:32.000Z</time>
      </trkpt>
      <trkpt lat="43.50141" lon="6.93716">
        <ele>49.400001525879</ele>
        <time>2013-12-29T11:18:33.000Z</time>
      </trkpt>
      <trkpt lat="43.5015" lon="6.93716">
        <ele>49.799999237061</ele>
        <time>2013-12-29T11:18:35.000Z</time>
      </trkpt>
      <trkpt lat="43.5016" lon="6.93714">
        <ele>50.200000762939</ele>
        <time>2013-12-29T11:18:37.000Z</time>
      </trkpt>
      <trkpt lat="43.50184" lon="6.93714">
        <ele>50</ele>
        <time>2013-12-29T11:18:42.000Z</time>
      </trkpt>
      <trkpt lat="43.50203" lon="6.9372">
        <ele>49.200000762939</ele>
        <time>2013-12-29T11:18:46.000Z</time>
      </trkpt>
      <trkpt lat="43.5021" lon="6.93719">
        <ele>49</ele>
        <time>2013-12-29T11:18:47.000Z</time>
      </trkpt>
      <trkpt lat="43.50232" lon="6.9371">
        <ele>48.599998474121</ele>
        <time>2013-12-29T11:18:51.000Z</time>
      </trkpt>
      <trkpt lat="43.50255" lon="6.93698">
        <ele>47.599998474121</ele>
        <time>2013-12-29T11:18:55.000Z</time>
      </trkpt>
      <trkpt lat="43.5026" lon="6.93694">
        <ele>47.200000762939</ele>
        <time>2013-12-29T11:18:56.000Z</time>
      </trkpt>
      <trkpt lat="43.50273" lon="6.93686">
        <ele>45.599998474121</ele>
        <time>2013-12-29T11:18:59.000Z</time>
      </trkpt>
      <trkpt lat="43.50282" lon="6.93686">
        <ele>44.400001525879</ele>
        <time>2013-12-29T11:19:01.000Z</time>
      </trkpt>
      <trkpt lat="43.50299" lon="6.937">
        <ele>42.200000762939</ele>
        <time>2013-12-29T11:19:05.000Z</time>
      </trkpt>
      <trkpt lat="43.50314" lon="6.9372">
        <ele>40.200000762939</ele>
        <time>2013-12-29T11:19:09.000Z</time>
      </trkpt>
      <trkpt lat="43.5033" lon="6.93734">
        <ele>38.400001525879</ele>
        <time>2013-12-29T11:19:13.000Z</time>
      </trkpt>
      <trkpt lat="43.50342" lon="6.93729">
        <ele>37.599998474121</ele>
        <time>2013-12-29T11:19:17.000Z</time>
      </trkpt>
      <trkpt lat="43.50352" lon="6.93729">
        <ele>37.200000762939</ele>
        <time>2013-12-29T11:19:21.000Z</time>
      </trkpt>
      <trkpt lat="43.50354" lon="6.9373">
        <ele>37</ele>
        <time>2013-12-29T11:19:22.000Z</time>
      </trkpt>
      <trkpt lat="43.50361" lon="6.93731">
        <ele>36.599998474121</ele>
        <time>2013-12-29T11:19:28.000Z</time>
      </trkpt>
      <trkpt lat="43.50362" lon="6.93733">
        <ele>36.400001525879</ele>
        <time>2013-12-29T11:19:46.000Z</time>
      </trkpt>
      <trkpt lat="43.50361" lon="6.93738">
        <ele>36</ele>
        <time>2013-12-29T11:31:58.000Z</time>
      </trkpt>
      <trkpt lat="43.50373" lon="6.93745">
        <ele>34.400001525879</ele>
        <time>2013-12-29T11:32:03.000Z</time>
      </trkpt>
      <trkpt lat="43.5038" lon="6.93748">
        <ele>33.200000762939</ele>
        <time>2013-12-29T11:32:08.000Z</time>
      </trkpt>
      <trkpt lat="43.50382" lon="6.9375">
        <ele>32.799999237061</ele>
        <time>2013-12-29T11:32:09.000Z</time>
      </trkpt>
      <trkpt lat="43.50395" lon="6.9376">
        <ele>31.799999237061</ele>
        <time>2013-12-29T11:32:13.000Z</time>
      </trkpt>
      <trkpt lat="43.504" lon="6.93774">
        <ele>31.60000038147</ele>
        <time>2013-12-29T11:32:17.000Z</time>
      </trkpt>
      <trkpt lat="43.50402" lon="6.93789">
        <ele>31.60000038147</ele>
        <time>2013-12-29T11:32:21.000Z</time>
      </trkpt>
      <trkpt lat="43.50412" lon="6.93802">
        <ele>29.200000762939</ele>
        <time>2013-12-29T11:32:24.000Z</time>
      </trkpt>
      <trkpt lat="43.50415" lon="6.93807">
        <ele>28</ele>
        <time>2013-12-29T11:32:25.000Z</time>
      </trkpt>
      <trkpt lat="43.50433" lon="6.93831">
        <ele>25.60000038147</ele>
        <time>2013-12-29T11:32:29.000Z</time>
      </trkpt>
      <trkpt lat="43.5045" lon="6.93844">
        <ele>24.799999237061</ele>
        <time>2013-12-29T11:32:32.000Z</time>
      </trkpt>
      <trkpt lat="43.50459" lon="6.93848">
        <ele>24</ele>
        <time>2013-12-29T11:32:33.000Z</time>
      </trkpt>
      <trkpt lat="43.50503" lon="6.93883">
        <ele>17.799999237061</ele>
        <time>2013-12-29T11:32:40.000Z</time>
      </trkpt>
      <trkpt lat="43.5054" lon="6.93904">
        <ele>15.39999961853</ele>
        <time>2013-12-29T11:32:46.000Z</time>
      </trkpt>
      <trkpt lat="43.50558" lon="6.93922">
        <ele>13.199999809265</ele>
        <time>2013-12-29T11:32:50.000Z</time>
      </trkpt>
      <trkpt lat="43.50562" lon="6.93929">
        <ele>13.199999809265</ele>
        <time>2013-12-29T11:32:51.000Z</time>
      </trkpt>
      <trkpt lat="43.50585" lon="6.93964">
        <ele>11</ele>
        <time>2013-12-29T11:32:57.000Z</time>
      </trkpt>
      <trkpt lat="43.50605" lon="6.93974">
        <ele>11.60000038147</ele>
        <time>2013-12-29T11:33:01.000Z</time>
      </trkpt>
      <trkpt lat="43.50614" lon="6.93981">
        <ele>11.39999961853</ele>
        <time>2013-12-29T11:33:03.000Z</time>
      </trkpt>
      <trkpt lat="43.50617" lon="6.93993">
        <ele>11</ele>
        <time>2013-12-29T11:33:05.000Z</time>
      </trkpt>
      <trkpt lat="43.50627" lon="6.94018">
        <ele>11.800000190735</ele>
        <time>2013-12-29T11:33:09.000Z</time>
      </trkpt>
      <trkpt lat="43.50632" lon="6.94024">
        <ele>12</ele>
        <time>2013-12-29T11:33:10.000Z</time>
      </trkpt>
      <trkpt lat="43.50648" lon="6.94047">
        <ele>11.39999961853</ele>
        <time>2013-12-29T11:33:14.000Z</time>
      </trkpt>
      <trkpt lat="43.50655" lon="6.94058">
        <ele>10.60000038147</ele>
        <time>2013-12-29T11:33:16.000Z</time>
      </trkpt>
      <trkpt lat="43.50668" lon="6.94077">
        <ele>8.1999998092651</ele>
        <time>2013-12-29T11:33:21.000Z</time>
      </trkpt>
      <trkpt lat="43.5068" lon="6.94097">
        <ele>8.6000003814697</ele>
        <time>2013-12-29T11:33:25.000Z</time>
      </trkpt>
      <trkpt lat="43.50704" lon="6.94134">
        <ele>8.3999996185303</ele>
        <time>2013-12-29T11:33:31.000Z</time>
      </trkpt>
      <trkpt lat="43.50727" lon="6.94168">
        <ele>6.4000000953674</ele>
        <time>2013-12-29T11:33:37.000Z</time>
      </trkpt>
      <trkpt lat="43.50732" lon="6.94168">
        <ele>6</ele>
        <time>2013-12-29T11:33:38.000Z</time>
      </trkpt>
      <trkpt lat="43.5074" lon="6.94161">
        <ele>6</ele>
        <time>2013-12-29T11:33:41.000Z</time>
      </trkpt>
      <trkpt lat="43.50747" lon="6.94154">
        <ele>6</ele>
        <time>2013-12-29T11:33:43.000Z</time>
      </trkpt>
      <trkpt lat="43.50753" lon="6.94146">
        <ele>6.5999999046326</ele>
        <time>2013-12-29T11:33:45.000Z</time>
      </trkpt>
      <trkpt lat="43.50756" lon="6.94136">
        <ele>7.1999998092651</ele>
        <time>2013-12-29T11:33:47.000Z</time>
      </trkpt>
      <trkpt lat="43.50757" lon="6.94126">
        <ele>8</ele>
        <time>2013-12-29T11:33:49.000Z</time>
      </trkpt>
      <trkpt lat="43.5076" lon="6.9411">
        <ele>9</ele>
        <time>2013-12-29T11:33:52.000Z</time>
      </trkpt>
      <trkpt lat="43.50765" lon="6.94101">
        <ele>9.6000003814697</ele>
        <time>2013-12-29T11:33:54.000Z</time>
      </trkpt>
      <trkpt lat="43.50769" lon="6.94086">
        <ele>10.60000038147</ele>
        <time>2013-12-29T11:33:57.000Z</time>
      </trkpt>
      <trkpt lat="43.50773" lon="6.94057">
        <ele>11.199999809265</ele>
        <time>2013-12-29T11:34:02.000Z</time>
      </trkpt>
      <trkpt lat="43.50777" lon="6.94028">
        <ele>11.60000038147</ele>
        <time>2013-12-29T11:34:07.000Z</time>
      </trkpt>
      <trkpt lat="43.50778" lon="6.94023">
        <ele>11.60000038147</ele>
        <time>2013-12-29T11:34:08.000Z</time>
      </trkpt>
      <trkpt lat="43.50781" lon="6.93973">
        <ele>14.199999809265</ele>
        <time>2013-12-29T11:34:15.000Z</time>
      </trkpt>
      <trkpt lat="43.50786" lon="6.93913">
        <ele>18.60000038147</ele>
        <time>2013-12-29T11:34:23.000Z</time>
      </trkpt>
      <trkpt lat="43.50789" lon="6.93904">
        <ele>18.200000762939</ele>
        <time>2013-12-29T11:34:24.000Z</time>
      </trkpt>
      <trkpt lat="43.50797" lon="6.93878">
        <ele>17.200000762939</ele>
        <time>2013-12-29T11:34:27.000Z</time>
      </trkpt>
      <trkpt lat="43.50813" lon="6.93822">
        <ele>15</ele>
        <time>2013-12-29T11:34:33.000Z</time>
      </trkpt>
      <trkpt lat="43.50819" lon="6.93796">
        <ele>14.800000190735</ele>
        <time>2013-12-29T11:34:36.000Z</time>
      </trkpt>
      <trkpt lat="43.50828" lon="6.93783">
        <ele>13.60000038147</ele>
        <time>2013-12-29T11:34:38.000Z</time>
      </trkpt>
      <trkpt lat="43.50846" lon="6.9377">
        <ele>13</ele>
        <time>2013-12-29T11:34:41.000Z</time>
      </trkpt>
      <trkpt lat="43.50901" lon="6.93734">
        <ele>14.800000190735</ele>
        <time>2013-12-29T11:34:50.000Z</time>
      </trkpt>
      <trkpt lat="43.50919" lon="6.93726">
        <ele>16.200000762939</ele>
        <time>2013-12-29T11:34:53.000Z</time>
      </trkpt>
      <trkpt lat="43.50932" lon="6.93727">
        <ele>15</ele>
        <time>2013-12-29T11:34:55.000Z</time>
      </trkpt>
      <trkpt lat="43.50964" lon="6.93725">
        <ele>12.800000190735</ele>
        <time>2013-12-29T11:35:00.000Z</time>
      </trkpt>
      <trkpt lat="43.5097" lon="6.93723">
        <ele>12.800000190735</ele>
        <time>2013-12-29T11:35:01.000Z</time>
      </trkpt>
      <trkpt lat="43.51002" lon="6.93703">
        <ele>14.800000190735</ele>
        <time>2013-12-29T11:35:07.000Z</time>
      </trkpt>
      <trkpt lat="43.51043" lon="6.93683">
        <ele>20.200000762939</ele>
        <time>2013-12-29T11:35:14.000Z</time>
      </trkpt>
      <trkpt lat="43.51056" lon="6.93681">
        <ele>21</ele>
        <time>2013-12-29T11:35:16.000Z</time>
      </trkpt>
      <trkpt lat="43.51067" lon="6.93686">
        <ele>20.39999961853</ele>
        <time>2013-12-29T11:35:18.000Z</time>
      </trkpt>
      <trkpt lat="43.5108" lon="6.93703">
        <ele>17.799999237061</ele>
        <time>2013-12-29T11:35:21.000Z</time>
      </trkpt>
      <trkpt lat="43.51099" lon="6.93722">
        <ele>16.39999961853</ele>
        <time>2013-12-29T11:35:25.000Z</time>
      </trkpt>
      <trkpt lat="43.51108" lon="6.93727">
        <ele>16.200000762939</ele>
        <time>2013-12-29T11:35:27.000Z</time>
      </trkpt>
      <trkpt lat="43.51143" lon="6.93742">
        <ele>16.200000762939</ele>
        <time>2013-12-29T11:35:34.000Z</time>
      </trkpt>
      <trkpt lat="43.51179" lon="6.93744">
        <ele>17.200000762939</ele>
        <time>2013-12-29T11:35:41.000Z</time>
      </trkpt>
      <trkpt lat="43.51203" lon="6.93742">
        <ele>16.799999237061</ele>
        <time>2013-12-29T11:35:46.000Z</time>
      </trkpt>
      <trkpt lat="43.51211" lon="6.93736">
        <ele>17.799999237061</ele>
        <time>2013-12-29T11:35:48.000Z</time>
      </trkpt>
      <trkpt lat="43.51226" lon="6.93717">
        <ele>22.200000762939</ele>
        <time>2013-12-29T11:35:52.000Z</time>
      </trkpt>
      <trkpt lat="43.5123" lon="6.93712">
        <ele>23.39999961853</ele>
        <time>2013-12-29T11:35:53.000Z</time>
      </trkpt>
      <trkpt lat="43.51234" lon="6.93707">
        <ele>24.39999961853</ele>
        <time>2013-12-29T11:35:54.000Z</time>
      </trkpt>
      <trkpt lat="43.51248" lon="6.937">
        <ele>25.799999237061</ele>
        <time>2013-12-29T11:35:57.000Z</time>
      </trkpt>
      <trkpt lat="43.51264" lon="6.93702">
        <ele>25</ele>
        <time>2013-12-29T11:36:00.000Z</time>
      </trkpt>
      <trkpt lat="43.5127" lon="6.93703">
        <ele>24.799999237061</ele>
        <time>2013-12-29T11:36:01.000Z</time>
      </trkpt>
      <trkpt lat="43.51325" lon="6.93712">
        <ele>22.200000762939</ele>
        <time>2013-12-29T11:36:10.000Z</time>
      </trkpt>
      <trkpt lat="43.51331" lon="6.93712">
        <ele>22</ele>
        <time>2013-12-29T11:36:11.000Z</time>
      </trkpt>
      <trkpt lat="43.51337" lon="6.93711">
        <ele>22</ele>
        <time>2013-12-29T11:36:12.000Z</time>
      </trkpt>
      <trkpt lat="43.51361" lon="6.93703">
        <ele>22.799999237061</ele>
        <time>2013-12-29T11:36:16.000Z</time>
      </trkpt>
      <trkpt lat="43.51366" lon="6.937">
        <ele>23</ele>
        <time>2013-12-29T11:36:17.000Z</time>
      </trkpt>
      <trkpt lat="43.51384" lon="6.93695">
        <ele>22.799999237061</ele>
        <time>2013-12-29T11:36:20.000Z</time>
      </trkpt>
      <trkpt lat="43.51398" lon="6.93695">
        <ele>21.799999237061</ele>
        <time>2013-12-29T11:36:22.000Z</time>
      </trkpt>
      <trkpt lat="43.51453" lon="6.93698">
        <ele>21.60000038147</ele>
        <time>2013-12-29T11:36:30.000Z</time>
      </trkpt>
      <trkpt lat="43.51493" lon="6.93708">
        <ele>21.799999237061</ele>
        <time>2013-12-29T11:36:36.000Z</time>
      </trkpt>
      <trkpt lat="43.51499" lon="6.93714">
        <ele>21</ele>
        <time>2013-12-29T11:36:37.000Z</time>
      </trkpt>
      <trkpt lat="43.51517" lon="6.93737">
        <ele>19.39999961853</ele>
        <time>2013-12-29T11:36:41.000Z</time>
      </trkpt>
      <trkpt lat="43.51548" lon="6.93759">
        <ele>19.200000762939</ele>
        <time>2013-12-29T11:36:47.000Z</time>
      </trkpt>
      <trkpt lat="43.51594" lon="6.93786">
        <ele>17.39999961853</ele>
        <time>2013-12-29T11:36:56.000Z</time>
      </trkpt>
      <trkpt lat="43.5161" lon="6.93781">
        <ele>16.39999961853</ele>
        <time>2013-12-29T11:36:59.000Z</time>
      </trkpt>
      <trkpt lat="43.51621" lon="6.93765">
        <ele>17.60000038147</ele>
        <time>2013-12-29T11:37:02.000Z</time>
      </trkpt>
      <trkpt lat="43.51628" lon="6.93751">
        <ele>19</ele>
        <time>2013-12-29T11:37:04.000Z</time>
      </trkpt>
      <trkpt lat="43.51644" lon="6.93722">
        <ele>21.60000038147</ele>
        <time>2013-12-29T11:37:08.000Z</time>
      </trkpt>
      <trkpt lat="43.51665" lon="6.93672">
        <ele>23.799999237061</ele>
        <time>2013-12-29T11:37:13.000Z</time>
      </trkpt>
      <trkpt lat="43.51686" lon="6.93612">
        <ele>27.60000038147</ele>
        <time>2013-12-29T11:37:18.000Z</time>
      </trkpt>
      <trkpt lat="43.51723" lon="6.93543">
        <ele>24.200000762939</ele>
        <time>2013-12-29T11:37:24.000Z</time>
      </trkpt>
      <trkpt lat="43.51751" lon="6.93528">
        <ele>15.60000038147</ele>
        <time>2013-12-29T11:37:27.000Z</time>
      </trkpt>
      <trkpt lat="43.51776" lon="6.93544">
        <ele>24.60000038147</ele>
        <time>2013-12-29T11:37:30.000Z</time>
      </trkpt>
      <trkpt lat="43.51781" lon="6.93573">
        <ele>24.799999237061</ele>
        <time>2013-12-29T11:37:32.000Z</time>
      </trkpt>
      <trkpt lat="43.5178" lon="6.93609">
        <ele>24</ele>
        <time>2013-12-29T11:37:35.000Z</time>
      </trkpt>
      <trkpt lat="43.51776" lon="6.93657">
        <ele>21.799999237061</ele>
        <time>2013-12-29T11:37:40.000Z</time>
      </trkpt>
      <trkpt lat="43.51775" lon="6.93696">
        <ele>20.39999961853</ele>
        <time>2013-12-29T11:37:45.000Z</time>
      </trkpt>
      <trkpt lat="43.51778" lon="6.93716">
        <ele>21.60000038147</ele>
        <time>2013-12-29T11:37:48.000Z</time>
      </trkpt>
      <trkpt lat="43.51781" lon="6.93728">
        <ele>22.799999237061</ele>
        <time>2013-12-29T11:37:50.000Z</time>
      </trkpt>
      <trkpt lat="43.51788" lon="6.93759">
        <ele>24.60000038147</ele>
        <time>2013-12-29T11:37:55.000Z</time>
      </trkpt>
      <trkpt lat="43.51788" lon="6.93765">
        <ele>24.60000038147</ele>
        <time>2013-12-29T11:37:56.000Z</time>
      </trkpt>
      <trkpt lat="43.51789" lon="6.93797">
        <ele>23.60000038147</ele>
        <time>2013-12-29T11:38:02.000Z</time>
      </trkpt>
      <trkpt lat="43.5179" lon="6.93807">
        <ele>23.799999237061</ele>
        <time>2013-12-29T11:38:04.000Z</time>
      </trkpt>
      <trkpt lat="43.51794" lon="6.93828">
        <ele>24.200000762939</ele>
        <time>2013-12-29T11:38:08.000Z</time>
      </trkpt>
      <trkpt lat="43.51802" lon="6.93858">
        <ele>25.799999237061</ele>
        <time>2013-12-29T11:38:14.000Z</time>
      </trkpt>
      <trkpt lat="43.51814" lon="6.93877">
        <ele>28.39999961853</ele>
        <time>2013-12-29T11:38:19.000Z</time>
      </trkpt>
      <trkpt lat="43.51833" lon="6.93903">
        <ele>31.60000038147</ele>
        <time>2013-12-29T11:38:26.000Z</time>
      </trkpt>
      <trkpt lat="43.51847" lon="6.9393">
        <ele>31</ele>
        <time>2013-12-29T11:38:32.000Z</time>
      </trkpt>
      <trkpt lat="43.51861" lon="6.93955">
        <ele>29.39999961853</ele>
        <time>2013-12-29T11:38:38.000Z</time>
      </trkpt>
      <trkpt lat="43.51883" lon="6.93969">
        <ele>32.200000762939</ele>
        <time>2013-12-29T11:38:44.000Z</time>
      </trkpt>
      <trkpt lat="43.51917" lon="6.9399">
        <ele>36.400001525879</ele>
        <time>2013-12-29T11:38:53.000Z</time>
      </trkpt>
      <trkpt lat="43.51951" lon="6.94011">
        <ele>32.799999237061</ele>
        <time>2013-12-29T11:39:00.000Z</time>
      </trkpt>
      <trkpt lat="43.51991" lon="6.94031">
        <ele>30.200000762939</ele>
        <time>2013-12-29T11:39:06.000Z</time>
      </trkpt>
      <trkpt lat="43.52039" lon="6.94047">
        <ele>26.200000762939</ele>
        <time>2013-12-29T11:39:12.000Z</time>
      </trkpt>
      <trkpt lat="43.52065" lon="6.9405">
        <ele>24.799999237061</ele>
        <time>2013-12-29T11:39:15.000Z</time>
      </trkpt>
      <trkpt lat="43.52081" lon="6.94044">
        <ele>25.799999237061</ele>
        <time>2013-12-29T11:39:17.000Z</time>
      </trkpt>
      <trkpt lat="43.52104" lon="6.94028">
        <ele>26.60000038147</ele>
        <time>2013-12-29T11:39:20.000Z</time>
      </trkpt>
      <trkpt lat="43.52112" lon="6.94022">
        <ele>26.799999237061</ele>
        <time>2013-12-29T11:39:21.000Z</time>
      </trkpt>
      <trkpt lat="43.52127" lon="6.94012">
        <ele>26</ele>
        <time>2013-12-29T11:39:23.000Z</time>
      </trkpt>
      <trkpt lat="43.52144" lon="6.94006">
        <ele>23.799999237061</ele>
        <time>2013-12-29T11:39:25.000Z</time>
      </trkpt>
      <trkpt lat="43.52173" lon="6.94008">
        <ele>19.60000038147</ele>
        <time>2013-12-29T11:39:28.000Z</time>
      </trkpt>
      <trkpt lat="43.52202" lon="6.94024">
        <ele>20</ele>
        <time>2013-12-29T11:39:31.000Z</time>
      </trkpt>
      <trkpt lat="43.52257" lon="6.94059">
        <ele>19.60000038147</ele>
        <time>2013-12-29T11:39:37.000Z</time>
      </trkpt>
      <trkpt lat="43.52265" lon="6.94065">
        <ele>19</ele>
        <time>2013-12-29T11:39:38.000Z</time>
      </trkpt>
      <trkpt lat="43.52284" lon="6.94087">
        <ele>16.799999237061</ele>
        <time>2013-12-29T11:39:41.000Z</time>
      </trkpt>
      <trkpt lat="43.52288" lon="6.94098">
        <ele>15.800000190735</ele>
        <time>2013-12-29T11:39:42.000Z</time>
      </trkpt>
      <trkpt lat="43.52298" lon="6.9413">
        <ele>13.800000190735</ele>
        <time>2013-12-29T11:39:45.000Z</time>
      </trkpt>
      <trkpt lat="43.52304" lon="6.94137">
        <ele>13.60000038147</ele>
        <time>2013-12-29T11:39:46.000Z</time>
      </trkpt>
      <trkpt lat="43.52327" lon="6.94145">
        <ele>13.800000190735</ele>
        <time>2013-12-29T11:39:49.000Z</time>
      </trkpt>
      <trkpt lat="43.52336" lon="6.94147">
        <ele>14</ele>
        <time>2013-12-29T11:39:50.000Z</time>
      </trkpt>
      <trkpt lat="43.52371" lon="6.94162">
        <ele>12.800000190735</ele>
        <time>2013-12-29T11:39:54.000Z</time>
      </trkpt>
      <trkpt lat="43.52378" lon="6.94168">
        <ele>12.39999961853</ele>
        <time>2013-12-29T11:39:55.000Z</time>
      </trkpt>
      <trkpt lat="43.52388" lon="6.94194">
        <ele>11.199999809265</ele>
        <time>2013-12-29T11:39:57.000Z</time>
      </trkpt>
      <trkpt lat="43.52398" lon="6.94219">
        <ele>10.199999809265</ele>
        <time>2013-12-29T11:39:59.000Z</time>
      </trkpt>
      <trkpt lat="43.5241" lon="6.94241">
        <ele>9.3999996185303</ele>
        <time>2013-12-29T11:40:01.000Z</time>
      </trkpt>
      <trkpt lat="43.52441" lon="6.9431">
        <ele>6.1999998092651</ele>
        <time>2013-12-29T11:40:07.000Z</time>
      </trkpt>
      <trkpt lat="43.52464" lon="6.94358">
        <ele>5.1999998092651</ele>
        <time>2013-12-29T11:40:12.000Z</time>
      </trkpt>
      <trkpt lat="43.52497" lon="6.9439">
        <ele>5.4000000953674</ele>
        <time>2013-12-29T11:40:17.000Z</time>
      </trkpt>
      <trkpt lat="43.52542" lon="6.94435">
        <ele>4.5999999046326</ele>
        <time>2013-12-29T11:40:24.000Z</time>
      </trkpt>
      <trkpt lat="43.52568" lon="6.94459">
        <ele>4</ele>
        <time>2013-12-29T11:40:28.000Z</time>
      </trkpt>
      <trkpt lat="43.52617" lon="6.94506">
        <ele>3.2000000476837</ele>
        <time>2013-12-29T11:40:36.000Z</time>
      </trkpt>
      <trkpt lat="43.52649" lon="6.94527">
        <ele>3.4000000953674</ele>
        <time>2013-12-29T11:40:41.000Z</time>
      </trkpt>
      <trkpt lat="43.52657" lon="6.94529">
        <ele>3.4000000953674</ele>
        <time>2013-12-29T11:40:42.000Z</time>
      </trkpt>
      <trkpt lat="43.52685" lon="6.9454">
        <ele>3.5999999046326</ele>
        <time>2013-12-29T11:40:46.000Z</time>
      </trkpt>
      <trkpt lat="43.52697" lon="6.9455">
        <ele>3.4000000953674</ele>
        <time>2013-12-29T11:40:48.000Z</time>
      </trkpt>
      <trkpt lat="43.52734" lon="6.94582">
        <ele>3</ele>
        <time>2013-12-29T11:40:54.000Z</time>
      </trkpt>
      <trkpt lat="43.52739" lon="6.94589">
        <ele>3</ele>
        <time>2013-12-29T11:40:55.000Z</time>
      </trkpt>
      <trkpt lat="43.52761" lon="6.94618">
        <ele>3.2000000476837</ele>
        <time>2013-12-29T11:40:59.000Z</time>
      </trkpt>
      <trkpt lat="43.52774" lon="6.94627">
        <ele>3.5999999046326</ele>
        <time>2013-12-29T11:41:01.000Z</time>
      </trkpt>
      <trkpt lat="43.52824" lon="6.94663">
        <ele>5.5999999046326</ele>
        <time>2013-12-29T11:41:09.000Z</time>
      </trkpt>
      <trkpt lat="43.52878" lon="6.94694">
        <ele>6.4000000953674</ele>
        <time>2013-12-29T11:41:17.000Z</time>
      </trkpt>
      <trkpt lat="43.5292" lon="6.94716">
        <ele>6.5999999046326</ele>
        <time>2013-12-29T11:41:23.000Z</time>
      </trkpt>
      <trkpt lat="43.52962" lon="6.9473">
        <ele>6.5999999046326</ele>
        <time>2013-12-29T11:41:29.000Z</time>
      </trkpt>
      <trkpt lat="43.53008" lon="6.94738">
        <ele>6.4000000953674</ele>
        <time>2013-12-29T11:41:36.000Z</time>
      </trkpt>
      <trkpt lat="43.53046" lon="6.94753">
        <ele>4.8000001907349</ele>
        <time>2013-12-29T11:41:42.000Z</time>
      </trkpt>
      <trkpt lat="43.53104" lon="6.9478">
        <ele>3.4000000953674</ele>
        <time>2013-12-29T11:41:51.000Z</time>
      </trkpt>
      <trkpt lat="43.53123" lon="6.94789">
        <ele>3.5999999046326</ele>
        <time>2013-12-29T11:41:54.000Z</time>
      </trkpt>
      <trkpt lat="43.53156" lon="6.9481">
        <ele>4.4000000953674</ele>
        <time>2013-12-29T11:41:59.000Z</time>
      </trkpt>
      <trkpt lat="43.53161" lon="6.94816">
        <ele>4.5999999046326</ele>
        <time>2013-12-29T11:42:00.000Z</time>
      </trkpt>
      <trkpt lat="43.53177" lon="6.9485">
        <ele>5</ele>
        <time>2013-12-29T11:42:04.000Z</time>
      </trkpt>
      <trkpt lat="43.53204" lon="6.94889">
        <ele>4.5999999046326</ele>
        <time>2013-12-29T11:42:09.000Z</time>
      </trkpt>
      <trkpt lat="43.53237" lon="6.94918">
        <ele>4.5999999046326</ele>
        <time>2013-12-29T11:42:14.000Z</time>
      </trkpt>
      <trkpt lat="43.5328" lon="6.94956">
        <ele>4.1999998092651</ele>
        <time>2013-12-29T11:42:21.000Z</time>
      </trkpt>
      <trkpt lat="43.53328" lon="6.95001">
        <ele>3</ele>
        <time>2013-12-29T11:42:29.000Z</time>
      </trkpt>
      <trkpt lat="43.53345" lon="6.95017">
        <ele>3.2000000476837</ele>
        <time>2013-12-29T11:42:32.000Z</time>
      </trkpt>
      <trkpt lat="43.53391" lon="6.95062">
        <ele>3.4000000953674</ele>
        <time>2013-12-29T11:42:40.000Z</time>
      </trkpt>
      <trkpt lat="43.53408" lon="6.95079">
        <ele>3</ele>
        <time>2013-12-29T11:42:43.000Z</time>
      </trkpt>
      <trkpt lat="43.53451" lon="6.95125">
        <ele>2.4000000953674</ele>
        <time>2013-12-29T11:42:51.000Z</time>
      </trkpt>
      <trkpt lat="43.53456" lon="6.95131">
        <ele>2.4000000953674</ele>
        <time>2013-12-29T11:42:52.000Z</time>
      </trkpt>
      <trkpt lat="43.535" lon="6.95179">
        <ele>3.2000000476837</ele>
        <time>2013-12-29T11:43:00.000Z</time>
      </trkpt>
      <trkpt lat="43.53522" lon="6.95204">
        <ele>4.1999998092651</ele>
        <time>2013-12-29T11:43:04.000Z</time>
      </trkpt>
      <trkpt lat="43.53564" lon="6.95255">
        <ele>4.1999998092651</ele>
        <time>2013-12-29T11:43:12.000Z</time>
      </trkpt>
      <trkpt lat="43.53579" lon="6.95273">
        <ele>3.5999999046326</ele>
        <time>2013-12-29T11:43:15.000Z</time>
      </trkpt>
      <trkpt lat="43.5362" lon="6.95323">
        <ele>2.5999999046326</ele>
        <time>2013-12-29T11:43:23.000Z</time>
      </trkpt>
      <trkpt lat="43.53661" lon="6.95372">
        <ele>3.4000000953674</ele>
        <time>2013-12-29T11:43:31.000Z</time>
      </trkpt>
      <trkpt lat="43.53666" lon="6.95379">
        <ele>3.5999999046326</ele>
        <time>2013-12-29T11:43:32.000Z</time>
      </trkpt>
      <trkpt lat="43.53708" lon="6.9543">
        <ele>5.8000001907349</ele>
        <time>2013-12-29T11:43:40.000Z</time>
      </trkpt>
      <trkpt lat="43.53729" lon="6.95455">
        <ele>7</ele>
        <time>2013-12-29T11:43:44.000Z</time>
      </trkpt>
      <trkpt lat="43.53769" lon="6.95509">
        <ele>10.39999961853</ele>
        <time>2013-12-29T11:43:52.000Z</time>
      </trkpt>
      <trkpt lat="43.53779" lon="6.95523">
        <ele>11.39999961853</ele>
        <time>2013-12-29T11:43:54.000Z</time>
      </trkpt>
      <trkpt lat="43.53819" lon="6.9558">
        <ele>13.39999961853</ele>
        <time>2013-12-29T11:44:02.000Z</time>
      </trkpt>
      <trkpt lat="43.53844" lon="6.95617">
        <ele>12.800000190735</ele>
        <time>2013-12-29T11:44:07.000Z</time>
      </trkpt>
      <trkpt lat="43.53883" lon="6.95678">
        <ele>10.60000038147</ele>
        <time>2013-12-29T11:44:15.000Z</time>
      </trkpt>
      <trkpt lat="43.53893" lon="6.95693">
        <ele>10</ele>
        <time>2013-12-29T11:44:17.000Z</time>
      </trkpt>
      <trkpt lat="43.53931" lon="6.95754">
        <ele>9</ele>
        <time>2013-12-29T11:44:25.000Z</time>
      </trkpt>
      <trkpt lat="43.53941" lon="6.95768">
        <ele>8.1999998092651</ele>
        <time>2013-12-29T11:44:27.000Z</time>
      </trkpt>
      <trkpt lat="43.53976" lon="6.9583">
        <ele>7.1999998092651</ele>
        <time>2013-12-29T11:44:35.000Z</time>
      </trkpt>
      <trkpt lat="43.5398" lon="6.95838">
        <ele>7.5999999046326</ele>
        <time>2013-12-29T11:44:36.000Z</time>
      </trkpt>
      <trkpt lat="43.54015" lon="6.95901">
        <ele>10.39999961853</ele>
        <time>2013-12-29T11:44:44.000Z</time>
      </trkpt>
      <trkpt lat="43.5402" lon="6.95908">
        <ele>10.800000190735</ele>
        <time>2013-12-29T11:44:45.000Z</time>
      </trkpt>
      <trkpt lat="43.54054" lon="6.9597">
        <ele>10.800000190735</ele>
        <time>2013-12-29T11:44:53.000Z</time>
      </trkpt>
      <trkpt lat="43.54076" lon="6.9601">
        <ele>9</ele>
        <time>2013-12-29T11:44:58.000Z</time>
      </trkpt>
      <trkpt lat="43.54113" lon="6.96069">
        <ele>6.1999998092651</ele>
        <time>2013-12-29T11:45:06.000Z</time>
      </trkpt>
      <trkpt lat="43.54123" lon="6.96083">
        <ele>5.5999999046326</ele>
        <time>2013-12-29T11:45:08.000Z</time>
      </trkpt>
      <trkpt lat="43.54142" lon="6.9611">
        <ele>5.1999998092651</ele>
        <time>2013-12-29T11:45:12.000Z</time>
      </trkpt>
      <trkpt lat="43.54146" lon="6.96127">
        <ele>5.4000000953674</ele>
        <time>2013-12-29T11:45:14.000Z</time>
      </trkpt>
      <trkpt lat="43.54161" lon="6.96144">
        <ele>6.1999998092651</ele>
        <time>2013-12-29T11:45:17.000Z</time>
      </trkpt>
      <trkpt lat="43.54173" lon="6.96167">
        <ele>7.1999998092651</ele>
        <time>2013-12-29T11:45:20.000Z</time>
      </trkpt>
      <trkpt lat="43.54175" lon="6.96175">
        <ele>7</ele>
        <time>2013-12-29T11:45:21.000Z</time>
      </trkpt>
      <trkpt lat="43.54191" lon="6.96219">
        <ele>6.4000000953674</ele>
        <time>2013-12-29T11:45:26.000Z</time>
      </trkpt>
      <trkpt lat="43.54219" lon="6.96275">
        <ele>7</ele>
        <time>2013-12-29T11:45:33.000Z</time>
      </trkpt>
      <trkpt lat="43.54249" lon="6.96339">
        <ele>7.5999999046326</ele>
        <time>2013-12-29T11:45:41.000Z</time>
      </trkpt>
      <trkpt lat="43.54268" lon="6.96379">
        <ele>5.8000001907349</ele>
        <time>2013-12-29T11:45:46.000Z</time>
      </trkpt>
      <trkpt lat="43.54297" lon="6.96446">
        <ele>5.5999999046326</ele>
        <time>2013-12-29T11:45:54.000Z</time>
      </trkpt>
      <trkpt lat="43.54308" lon="6.96471">
        <ele>6.1999998092651</ele>
        <time>2013-12-29T11:45:57.000Z</time>
      </trkpt>
      <trkpt lat="43.54337" lon="6.96542">
        <ele>4.5999999046326</ele>
        <time>2013-12-29T11:46:05.000Z</time>
      </trkpt>
      <trkpt lat="43.5434" lon="6.96551">
        <ele>3.5999999046326</ele>
        <time>2013-12-29T11:46:06.000Z</time>
      </trkpt>
      <trkpt lat="43.54364" lon="6.96612">
        <ele>1.2000000476837</ele>
        <time>2013-12-29T11:46:13.000Z</time>
      </trkpt>
      <trkpt lat="43.54392" lon="6.96681">
        <ele>2.2000000476837</ele>
        <time>2013-12-29T11:46:21.000Z</time>
      </trkpt>
      <trkpt lat="43.54403" lon="6.96708">
        <ele>3.2000000476837</ele>
        <time>2013-12-29T11:46:24.000Z</time>
      </trkpt>
      <trkpt lat="43.54432" lon="6.96779">
        <ele>3.2000000476837</ele>
        <time>2013-12-29T11:46:32.000Z</time>
      </trkpt>
      <trkpt lat="43.54446" lon="6.96815">
        <ele>2.4000000953674</ele>
        <time>2013-12-29T11:46:36.000Z</time>
      </trkpt>
      <trkpt lat="43.54471" lon="6.96878">
        <ele>1.3999999761581</ele>
        <time>2013-12-29T11:46:43.000Z</time>
      </trkpt>
      <trkpt lat="43.54499" lon="6.96948">
        <ele>0.80000001192093</ele>
        <time>2013-12-29T11:46:51.000Z</time>
      </trkpt>
      <trkpt lat="43.54524" lon="6.97019">
        <ele>0.20000000298023</ele>
        <time>2013-12-29T11:46:59.000Z</time>
      </trkpt>
      <trkpt lat="43.54527" lon="6.97028">
        <ele>0.20000000298023</ele>
        <time>2013-12-29T11:47:00.000Z</time>
      </trkpt>
      <trkpt lat="43.54549" lon="6.971">
        <ele>0.20000000298023</ele>
        <time>2013-12-29T11:47:08.000Z</time>
      </trkpt>
      <trkpt lat="43.54569" lon="6.97175">
        <ele>0.20000000298023</ele>
        <time>2013-12-29T11:47:16.000Z</time>
      </trkpt>
      <trkpt lat="43.54582" lon="6.97221">
        <ele>-0.40000000596046</ele>
        <time>2013-12-29T11:47:21.000Z</time>
      </trkpt>
      <trkpt lat="43.54601" lon="6.97294">
        <ele>-1.2000000476837</ele>
        <time>2013-12-29T11:47:29.000Z</time>
      </trkpt>
      <trkpt lat="43.54608" lon="6.97321">
        <ele>-1.2000000476837</ele>
        <time>2013-12-29T11:47:32.000Z</time>
      </trkpt>
      <trkpt lat="43.54627" lon="6.97393">
        <ele>-0.40000000596046</ele>
        <time>2013-12-29T11:47:40.000Z</time>
      </trkpt>
      <trkpt lat="43.54632" lon="6.97411">
        <ele>-0.20000000298023</ele>
        <time>2013-12-29T11:47:42.000Z</time>
      </trkpt>
      <trkpt lat="43.54654" lon="6.97484">
        <ele>0.20000000298023</ele>
        <time>2013-12-29T11:47:50.000Z</time>
      </trkpt>
      <trkpt lat="43.54666" lon="6.97531">
        <ele>-0.40000000596046</ele>
        <time>2013-12-29T11:47:55.000Z</time>
      </trkpt>
      <trkpt lat="43.54685" lon="6.97609">
        <ele>-0.20000000298023</ele>
        <time>2013-12-29T11:48:03.000Z</time>
      </trkpt>
      <trkpt lat="43.54694" lon="6.97648">
        <ele>0.40000000596046</ele>
        <time>2013-12-29T11:48:07.000Z</time>
      </trkpt>
      <trkpt lat="43.54709" lon="6.97726">
        <ele>2</ele>
        <time>2013-12-29T11:48:15.000Z</time>
      </trkpt>
      <trkpt lat="43.54712" lon="6.97745">
        <ele>2.5999999046326</ele>
        <time>2013-12-29T11:48:17.000Z</time>
      </trkpt>
      <trkpt lat="43.54725" lon="6.97822">
        <ele>3.7999999523163</ele>
        <time>2013-12-29T11:48:25.000Z</time>
      </trkpt>
      <trkpt lat="43.54728" lon="6.97842">
        <ele>4</ele>
        <time>2013-12-29T11:48:27.000Z</time>
      </trkpt>
      <trkpt lat="43.54738" lon="6.9792">
        <ele>5.1999998092651</ele>
        <time>2013-12-29T11:48:35.000Z</time>
      </trkpt>
      <trkpt lat="43.54739" lon="6.97929">
        <ele>5.1999998092651</ele>
        <time>2013-12-29T11:48:36.000Z</time>
      </trkpt>
      <trkpt lat="43.5475" lon="6.97998">
        <ele>5</ele>
        <time>2013-12-29T11:48:44.000Z</time>
      </trkpt>
      <trkpt lat="43.54753" lon="6.98012">
        <ele>5.1999998092651</ele>
        <time>2013-12-29T11:48:48.000Z</time>
      </trkpt>
      <trkpt lat="43.54752" lon="6.98015">
        <ele>5.1999998092651</ele>
        <time>2013-12-29T11:48:49.000Z</time>
      </trkpt>
      <trkpt lat="43.54753" lon="6.98031">
        <ele>5.1999998092651</ele>
        <time>2013-12-29T11:48:52.000Z</time>
      </trkpt>
      <trkpt lat="43.54757" lon="6.98062">
        <ele>5.4000000953674</ele>
        <time>2013-12-29T11:48:56.000Z</time>
      </trkpt>
      <trkpt lat="43.54766" lon="6.98135">
        <ele>5.8000001907349</ele>
        <time>2013-12-29T11:49:04.000Z</time>
      </trkpt>
      <trkpt lat="43.54775" lon="6.98211">
        <ele>7</ele>
        <time>2013-12-29T11:49:12.000Z</time>
      </trkpt>
      <trkpt lat="43.54777" lon="6.9823">
        <ele>7</ele>
        <time>2013-12-29T11:49:14.000Z</time>
      </trkpt>
      <trkpt lat="43.54786" lon="6.98305">
        <ele>6.5999999046326</ele>
        <time>2013-12-29T11:49:22.000Z</time>
      </trkpt>
      <trkpt lat="43.54789" lon="6.98334">
        <ele>6</ele>
        <time>2013-12-29T11:49:25.000Z</time>
      </trkpt>
      <trkpt lat="43.54803" lon="6.98411">
        <ele>6.8000001907349</ele>
        <time>2013-12-29T11:49:33.000Z</time>
      </trkpt>
      <trkpt lat="43.54809" lon="6.9844">
        <ele>7.1999998092651</ele>
        <time>2013-12-29T11:49:36.000Z</time>
      </trkpt>
      <trkpt lat="43.54824" lon="6.98518">
        <ele>8.8000001907349</ele>
        <time>2013-12-29T11:49:44.000Z</time>
      </trkpt>
      <trkpt lat="43.54827" lon="6.98539">
        <ele>8.3999996185303</ele>
        <time>2013-12-29T11:49:46.000Z</time>
      </trkpt>
      <trkpt lat="43.54843" lon="6.98618">
        <ele>5.1999998092651</ele>
        <time>2013-12-29T11:49:54.000Z</time>
      </trkpt>
      <trkpt lat="43.5485" lon="6.98657">
        <ele>3.2000000476837</ele>
        <time>2013-12-29T11:49:58.000Z</time>
      </trkpt>
      <trkpt lat="43.54866" lon="6.98736">
        <ele>5.8000001907349</ele>
        <time>2013-12-29T11:50:06.000Z</time>
      </trkpt>
      <trkpt lat="43.54867" lon="6.98746">
        <ele>6.1999998092651</ele>
        <time>2013-12-29T11:50:07.000Z</time>
      </trkpt>
      <trkpt lat="43.5488" lon="6.98826">
        <ele>4</ele>
        <time>2013-12-29T11:50:15.000Z</time>
      </trkpt>
      <trkpt lat="43.54883" lon="6.98846">
        <ele>4</ele>
        <time>2013-12-29T11:50:17.000Z</time>
      </trkpt>
      <trkpt lat="43.54891" lon="6.98925">
        <ele>3.5999999046326</ele>
        <time>2013-12-29T11:50:25.000Z</time>
      </trkpt>
      <trkpt lat="43.54892" lon="6.98935">
        <ele>3.4000000953674</ele>
        <time>2013-12-29T11:50:26.000Z</time>
      </trkpt>
      <trkpt lat="43.54898" lon="6.99014">
        <ele>2.5999999046326</ele>
        <time>2013-12-29T11:50:34.000Z</time>
      </trkpt>
      <trkpt lat="43.54899" lon="6.99044">
        <ele>3</ele>
        <time>2013-12-29T11:50:37.000Z</time>
      </trkpt>
      <trkpt lat="43.54904" lon="6.99125">
        <ele>4.5999999046326</ele>
        <time>2013-12-29T11:50:45.000Z</time>
      </trkpt>
      <trkpt lat="43.54905" lon="6.99145">
        <ele>5.1999998092651</ele>
        <time>2013-12-29T11:50:47.000Z</time>
      </trkpt>
      <trkpt lat="43.54911" lon="6.99223">
        <ele>7.4000000953674</ele>
        <time>2013-12-29T11:50:55.000Z</time>
      </trkpt>
      <trkpt lat="43.54912" lon="6.99232">
        <ele>7.8000001907349</ele>
        <time>2013-12-29T11:50:56.000Z</time>
      </trkpt>
      <trkpt lat="43.54916" lon="6.99305">
        <ele>6.4000000953674</ele>
        <time>2013-12-29T11:51:04.000Z</time>
      </trkpt>
      <trkpt lat="43.54919" lon="6.99335">
        <ele>5.4000000953674</ele>
        <time>2013-12-29T11:51:08.000Z</time>
      </trkpt>
      <trkpt lat="43.54919" lon="6.9935">
        <ele>5.8000001907349</ele>
        <time>2013-12-29T11:51:10.000Z</time>
      </trkpt>
      <trkpt lat="43.54919" lon="6.99385">
        <ele>7</ele>
        <time>2013-12-29T11:51:16.000Z</time>
      </trkpt>
      <trkpt lat="43.54918" lon="6.99417">
        <ele>8</ele>
        <time>2013-12-29T11:51:20.000Z</time>
      </trkpt>
      <trkpt lat="43.54922" lon="6.99489">
        <ele>5.8000001907349</ele>
        <time>2013-12-29T11:51:28.000Z</time>
      </trkpt>
      <trkpt lat="43.54923" lon="6.99543">
        <ele>5</ele>
        <time>2013-12-29T11:51:35.000Z</time>
      </trkpt>
      <trkpt lat="43.54924" lon="6.99591">
        <ele>5</ele>
        <time>2013-12-29T11:51:41.000Z</time>
      </trkpt>
      <trkpt lat="43.54921" lon="6.99647">
        <ele>6</ele>
        <time>2013-12-29T11:51:47.000Z</time>
      </trkpt>
      <trkpt lat="43.54919" lon="6.99723">
        <ele>5.5999999046326</ele>
        <time>2013-12-29T11:51:55.000Z</time>
      </trkpt>
      <trkpt lat="43.54919" lon="6.99742">
        <ele>5.1999998092651</ele>
        <time>2013-12-29T11:51:57.000Z</time>
      </trkpt>
      <trkpt lat="43.54916" lon="6.99809">
        <ele>4.8000001907349</ele>
        <time>2013-12-29T11:52:04.000Z</time>
      </trkpt>
      <trkpt lat="43.54913" lon="6.99887">
        <ele>6.5999999046326</ele>
        <time>2013-12-29T11:52:12.000Z</time>
      </trkpt>
      <trkpt lat="43.54912" lon="6.99925">
        <ele>7.8000001907349</ele>
        <time>2013-12-29T11:52:16.000Z</time>
      </trkpt>
      <trkpt lat="43.54909" lon="7.00002">
        <ele>9.6000003814697</ele>
        <time>2013-12-29T11:52:24.000Z</time>
      </trkpt>
      <trkpt lat="43.54905" lon="7.00082">
        <ele>5</ele>
        <time>2013-12-29T11:52:32.000Z</time>
      </trkpt>
      <trkpt lat="43.54905" lon="7.00093">
        <ele>4.5999999046326</ele>
        <time>2013-12-29T11:52:33.000Z</time>
      </trkpt>
      <trkpt lat="43.54903" lon="7.00173">
        <ele>2.4000000953674</ele>
        <time>2013-12-29T11:52:41.000Z</time>
      </trkpt>
      <trkpt lat="43.54902" lon="7.00193">
        <ele>2.4000000953674</ele>
        <time>2013-12-29T11:52:43.000Z</time>
      </trkpt>
      <trkpt lat="43.54901" lon="7.00273">
        <ele>2.7999999523163</ele>
        <time>2013-12-29T11:52:51.000Z</time>
      </trkpt>
      <trkpt lat="43.54902" lon="7.00294">
        <ele>3</ele>
        <time>2013-12-29T11:52:53.000Z</time>
      </trkpt>
      <trkpt lat="43.54904" lon="7.00378">
        <ele>3.2000000476837</ele>
        <time>2013-12-29T11:53:01.000Z</time>
      </trkpt>
      <trkpt lat="43.54904" lon="7.00389">
        <ele>3</ele>
        <time>2013-12-29T11:53:02.000Z</time>
      </trkpt>
      <trkpt lat="43.54898" lon="7.00469">
        <ele>5.4000000953674</ele>
        <time>2013-12-29T11:53:10.000Z</time>
      </trkpt>
      <trkpt lat="43.54893" lon="7.00539">
        <ele>8.1999998092651</ele>
        <time>2013-12-29T11:53:17.000Z</time>
      </trkpt>
      <trkpt lat="43.54891" lon="7.00586">
        <ele>10</ele>
        <time>2013-12-29T11:53:23.000Z</time>
      </trkpt>
      <trkpt lat="43.54887" lon="7.00633">
        <ele>7.8000001907349</ele>
        <time>2013-12-29T11:53:30.000Z</time>
      </trkpt>
      <trkpt lat="43.54883" lon="7.00679">
        <ele>6.8000001907349</ele>
        <time>2013-12-29T11:53:36.000Z</time>
      </trkpt>
      <trkpt lat="43.54881" lon="7.00716">
        <ele>7.8000001907349</ele>
        <time>2013-12-29T11:53:42.000Z</time>
      </trkpt>
      <trkpt lat="43.5488" lon="7.0072">
        <ele>7.8000001907349</ele>
        <time>2013-12-29T11:53:43.000Z</time>
      </trkpt>
      <trkpt lat="43.54878" lon="7.00731">
        <ele>8.1999998092651</ele>
        <time>2013-12-29T11:53:46.000Z</time>
      </trkpt>
      <trkpt lat="43.54878" lon="7.00737">
        <ele>8.1999998092651</ele>
        <time>2013-12-29T11:53:48.000Z</time>
      </trkpt>
      <trkpt lat="43.54877" lon="7.00759">
        <ele>9</ele>
        <time>2013-12-29T11:53:54.000Z</time>
      </trkpt>
      <trkpt lat="43.54874" lon="7.00788">
        <ele>10.199999809265</ele>
        <time>2013-12-29T11:53:58.000Z</time>
      </trkpt>
      <trkpt lat="43.54864" lon="7.00833">
        <ele>11</ele>
        <time>2013-12-29T11:54:03.000Z</time>
      </trkpt>
      <trkpt lat="43.54848" lon="7.00907">
        <ele>10.800000190735</ele>
        <time>2013-12-29T11:54:11.000Z</time>
      </trkpt>
      <trkpt lat="43.54847" lon="7.00916">
        <ele>10.800000190735</ele>
        <time>2013-12-29T11:54:12.000Z</time>
      </trkpt>
      <trkpt lat="43.54831" lon="7.00989">
        <ele>11.199999809265</ele>
        <time>2013-12-29T11:54:20.000Z</time>
      </trkpt>
      <trkpt lat="43.54814" lon="7.01064">
        <ele>10</ele>
        <time>2013-12-29T11:54:28.000Z</time>
      </trkpt>
      <trkpt lat="43.54798" lon="7.01138">
        <ele>7.5999999046326</ele>
        <time>2013-12-29T11:54:36.000Z</time>
      </trkpt>
      <trkpt lat="43.54782" lon="7.01213">
        <ele>5.1999998092651</ele>
        <time>2013-12-29T11:54:44.000Z</time>
      </trkpt>
      <trkpt lat="43.54788" lon="7.0124">
        <ele>4.4000000953674</ele>
        <time>2013-12-29T11:54:47.000Z</time>
      </trkpt>
      <trkpt lat="43.54804" lon="7.01248">
        <ele>4.1999998092651</ele>
        <time>2013-12-29T11:54:50.000Z</time>
      </trkpt>
      <trkpt lat="43.5481" lon="7.01249">
        <ele>4</ele>
        <time>2013-12-29T11:54:51.000Z</time>
      </trkpt>
      <trkpt lat="43.54844" lon="7.01255">
        <ele>3.5999999046326</ele>
        <time>2013-12-29T11:54:56.000Z</time>
      </trkpt>
      <trkpt lat="43.54871" lon="7.01249">
        <ele>3.5999999046326</ele>
        <time>2013-12-29T11:55:00.000Z</time>
      </trkpt>
      <trkpt lat="43.54926" lon="7.01236">
        <ele>5</ele>
        <time>2013-12-29T11:55:09.000Z</time>
      </trkpt>
      <trkpt lat="43.54964" lon="7.01227">
        <ele>6.4000000953674</ele>
        <time>2013-12-29T11:55:16.000Z</time>
      </trkpt>
      <trkpt lat="43.55003" lon="7.01217">
        <ele>8</ele>
        <time>2013-12-29T11:55:23.000Z</time>
      </trkpt>
      <trkpt lat="43.55032" lon="7.01209">
        <ele>8.6000003814697</ele>
        <time>2013-12-29T11:55:29.000Z</time>
      </trkpt>
      <trkpt lat="43.55038" lon="7.01208">
        <ele>8.6000003814697</ele>
        <time>2013-12-29T11:55:31.000Z</time>
      </trkpt>
      <trkpt lat="43.55044" lon="7.01207">
        <ele>8.6000003814697</ele>
        <time>2013-12-29T11:55:33.000Z</time>
      </trkpt>
      <trkpt lat="43.55065" lon="7.01203">
        <ele>8.3999996185303</ele>
        <time>2013-12-29T11:55:39.000Z</time>
      </trkpt>
      <trkpt lat="43.55084" lon="7.01199">
        <ele>8.1999998092651</ele>
        <time>2013-12-29T11:55:45.000Z</time>
      </trkpt>
      <trkpt lat="43.55099" lon="7.01199">
        <ele>9</ele>
        <time>2013-12-29T11:55:50.000Z</time>
      </trkpt>
      <trkpt lat="43.55114" lon="7.0119">
        <ele>10.199999809265</ele>
        <time>2013-12-29T11:55:55.000Z</time>
      </trkpt>
      <trkpt lat="43.55119" lon="7.01186">
        <ele>10.60000038147</ele>
        <time>2013-12-29T11:55:58.000Z</time>
      </trkpt>
      <trkpt lat="43.5512" lon="7.01185">
        <ele>10.800000190735</ele>
        <time>2013-12-29T11:55:59.000Z</time>
      </trkpt>
      <trkpt lat="43.55126" lon="7.01187">
        <ele>10.800000190735</ele>
        <time>2013-12-29T11:56:02.000Z</time>
      </trkpt>
      <trkpt lat="43.55129" lon="7.01188">
        <ele>10.800000190735</ele>
        <time>2013-12-29T11:56:03.000Z</time>
      </trkpt>
      <trkpt lat="43.55132" lon="7.01186">
        <ele>11</ele>
        <time>2013-12-29T11:56:04.000Z</time>
      </trkpt>
      <trkpt lat="43.55141" lon="7.01176">
        <ele>11.800000190735</ele>
        <time>2013-12-29T11:56:07.000Z</time>
      </trkpt>
      <trkpt lat="43.55147" lon="7.01162">
        <ele>13</ele>
        <time>2013-12-29T11:56:12.000Z</time>
      </trkpt>
      <trkpt lat="43.55142" lon="7.01152">
        <ele>14</ele>
        <time>2013-12-29T11:56:16.000Z</time>
      </trkpt>
      <trkpt lat="43.55138" lon="7.01147">
        <ele>14.39999961853</ele>
        <time>2013-12-29T11:56:18.000Z</time>
      </trkpt>
      <trkpt lat="43.55137" lon="7.0114">
        <ele>15.199999809265</ele>
        <time>2013-12-29T11:56:21.000Z</time>
      </trkpt>
      <trkpt lat="43.55138" lon="7.01137">
        <ele>15.60000038147</ele>
        <time>2013-12-29T11:56:22.000Z</time>
      </trkpt>
      <trkpt lat="43.55141" lon="7.01131">
        <ele>16</ele>
        <time>2013-12-29T11:56:25.000Z</time>
      </trkpt>
    </trkseg>
  </trk>
</gpx>